| time (UTC) | temp F | wind direction | speed knots | gust knots | rain 1hr in | rain 24hr in | rain mn in | humidity % | barometer mb |
| 20260507154122 | 68 | 85 | 3.5 | 8.7 | 0.00 | 0.24 | 0.06 | 75 | 1013.4 |
| 20260507154021 | 68 | 90 | 5.2 | 8.7 | 0.00 | 0.24 | 0.06 | 75 | 1013.4 |
| 20260507153933 | 68 | 63 | 5.2 | 8.7 | 0.00 | 0.24 | 0.06 | 74 | 1013.4 |
| 20260507153828 | 68 | 49 | 5.2 | 8.7 | 0.00 | 0.24 | 0.06 | 74 | 1013.4 |
| 20260507153755 | 68 | 67 | 4.3 | 8.7 | 0.00 | 0.24 | 0.06 | 74 | 1013.5 |
| 20260507153628 | 68 | 51 | 3.5 | 8.7 | 0.00 | 0.24 | 0.06 | 74 | 1013.5 |
| 20260507153553 | 68 | 78 | 4.3 | 8.7 | 0.00 | 0.24 | 0.06 | 74 | 1013.4 |
| 20260507153431 | 68 | 69 | 4.3 | 8.7 | 0.00 | 0.24 | 0.06 | 74 | 1013.4 |
| 20260507153339 | 68 | 100 | 4.3 | 8.7 | 0.00 | 0.24 | 0.06 | 74 | 1013.5 |
| 20260507153234 | 67 | 66 | 4.3 | 9.6 | 0.00 | 0.24 | 0.06 | 74 | 1013.4 |
| 20260507153142 | 67 | 65 | 4.3 | 10.4 | 0.00 | 0.24 | 0.06 | 74 | 1013.4 |
| 20260507153036 | 67 | 80 | 5.2 | 10.4 | 0.00 | 0.24 | 0.06 | 74 | 1013.4 |
| 20260507152944 | 67 | 71 | 4.3 | 10.4 | 0.00 | 0.24 | 0.06 | 74 | 1013.4 |
| 20260507152827 | 67 | 67 | 5.2 | 10.4 | 0.00 | 0.24 | 0.06 | 73 | 1013.4 |
| 20260507152755 | 67 | 67 | 5.2 | 10.4 | 0.00 | 0.24 | 0.06 | 73 | 1013.4 |
| 20260507152627 | 67 | 78 | 5.2 | 10.4 | 0.00 | 0.24 | 0.06 | 73 | 1013.5 |
| 20260507152531 | 67 | 90 | 5.2 | 10.4 | 0.00 | 0.24 | 0.06 | 73 | 1013.5 |
| 20260507152425 | 67 | 73 | 5.2 | 10.4 | 0.00 | 0.24 | 0.06 | 73 | 1013.5 |
| 20260507152327 | 67 | 105 | 6.1 | 10.4 | 0.00 | 0.24 | 0.06 | 73 | 1013.5 |
| 20260507152221 | 67 | 44 | 5.2 | 9.6 | 0.00 | 0.24 | 0.06 | 72 | 1013.5 |
| 20260507152130 | 67 | 360 | 5.2 | 9.6 | 0.00 | 0.24 | 0.06 | 72 | 1013.5 |
| 20260507152026 | 67 | 59 | 6.1 | 9.6 | 0.00 | 0.24 | 0.06 | 72 | 1013.5 |
| 20260507151935 | 67 | 70 | 6.1 | 9.6 | 0.00 | 0.24 | 0.06 | 71 | 1013.5 |
| 20260507151903 | 68 | 82 | 7.0 | 9.6 | 0.00 | 0.24 | 0.06 | 71 | 1013.5 |
| 20260507151759 | 68 | 43 | 7.0 | 9.6 | 0.00 | 0.24 | 0.06 | 71 | 1013.5 |
| 20260507151645 | 68 | 96 | 6.1 | 9.6 | 0.00 | 0.24 | 0.06 | 71 | 1013.5 |
| 20260507151536 | 68 | 82 | 5.2 | 9.6 | 0.00 | 0.24 | 0.06 | 71 | 1013.4 |
| 20260507151444 | 68 | 78 | 5.2 | 9.6 | 0.00 | 0.24 | 0.06 | 71 | 1013.5 |
| 20260507151322 | 68 | 112 | 5.2 | 9.6 | 0.00 | 0.24 | 0.06 | 71 | 1013.5 |
| 20260507151220 | 68 | 101 | 4.3 | 9.6 | 0.00 | 0.24 | 0.06 | 71 | 1013.4 |
| 20260507151127 | 68 | 92 | 4.3 | 9.6 | 0.00 | 0.24 | 0.06 | 70 | 1013.4 |
| 20260507151038 | 68 | 89 | 4.3 | 9.6 | 0.00 | 0.24 | 0.06 | 70 | 1013.4 |
| 20260507150927 | 68 | 64 | 5.2 | 9.6 | 0.00 | 0.24 | 0.06 | 70 | 1013.4 |
| 20260507150854 | 68 | 59 | 5.2 | 9.6 | 0.00 | 0.24 | 0.06 | 70 | 1013.4 |
| 20260507150729 | 68 | 45 | 5.2 | 9.6 | 0.00 | 0.24 | 0.06 | 70 | 1013.4 |
| 20260507150628 | 68 | 37 | 6.1 | 9.6 | 0.00 | 0.24 | 0.06 | 70 | 1013.5 |
| 20260507150519 | 68 | 46 | 5.2 | 9.6 | 0.00 | 0.24 | 0.06 | 69 | 1013.5 |
| 20260507150438 | 68 | 61 | 5.2 | 9.6 | 0.00 | 0.24 | 0.06 | 69 | 1013.5 |
| 20260507150344 | 68 | 96 | 6.1 | 9.6 | 0.00 | 0.24 | 0.06 | 69 | 1013.5 |
| 20260507150238 | 68 | 37 | 5.2 | 8.7 | 0.00 | 0.24 | 0.06 | 69 | 1013.5 |
| 20260507150145 | 68 | 61 | 4.3 | 9.6 | 0.00 | 0.24 | 0.06 | 68 | 1013.5 |
| 20260507150037 | 68 | 113 | 3.5 | 9.6 | 0.00 | 0.24 | 0.06 | 69 | 1013.5 |
| 20260507145949 | 68 | 57 | 4.3 | 9.6 | 0.00 | 0.24 | 0.06 | 68 | 1013.5 |
| 20260507145826 | 68 | 70 | 5.2 | 9.6 | 0.00 | 0.24 | 0.06 | 68 | 1013.5 |
| 20260507145721 | 68 | 69 | 5.2 | 9.6 | 0.00 | 0.24 | 0.06 | 68 | 1013.5 |
| 20260507145630 | 68 | 62 | 5.2 | 9.6 | 0.00 | 0.24 | 0.06 | 68 | 1013.5 |
| 20260507145540 | 68 | 90 | 6.1 | 9.6 | 0.00 | 0.24 | 0.06 | 68 | 1013.5 |
| 20260507145448 | 68 | 74 | 7.0 | 9.6 | 0.00 | 0.24 | 0.06 | 68 | 1013.5 |
| 20260507145334 | 68 | 42 | 6.1 | 9.6 | 0.00 | 0.24 | 0.06 | 68 | 1013.6 |
| 20260507145254 | 68 | 44 | 5.2 | 9.6 | 0.00 | 0.24 | 0.06 | 68 | 1013.5 |
| 20260507145143 | 68 | 51 | 5.2 | 9.6 | 0.00 | 0.24 | 0.06 | 68 | 1013.5 |
| 20260507145034 | 68 | 53 | 4.3 | 9.6 | 0.00 | 0.24 | 0.06 | 68 | 1013.6 |
| 20260507144942 | 68 | 107 | 5.2 | 9.6 | 0.00 | 0.24 | 0.06 | 68 | 1013.5 |
| 20260507144822 | 67 | 85 | 5.2 | 9.6 | 0.00 | 0.24 | 0.06 | 67 | 1013.5 |
| 20260507144718 | 67 | 38 | 4.3 | 9.6 | 0.00 | 0.24 | 0.06 | 67 | 1013.5 |
| 20260507144629 | 67 | 71 | 5.2 | 9.6 | 0.00 | 0.24 | 0.06 | 67 | 1013.5 |
| 20260507144527 | 67 | 63 | 5.2 | 9.6 | 0.00 | 0.24 | 0.06 | 67 | 1013.6 |
| 20260507144422 | 67 | 86 | 4.3 | 9.6 | 0.00 | 0.24 | 0.06 | 69 | 1013.6 |
| 20260507144330 | 67 | 55 | 5.2 | 9.6 | 0.00 | 0.24 | 0.06 | 69 | 1013.6 |
| 20260507144222 | 67 | 88 | 5.2 | 9.6 | 0.00 | 0.24 | 0.06 | 69 | 1013.6 |
| 20260507144131 | 67 | 91 | 5.2 | 9.6 | 0.00 | 0.24 | 0.06 | 69 | 1013.6 |
| 20260507144028 | 67 | 40 | 4.3 | 9.6 | 0.00 | 0.24 | 0.06 | 69 | 1013.5 |
| 20260507143956 | 67 | 68 | 4.3 | 10.4 | 0.00 | 0.24 | 0.06 | 69 | 1013.6 |
| 20260507143834 | 67 | 82 | 5.2 | 11.3 | 0.00 | 0.24 | 0.06 | 69 | 1013.5 |
| 20260507143741 | 67 | 35 | 6.1 | 11.3 | 0.00 | 0.24 | 0.06 | 69 | 1013.5 |
| 20260507143642 | 67 | 59 | 6.1 | 11.3 | 0.00 | 0.24 | 0.06 | 70 | 1013.5 |
| 20260507143547 | 66 | 65 | 6.1 | 11.3 | 0.00 | 0.24 | 0.06 | 69 | 1013.6 |
| 20260507143421 | 66 | 94 | 6.1 | 11.3 | 0.00 | 0.24 | 0.06 | 69 | 1013.6 |
| 20260507143350 | 66 | 42 | 6.1 | 11.3 | 0.00 | 0.24 | 0.06 | 69 | 1013.6 |
| 20260507143246 | 66 | 86 | 7.0 | 11.3 | 0.00 | 0.24 | 0.06 | 69 | 1013.6 |
| 20260507143215 | 66 | 88 | 8.7 | 11.3 | 0.00 | 0.24 | 0.06 | 68 | 1013.7 |
| 20260507143027 | 66 | 86 | 7.8 | 10.4 | 0.00 | 0.24 | 0.06 | 68 | 1013.6 |
| 20260507142921 | 66 | 103 | 7.0 | 10.4 | 0.00 | 0.24 | 0.06 | 68 | 1013.7 |
| 20260507142832 | 66 | 86 | 7.0 | 10.4 | 0.00 | 0.24 | 0.06 | 68 | 1013.7 |
| 20260507142727 | 67 | 91 | 7.0 | 10.4 | 0.00 | 0.24 | 0.06 | 68 | 1013.7 |
| 20260507142638 | 67 | 97 | 6.1 | 10.4 | 0.00 | 0.24 | 0.06 | 69 | 1013.7 |
| 20260507142543 | 67 | 62 | 7.0 | 10.4 | 0.00 | 0.24 | 0.06 | 69 | 1013.7 |
| 20260507142422 | 67 | 115 | 7.0 | 9.6 | 0.00 | 0.24 | 0.06 | 68 | 1013.7 |
| 20260507142318 | 67 | 92 | 6.1 | 9.6 | 0.00 | 0.24 | 0.06 | 68 | 1013.7 |
| 20260507142249 | 67 | 81 | 7.0 | 9.6 | 0.00 | 0.24 | 0.06 | 68 | 1013.7 |
| 20260507142123 | 67 | 68 | 7.0 | 9.6 | 0.00 | 0.24 | 0.06 | 67 | 1013.7 |
| 20260507142027 | 67 | 98 | 6.1 | 10.4 | 0.00 | 0.24 | 0.06 | 67 | 1013.7 |
| 20260507141955 | 67 | 105 | 5.2 | 10.4 | 0.00 | 0.24 | 0.06 | 67 | 1013.7 |
| 20260507141827 | 67 | 51 | 5.2 | 10.4 | 0.00 | 0.24 | 0.06 | 67 | 1013.7 |
| 20260507141737 | 67 | 57 | 6.1 | 10.4 | 0.00 | 0.24 | 0.06 | 67 | 1013.7 |
| 20260507141637 | 67 | 57 | 5.2 | 10.4 | 0.00 | 0.24 | 0.06 | 67 | 1013.7 |
| 20260507141528 | 67 | 68 | 4.3 | 10.4 | 0.00 | 0.24 | 0.06 | 67 | 1013.7 |
| 20260507141455 | 67 | 67 | 6.1 | 10.4 | 0.00 | 0.24 | 0.06 | 67 | 1013.6 |
| 20260507141341 | 67 | 42 | 7.8 | 10.4 | 0.00 | 0.24 | 0.06 | 67 | 1013.6 |
| 20260507141219 | 67 | 65 | 7.8 | 10.4 | 0.00 | 0.24 | 0.06 | 67 | 1013.7 |
| 20260507141134 | 67 | 98 | 6.1 | 8.7 | 0.00 | 0.24 | 0.06 | 67 | 1013.7 |
| 20260507141024 | 67 | 57 | 5.2 | 8.7 | 0.00 | 0.24 | 0.06 | 66 | 1013.7 |
| 20260507140922 | 67 | 86 | 5.2 | 8.7 | 0.00 | 0.24 | 0.06 | 66 | 1013.7 |
| 20260507140820 | 67 | 44 | 5.2 | 8.7 | 0.00 | 0.24 | 0.06 | 67 | 1013.7 |
| 20260507140730 | 67 | 37 | 5.2 | 9.6 | 0.00 | 0.24 | 0.06 | 66 | 1013.7 |
| 20260507140627 | 67 | 101 | 5.2 | 9.6 | 0.00 | 0.24 | 0.06 | 66 | 1013.7 |
| 20260507140531 | 67 | 86 | 5.2 | 10.4 | 0.00 | 0.24 | 0.06 | 66 | 1013.7 |
| 20260507140450 | 67 | 48 | 5.2 | 10.4 | 0.00 | 0.24 | 0.06 | 67 | 1013.7 |
| 20260507140330 | 66 | 35 | 5.2 | 10.4 | 0.00 | 0.24 | 0.06 | 67 | 1013.7 |
| 20260507140225 | 66 | 81 | 5.2 | 10.4 | 0.00 | 0.24 | 0.06 | 67 | 1013.7 |
| 20260507140133 | 66 | 85 | 5.2 | 10.4 | 0.00 | 0.24 | 0.06 | 67 | 1013.7 |
| 20260507140024 | 66 | 59 | 6.1 | 10.4 | 0.00 | 0.24 | 0.06 | 67 | 1013.7 |
| 20260507135935 | 66 | 92 | 6.1 | 10.4 | 0.00 | 0.24 | 0.06 | 67 | 1013.8 |
| 20260507135827 | 66 | 115 | 7.0 | 10.4 | 0.00 | 0.24 | 0.06 | 66 | 1013.8 |
| 20260507135721 | 66 | 80 | 7.8 | 10.4 | 0.00 | 0.24 | 0.06 | 66 | 1013.7 |
| 20260507135640 | 66 | 76 | 7.0 | 10.4 | 0.00 | 0.24 | 0.06 | 66 | 1013.7 |
| 20260507135545 | 66 | 83 | 7.8 | 10.4 | 0.00 | 0.24 | 0.06 | 67 | 1013.8 |
| 20260507135422 | 66 | 90 | 6.1 | 11.3 | 0.00 | 0.24 | 0.06 | 67 | 1013.8 |
| 20260507135319 | 66 | 105 | 5.2 | 11.3 | 0.00 | 0.24 | 0.06 | 68 | 1013.8 |
| 20260507135227 | 66 | 72 | 5.2 | 11.3 | 0.00 | 0.24 | 0.06 | 68 | 1013.8 |
| 20260507135154 | 65 | 57 | 6.1 | 11.3 | 0.00 | 0.24 | 0.06 | 68 | 1013.8 |
| 20260507135031 | 65 | 98 | 7.8 | 11.3 | 0.00 | 0.24 | 0.06 | 67 | 1013.8 |
| 20260507134928 | 65 | 70 | 7.8 | 11.3 | 0.00 | 0.24 | 0.06 | 67 | 1013.8 |
| 20260507134836 | 65 | 103 | 7.8 | 11.3 | 0.00 | 0.24 | 0.06 | 67 | 1013.8 |
| 20260507134730 | 65 | 99 | 7.8 | 11.3 | 0.00 | 0.24 | 0.06 | 67 | 1013.9 |
| 20260507134638 | 65 | 75 | 7.0 | 11.3 | 0.00 | 0.24 | 0.06 | 68 | 1013.9 |
| 20260507134530 | 65 | 95 | 7.0 | 12.2 | 0.00 | 0.24 | 0.06 | 68 | 1013.8 |
| 20260507134442 | 65 | 59 | 7.8 | 12.2 | 0.00 | 0.24 | 0.06 | 68 | 1013.8 |
| 20260507134319 | 65 | 74 | 9.6 | 12.2 | 0.00 | 0.24 | 0.06 | 68 | 1013.8 |
| 20260507134228 | 65 | 61 | 8.7 | 12.2 | 0.00 | 0.24 | 0.06 | 68 | 1013.8 |
| 20260507134142 | 65 | 88 | 8.7 | 12.2 | 0.00 | 0.24 | 0.06 | 68 | 1013.8 |
| 20260507134045 | 65 | 43 | 8.7 | 12.2 | 0.00 | 0.24 | 0.06 | 68 | 1013.8 |
| 20260507133921 | 65 | 84 | 8.7 | 12.2 | 0.00 | 0.24 | 0.06 | 67 | 1013.8 |
| 20260507133849 | 65 | 87 | 9.6 | 12.2 | 0.00 | 0.24 | 0.06 | 67 | 1013.8 |
| 20260507133727 | 65 | 85 | 8.7 | 12.2 | 0.00 | 0.24 | 0.06 | 68 | 1013.8 |
| 20260507133621 | 65 | 67 | 8.7 | 12.2 | 0.00 | 0.24 | 0.06 | 68 | 1013.8 |
| 20260507133529 | 65 | 59 | 7.8 | 12.2 | 0.00 | 0.24 | 0.06 | 68 | 1013.8 |
| 20260507133422 | 65 | 88 | 7.0 | 12.2 | 0.00 | 0.24 | 0.06 | 69 | 1013.8 |
| 20260507133332 | 65 | 72 | 6.1 | 12.2 | 0.00 | 0.24 | 0.06 | 69 | 1013.8 |
| 20260507133229 | 65 | 74 | 7.8 | 12.2 | 0.00 | 0.24 | 0.06 | 69 | 1013.8 |
| 20260507133137 | 65 | 84 | 8.7 | 12.2 | 0.00 | 0.24 | 0.06 | 68 | 1013.8 |
| 20260507133112 | 65 | 65 | 9.6 | 12.2 | 0.00 | 0.24 | 0.06 | 68 | 1013.8 |
| 20260507132925 | 65 | 99 | 9.6 | 12.2 | 0.00 | 0.24 | 0.06 | 69 | 1013.8 |
| 20260507132843 | 65 | 89 | 9.6 | 12.2 | 0.00 | 0.24 | 0.06 | 69 | 1013.8 |
| 20260507132730 | 65 | 88 | 8.7 | 12.2 | 0.00 | 0.24 | 0.06 | 69 | 1013.8 |
| 20260507132638 | 65 | 92 | 8.7 | 12.2 | 0.00 | 0.24 | 0.06 | 68 | 1013.8 |
| 20260507132532 | 65 | 81 | 9.6 | 12.2 | 0.00 | 0.24 | 0.06 | 68 | 1013.8 |
| 20260507132427 | 65 | 67 | 8.7 | 12.2 | 0.00 | 0.24 | 0.06 | 68 | 1013.8 |
| 20260507132354 | 65 | 93 | 8.7 | 11.3 | 0.00 | 0.24 | 0.06 | 69 | 1013.8 |
| 20260507132223 | 65 | 76 | 7.8 | 11.3 | 0.00 | 0.24 | 0.06 | 70 | 1013.8 |
| 20260507132152 | 65 | 90 | 7.8 | 11.3 | 0.00 | 0.24 | 0.06 | 70 | 1013.8 |
| 20260507132023 | 65 | 81 | 7.0 | 11.3 | 0.00 | 0.24 | 0.06 | 70 | 1013.8 |
| 20260507131919 | 65 | 63 | 7.0 | 11.3 | 0.00 | 0.24 | 0.06 | 70 | 1013.8 |
| 20260507131736 | 65 | 82 | 7.0 | 11.3 | 0.00 | 0.24 | 0.06 | 70 | 1013.8 |
| 20260507131629 | 65 | 95 | 6.1 | 11.3 | 0.00 | 0.24 | 0.06 | 71 | 1013.8 |
| 20260507131533 | 65 | 84 | 6.1 | 11.3 | 0.00 | 0.24 | 0.06 | 71 | 1013.9 |
| 20260507131434 | 65 | 117 | 7.0 | 11.3 | 0.00 | 0.24 | 0.06 | 70 | 1013.9 |
| 20260507131341 | 65 | 126 | 8.7 | 11.3 | 0.00 | 0.24 | 0.06 | 70 | 1013.8 |
| 20260507131238 | 65 | 70 | 9.6 | 11.3 | 0.00 | 0.24 | 0.06 | 70 | 1013.9 |
| 20260507131136 | 65 | 81 | 8.7 | 11.3 | 0.00 | 0.24 | 0.06 | 70 | 1013.9 |
| 20260507131041 | 65 | 87 | 7.8 | 11.3 | 0.00 | 0.24 | 0.06 | 71 | 1013.9 |
| 20260507130949 | 65 | 109 | 7.8 | 11.3 | 0.00 | 0.24 | 0.06 | 71 | 1013.9 |
| 20260507130829 | 65 | 75 | 7.8 | 12.2 | 0.00 | 0.24 | 0.06 | 71 | 1013.9 |
| 20260507130723 | 65 | 98 | 8.7 | 12.2 | 0.00 | 0.24 | 0.06 | 70 | 1013.8 |
| 20260507130632 | 65 | 80 | 8.7 | 12.2 | 0.00 | 0.24 | 0.06 | 70 | 1013.8 |
| 20260507130529 | 65 | 86 | 8.7 | 12.2 | 0.00 | 0.24 | 0.06 | 70 | 1013.9 |
| 20260507130422 | 65 | 83 | 7.8 | 12.2 | 0.00 | 0.24 | 0.06 | 70 | 1013.9 |
| 20260507130334 | 65 | 87 | 8.7 | 12.2 | 0.00 | 0.24 | 0.06 | 70 | 1013.9 |
| 20260507130217 | 66 | 69 | 8.7 | 12.2 | 0.00 | 0.24 | 0.06 | 70 | 1013.9 |
| 20260507130149 | 66 | 58 | 7.8 | 12.2 | 0.00 | 0.24 | 0.06 | 70 | 1013.9 |
| 20260507130022 | 66 | 65 | 7.8 | 10.4 | 0.00 | 0.24 | 0.06 | 70 | 1013.8 |
| 20260507125950 | 66 | 84 | 7.0 | 10.4 | 0.00 | 0.24 | 0.06 | 70 | 1013.8 |
| 20260507125822 | 66 | 99 | 7.0 | 10.4 | 0.00 | 0.24 | 0.06 | 69 | 1013.9 |
| 20260507125750 | 66 | 78 | 7.0 | 10.4 | 0.00 | 0.24 | 0.06 | 69 | 1013.9 |
| 20260507125621 | 66 | 84 | 7.0 | 10.4 | 0.00 | 0.24 | 0.06 | 69 | 1013.8 |
| 20260507125532 | 66 | 55 | 7.0 | 10.4 | 0.00 | 0.24 | 0.06 | 68 | 1013.8 |
| 20260507125439 | 67 | 61 | 7.0 | 10.4 | 0.00 | 0.24 | 0.06 | 68 | 1013.9 |
| 20260507125334 | 67 | 70 | 6.1 | 10.4 | 0.00 | 0.24 | 0.06 | 68 | 1013.8 |
| 20260507125232 | 67 | 46 | 5.2 | 9.6 | 0.00 | 0.24 | 0.06 | 68 | 1013.8 |
| 20260507125200 | 67 | 71 | 3.5 | 8.7 | 0.00 | 0.24 | 0.06 | 68 | 1013.8 |
| 20260507125044 | 67 | 73 | 4.3 | 8.7 | 0.00 | 0.24 | 0.06 | 68 | 1013.8 |
| 20260507124918 | 67 | 54 | 4.3 | 8.7 | 0.00 | 0.24 | 0.06 | 68 | 1013.8 |
| 20260507124836 | 67 | 69 | 4.3 | 8.7 | 0.00 | 0.24 | 0.06 | 67 | 1013.8 |
| 20260507124727 | 67 | 88 | 4.3 | 8.7 | 0.00 | 0.24 | 0.06 | 67 | 1013.8 |
| 20260507124621 | 67 | 69 | 4.3 | 8.7 | 0.00 | 0.24 | 0.06 | 67 | 1013.8 |
| 20260507124519 | 67 | 76 | 4.3 | 8.7 | 0.00 | 0.24 | 0.06 | 67 | 1013.9 |
| 20260507124427 | 67 | 80 | 4.3 | 9.6 | 0.00 | 0.24 | 0.06 | 67 | 1013.9 |
| 20260507124355 | 67 | 98 | 4.3 | 9.6 | 0.00 | 0.24 | 0.06 | 67 | 1013.9 |
| 20260507124229 | 67 | 81 | 4.3 | 9.6 | 0.00 | 0.24 | 0.06 | 67 | 1013.8 |
| 20260507124157 | 67 | 96 | 4.3 | 9.6 | 0.00 | 0.24 | 0.06 | 67 | 1013.9 |
| 20260507124125 | 67 | 84 | 5.2 | 9.6 | 0.00 | 0.24 | 0.06 | 67 | 1013.9 |
| 20260507124005 | 67 | 55 | 5.2 | 9.6 | 0.00 | 0.24 | 0.06 | 67 | 1013.8 |
| 20260507123900 | 67 | 49 | 5.2 | 9.6 | 0.00 | 0.24 | 0.06 | 66 | 1013.8 |
| 20260507123747 | 67 | 72 | 6.1 | 9.6 | 0.00 | 0.24 | 0.06 | 66 | 1013.8 |
| 20260507123621 | 67 | 60 | 6.1 | 9.6 | 0.00 | 0.24 | 0.06 | 66 | 1013.8 |
| 20260507123550 | 68 | 62 | 5.2 | 9.6 | 0.00 | 0.24 | 0.06 | 66 | 1013.8 |
| 20260507123437 | 68 | 61 | 4.3 | 8.7 | 0.00 | 0.24 | 0.06 | 66 | 1013.8 |
| 20260507123344 | 68 | 69 | 4.3 | 8.7 | 0.00 | 0.24 | 0.06 | 65 | 1013.8 |
| 20260507123222 | 68 | 59 | 4.3 | 8.7 | 0.00 | 0.24 | 0.06 | 65 | 1013.8 |
| 20260507123138 | 68 | 51 | 5.2 | 8.7 | 0.00 | 0.24 | 0.06 | 65 | 1013.8 |
| 20260507123041 | 68 | 39 | 4.3 | 8.7 | 0.00 | 0.24 | 0.06 | 66 | 1013.8 |
| 20260507122935 | 68 | 34 | 5.2 | 8.7 | 0.00 | 0.24 | 0.06 | 66 | 1013.9 |
| 20260507122842 | 67 | 61 | 4.3 | 10.4 | 0.00 | 0.24 | 0.06 | 66 | 1013.8 |
| 20260507122718 | 67 | 86 | 4.3 | 10.4 | 0.00 | 0.24 | 0.06 | 66 | 1013.8 |
| 20260507122650 | 67 | 55 | 5.2 | 10.4 | 0.00 | 0.24 | 0.06 | 66 | 1013.8 |
| 20260507122527 | 67 | 40 | 5.2 | 10.4 | 0.00 | 0.24 | 0.06 | 66 | 1013.8 |
| 20260507122423 | 67 | 66 | 5.2 | 10.4 | 0.00 | 0.24 | 0.06 | 66 | 1013.8 |
| 20260507122331 | 67 | 70 | 6.1 | 10.4 | 0.00 | 0.24 | 0.06 | 67 | 1013.8 |
| 20260507122226 | 67 | 78 | 6.1 | 10.4 | 0.00 | 0.24 | 0.06 | 67 | 1013.9 |
| 20260507122136 | 67 | 79 | 7.0 | 10.4 | 0.00 | 0.24 | 0.06 | 67 | 1013.8 |
| 20260507122051 | 67 | 47 | 6.1 | 10.4 | 0.00 | 0.24 | 0.06 | 66 | 1013.9 |
| 20260507121921 | 67 | 59 | 7.0 | 10.4 | 0.00 | 0.24 | 0.06 | 66 | 1013.9 |
| 20260507121817 | 67 | 50 | 6.1 | 10.4 | 0.00 | 0.24 | 0.06 | 66 | 1013.9 |
| 20260507121747 | 67 | 45 | 6.1 | 10.4 | 0.00 | 0.24 | 0.06 | 67 | 1013.9 |
| 20260507121622 | 67 | 90 | 6.1 | 10.4 | 0.00 | 0.24 | 0.06 | 66 | 1013.9 |
| 20260507121548 | 67 | 31 | 5.2 | 10.4 | 0.00 | 0.24 | 0.06 | 66 | 1013.9 |
| 20260507121452 | 67 | 39 | 6.1 | 10.4 | 0.00 | 0.24 | 0.06 | 67 | 1013.9 |
| 20260507121326 | 67 | 74 | 4.3 | 10.4 | 0.00 | 0.24 | 0.06 | 67 | 1013.9 |
| 20260507121219 | 67 | 55 | 5.2 | 10.4 | 0.00 | 0.24 | 0.06 | 67 | 1013.9 |
| 20260507121132 | 67 | 51 | 5.2 | 10.4 | 0.00 | 0.24 | 0.06 | 67 | 1013.9 |
| 20260507121057 | 67 | 49 | 6.1 | 10.4 | 0.00 | 0.24 | 0.06 | 67 | 1013.9 |
| 20260507120930 | 67 | 51 | 5.2 | 10.4 | 0.00 | 0.24 | 0.06 | 67 | 1013.9 |
| 20260507120835 | 67 | 67 | 4.3 | 10.4 | 0.00 | 0.24 | 0.06 | 67 | 1013.9 |
| 20260507120730 | 67 | 57 | 7.0 | 10.4 | 0.00 | 0.24 | 0.06 | 66 | 1013.9 |
| 20260507120658 | 67 | 62 | 7.8 | 10.4 | 0.00 | 0.24 | 0.06 | 66 | 1013.9 |
| 20260507120528 | 67 | 49 | 6.1 | 9.6 | 0.00 | 0.24 | 0.06 | 66 | 1013.9 |
| 20260507120456 | 67 | 45 | 5.2 | 8.7 | 0.00 | 0.24 | 0.06 | 66 | 1014.0 |
| 20260507120349 | 67 | 38 | 5.2 | 8.7 | 0.00 | 0.24 | 0.06 | 65 | 1014.0 |
| 20260507120240 | 67 | 42 | 6.1 | 8.7 | 0.00 | 0.24 | 0.06 | 65 | 1014.0 |
| 20260507120131 | 67 | 32 | 6.1 | 8.7 | 0.00 | 0.24 | 0.06 | 65 | 1014.0 |
| 20260507120101 | 67 | 55 | 5.2 | 8.7 | 0.00 | 0.24 | 0.06 | 66 | 1014.0 |
| 20260507115917 | 67 | 22 | 5.2 | 8.7 | 0.00 | 0.24 | 0.06 | 66 | 1014.0 |
| 20260507115815 | 67 | 54 | 5.2 | 10.4 | 0.00 | 0.24 | 0.06 | 66 | 1013.9 |
| 20260507115727 | 67 | 54 | 5.2 | 10.4 | 0.00 | 0.24 | 0.06 | 66 | 1013.9 |
| 20260507115644 | 67 | 10 | 4.3 | 10.4 | 0.00 | 0.24 | 0.06 | 66 | 1014.1 |
| 20260507115444 | 67 | 55 | 4.3 | 10.4 | 0.00 | 0.24 | 0.06 | 66 | 1014.0 |
| 20260507115316 | 67 | 46 | 5.2 | 10.4 | 0.00 | 0.24 | 0.06 | 66 | 1014.1 |
| 20260507115248 | 67 | 38 | 6.1 | 10.4 | 0.00 | 0.24 | 0.06 | 66 | 1014.1 |
| 20260507115121 | 67 | 32 | 6.1 | 10.4 | 0.00 | 0.24 | 0.06 | 65 | 1014.0 |
| 20260507115049 | 67 | 40 | 7.0 | 10.4 | 0.00 | 0.24 | 0.06 | 65 | 1014.0 |
| 20260507114921 | 67 | 34 | 6.1 | 9.6 | 0.00 | 0.24 | 0.06 | 65 | 1014.0 |
| 20260507114831 | 67 | 51 | 5.2 | 9.6 | 0.00 | 0.24 | 0.06 | 65 | 1014.0 |
| 20260507114730 | 67 | 59 | 5.2 | 9.6 | 0.00 | 0.24 | 0.06 | 65 | 1014.0 |
| 20260507114637 | 67 | 44 | 6.1 | 9.6 | 0.00 | 0.24 | 0.06 | 64 | 1014.0 |
| 20260507114528 | 67 | 83 | 6.1 | 9.6 | 0.00 | 0.24 | 0.06 | 64 | 1014.0 |
| 20260507114423 | 67 | 49 | 6.1 | 8.7 | 0.00 | 0.24 | 0.06 | 64 | 1014.0 |
| 20260507114331 | 67 | 63 | 6.1 | 8.7 | 0.00 | 0.24 | 0.06 | 64 | 1014.0 |
| 20260507114259 | 67 | 49 | 6.1 | 9.6 | 0.00 | 0.24 | 0.06 | 64 | 1014.0 |
| 20260507114156 | 67 | 49 | 5.2 | 9.6 | 0.00 | 0.24 | 0.06 | 64 | 1014.0 |
| 20260507114042 | 67 | 55 | 5.2 | 9.6 | 0.00 | 0.24 | 0.06 | 64 | 1014.0 |
| 20260507113922 | 67 | 77 | 6.1 | 9.6 | 0.00 | 0.24 | 0.06 | 63 | 1014.0 |
| 20260507113821 | 67 | 46 | 6.1 | 9.6 | 0.00 | 0.24 | 0.06 | 64 | 1014.0 |
| 20260507113748 | 67 | 59 | 5.2 | 9.6 | 0.00 | 0.24 | 0.06 | 64 | 1014.0 |
| 20260507113655 | 67 | 31 | 6.1 | 9.6 | 0.00 | 0.24 | 0.06 | 64 | 1014.1 |
| 20260507113529 | 67 | 36 | 6.1 | 9.6 | 0.00 | 0.24 | 0.06 | 64 | 1014.1 |
| 20260507113437 | 67 | 60 | 6.1 | 9.6 | 0.00 | 0.24 | 0.06 | 64 | 1014.1 |
| 20260507113331 | 67 | 53 | 6.1 | 9.6 | 0.00 | 0.24 | 0.06 | 64 | 1014.0 |
| 20260507113236 | 67 | 14 | 5.2 | 9.6 | 0.00 | 0.24 | 0.06 | 64 | 1014.1 |
| 20260507113146 | 67 | 78 | 6.1 | 12.2 | 0.00 | 0.24 | 0.06 | 64 | 1014.1 |
| 20260507113040 | 67 | 63 | 7.0 | 12.2 | 0.00 | 0.24 | 0.06 | 64 | 1014.1 |
| 20260507112948 | 66 | 31 | 7.0 | 12.2 | 0.00 | 0.24 | 0.06 | 64 | 1014.1 |
| 20260507112819 | 66 | 60 | 6.1 | 12.2 | 0.00 | 0.24 | 0.06 | 65 | 1014.1 |
| 20260507112737 | 66 | 51 | 6.1 | 12.2 | 0.00 | 0.24 | 0.06 | 65 | 1014.1 |
| 20260507112644 | 66 | 360 | 6.1 | 12.2 | 0.00 | 0.24 | 0.06 | 64 | 1014.1 |
| 20260507112525 | 66 | 52 | 7.0 | 12.2 | 0.00 | 0.24 | 0.06 | 63 | 1014.1 |
| 20260507112421 | 66 | 52 | 7.8 | 12.2 | 0.00 | 0.24 | 0.06 | 63 | 1014.1 |
| 20260507112351 | 66 | 27 | 7.8 | 12.2 | 0.00 | 0.24 | 0.06 | 63 | 1014.1 |
| 20260507112238 | 66 | 28 | 7.0 | 10.4 | 0.00 | 0.24 | 0.06 | 64 | 1014.1 |
| 20260507112117 | 66 | 42 | 6.1 | 8.7 | 0.00 | 0.24 | 0.06 | 64 | 1014.1 |
| 20260507112035 | 66 | 53 | 7.0 | 8.7 | 0.00 | 0.24 | 0.06 | 65 | 1014.1 |
| 20260507111941 | 66 | 32 | 7.0 | 8.7 | 0.00 | 0.24 | 0.06 | 66 | 1014.1 |
| 20260507111822 | 66 | 22 | 6.1 | 9.6 | 0.00 | 0.24 | 0.06 | 67 | 1014.1 |
| 20260507111720 | 66 | 37 | 5.2 | 9.6 | 0.00 | 0.24 | 0.06 | 67 | 1014.1 |
| 20260507111629 | 66 | 32 | 6.1 | 10.4 | 0.00 | 0.24 | 0.06 | 67 | 1014.1 |
| 20260507111521 | 66 | 24 | 6.1 | 11.3 | 0.00 | 0.24 | 0.06 | 67 | 1014.1 |
| 20260507111425 | 66 | 19 | 5.2 | 12.2 | 0.00 | 0.24 | 0.06 | 67 | 1014.1 |
| 20260507111321 | 66 | 22 | 6.1 | 12.2 | 0.00 | 0.24 | 0.06 | 67 | 1014.1 |
| 20260507111230 | 66 | 47 | 7.0 | 12.2 | 0.00 | 0.24 | 0.06 | 67 | 1014.1 |
| 20260507111132 | 66 | 46 | 7.0 | 12.2 | 0.00 | 0.24 | 0.06 | 66 | 1014.1 |
| 20260507111056 | 66 | 40 | 7.8 | 12.2 | 0.00 | 0.24 | 0.06 | 67 | 1014.1 |
| 20260507110931 | 66 | 36 | 7.8 | 12.2 | 0.00 | 0.24 | 0.06 | 67 | 1014.1 |
| 20260507110819 | 66 | 5 | 9.6 | 12.2 | 0.00 | 0.24 | 0.06 | 67 | 1014.1 |
| 20260507110734 | 66 | 17 | 9.6 | 12.2 | 0.00 | 0.24 | 0.06 | 67 | 1014.1 |
| 20260507110642 | 66 | 26 | 9.6 | 12.2 | 0.00 | 0.24 | 0.06 | 67 | 1014.1 |
| 20260507110518 | 66 | 27 | 9.6 | 12.2 | 0.00 | 0.24 | 0.06 | 66 | 1014.1 |
| 20260507110419 | 66 | 36 | 9.6 | 12.2 | 0.00 | 0.24 | 0.06 | 66 | 1014.2 |
| 20260507110328 | 66 | 30 | 9.6 | 12.2 | 0.00 | 0.24 | 0.06 | 66 | 1014.2 |
| 20260507110221 | 66 | 15 | 9.6 | 12.2 | 0.00 | 0.24 | 0.06 | 67 | 1014.1 |
| 20260507110133 | 66 | 25 | 8.7 | 12.2 | 0.00 | 0.24 | 0.06 | 66 | 1014.1 |
| 20260507110026 | 66 | 32 | 8.7 | 11.3 | 0.00 | 0.24 | 0.06 | 67 | 1014.1 |
| 20260507105934 | 66 | 38 | 8.7 | 11.3 | 0.00 | 0.24 | 0.06 | 66 | 1014.1 |
| 20260507105902 | 66 | 19 | 8.7 | 11.3 | 0.00 | 0.24 | 0.06 | 67 | 1014.1 |
| 20260507105719 | 66 | 31 | 9.6 | 10.4 | 0.00 | 0.24 | 0.06 | 66 | 1014.1 |
| 20260507105633 | 66 | 28 | 8.7 | 10.4 | 0.00 | 0.24 | 0.06 | 66 | 1014.1 |
| 20260507105521 | 66 | 26 | 7.8 | 10.4 | 0.00 | 0.24 | 0.06 | 66 | 1014.1 |
| 20260507105419 | 67 | 22 | 8.7 | 9.6 | 0.00 | 0.24 | 0.06 | 66 | 1014.2 |
| 20260507105346 | 67 | 32 | 7.8 | 9.6 | 0.00 | 0.24 | 0.06 | 66 | 1014.2 |
| 20260507105219 | 67 | 32 | 7.8 | 9.6 | 0.00 | 0.24 | 0.06 | 67 | 1014.1 |
| 20260507105120 | 67 | 34 | 7.0 | 9.6 | 0.00 | 0.24 | 0.06 | 67 | 1014.1 |
| 20260507105032 | 67 | 27 | 7.0 | 9.6 | 0.00 | 0.24 | 0.06 | 67 | 1014.1 |
| 20260507104925 | 67 | 21 | 7.0 | 9.6 | 0.00 | 0.24 | 0.06 | 67 | 1014.1 |
| 20260507104836 | 67 | 17 | 7.8 | 9.6 | 0.00 | 0.24 | 0.06 | 67 | 1014.1 |
| 20260507104728 | 67 | 15 | 7.0 | 9.6 | 0.00 | 0.24 | 0.06 | 67 | 1014.2 |
| 20260507104636 | 67 | 13 | 6.1 | 9.6 | 0.00 | 0.24 | 0.06 | 67 | 1014.2 |
| 20260507104541 | 66 | 9 | 7.0 | 9.6 | 0.00 | 0.24 | 0.06 | 67 | 1014.2 |
| 20260507104421 | 66 | 27 | 7.0 | 10.4 | 0.00 | 0.24 | 0.06 | 67 | 1014.2 |
| 20260507104316 | 66 | 19 | 7.0 | 10.4 | 0.00 | 0.24 | 0.06 | 67 | 1014.3 |
| 20260507104227 | 66 | 27 | 7.0 | 10.4 | 0.00 | 0.24 | 0.06 | 67 | 1014.3 |
| 20260507104140 | 66 | 28 | 7.0 | 11.3 | 0.00 | 0.24 | 0.06 | 67 | 1014.3 |
| 20260507104043 | 66 | 30 | 7.0 | 12.2 | 0.00 | 0.24 | 0.06 | 67 | 1014.4 |
| 20260507103951 | 66 | 51 | 7.0 | 12.2 | 0.00 | 0.24 | 0.06 | 67 | 1014.4 |
| 20260507103822 | 66 | 30 | 7.0 | 12.2 | 0.00 | 0.24 | 0.06 | 68 | 1014.3 |
| 20260507103751 | 66 | 15 | 7.0 | 12.2 | 0.00 | 0.24 | 0.06 | 68 | 1014.3 |
| 20260507103629 | 66 | 39 | 7.0 | 12.2 | 0.00 | 0.24 | 0.06 | 68 | 1014.4 |
| 20260507103535 | 65 | 34 | 7.0 | 12.2 | 0.00 | 0.24 | 0.06 | 68 | 1014.3 |
| 20260507103429 | 65 | 52 | 8.7 | 12.2 | 0.00 | 0.24 | 0.06 | 67 | 1014.3 |
| 20260507103329 | 65 | 22 | 9.6 | 12.2 | 0.00 | 0.24 | 0.06 | 67 | 1014.2 |
| 20260507103237 | 65 | 37 | 9.6 | 12.2 | 0.00 | 0.24 | 0.06 | 67 | 1014.3 |
| 20260507103130 | 65 | 40 | 8.7 | 12.2 | 0.00 | 0.24 | 0.06 | 68 | 1014.2 |
| 20260507103040 | 65 | 48 | 9.6 | 12.2 | 0.00 | 0.24 | 0.06 | 68 | 1014.2 |
| 20260507102947 | 65 | 10 | 9.6 | 12.2 | 0.00 | 0.24 | 0.06 | 67 | 1014.2 |
| 20260507102822 | 65 | 31 | 9.6 | 13.0 | 0.00 | 0.24 | 0.06 | 68 | 1014.3 |
| 20260507102737 | 65 | 37 | 9.6 | 13.0 | 0.00 | 0.24 | 0.06 | 68 | 1014.3 |
| 20260507102645 | 65 | 38 | 9.6 | 13.0 | 0.00 | 0.24 | 0.06 | 69 | 1014.2 |
| 20260507102520 | 65 | 22 | 9.6 | 13.0 | 0.00 | 0.24 | 0.06 | 68 | 1014.2 |
| 20260507102449 | 65 | 5 | 9.6 | 13.0 | 0.00 | 0.24 | 0.06 | 68 | 1014.2 |
| 20260507102331 | 65 | 46 | 9.6 | 13.0 | 0.00 | 0.24 | 0.06 | 68 | 1014.2 |
| 20260507102238 | 65 | 22 | 10.4 | 13.0 | 0.00 | 0.24 | 0.06 | 67 | 1014.2 |
| 20260507102136 | 65 | 19 | 10.4 | 13.0 | 0.00 | 0.24 | 0.06 | 67 | 1014.2 |
| 20260507102027 | 65 | 23 | 9.6 | 13.0 | 0.00 | 0.24 | 0.06 | 68 | 1014.2 |
| 20260507101935 | 65 | 46 | 8.7 | 12.2 | 0.00 | 0.24 | 0.06 | 68 | 1014.3 |
| 20260507101830 | 65 | 30 | 8.7 | 12.2 | 0.00 | 0.24 | 0.06 | 69 | 1014.2 |
| 20260507101740 | 65 | 51 | 8.7 | 12.2 | 0.00 | 0.24 | 0.06 | 68 | 1014.2 |
| 20260507101624 | 65 | 35 | 9.6 | 12.2 | 0.00 | 0.24 | 0.06 | 68 | 1014.2 |
| 20260507101530 | 65 | 28 | 10.4 | 13.0 | 0.00 | 0.24 | 0.06 | 68 | 1014.2 |
| 20260507101336 | 65 | 34 | 9.6 | 13.0 | 0.00 | 0.24 | 0.06 | 68 | 1014.2 |
| 20260507101226 | 65 | 36 | 10.4 | 13.0 | 0.00 | 0.24 | 0.06 | 68 | 1014.2 |
| 20260507101143 | 66 | 33 | 9.6 | 13.0 | 0.00 | 0.24 | 0.06 | 69 | 1014.2 |
| 20260507101053 | 66 | 27 | 9.6 | 13.0 | 0.00 | 0.24 | 0.06 | 69 | 1014.2 |
| 20260507100959 | 66 | 5 | 10.4 | 13.0 | 0.00 | 0.24 | 0.06 | 68 | 1014.3 |
| 20260507100845 | 66 | 30 | 10.4 | 13.0 | 0.00 | 0.24 | 0.06 | 68 | 1014.2 |
| 20260507100747 | 66 | 53 | 9.6 | 13.0 | 0.00 | 0.24 | 0.06 | 68 | 1014.2 |
| 20260507100637 | 66 | 44 | 9.6 | 13.0 | 0.00 | 0.24 | 0.06 | 68 | 1014.2 |
| 20260507100531 | 66 | 55 | 9.6 | 13.0 | 0.00 | 0.24 | 0.06 | 67 | 1014.2 |
| 20260507100459 | 66 | 25 | 10.4 | 13.0 | 0.00 | 0.24 | 0.06 | 66 | 1014.2 |
| 20260507100335 | 67 | 32 | 10.4 | 13.0 | 0.00 | 0.24 | 0.06 | 66 | 1014.2 |
| 20260507100240 | 67 | 29 | 8.7 | 12.2 | 0.00 | 0.24 | 0.06 | 67 | 1014.3 |
| 20260507100150 | 67 | 11 | 7.8 | 10.4 | 0.00 | 0.24 | 0.06 | 67 | 1014.3 |
| 20260507100025 | 68 | 5 | 7.0 | 10.4 | 0.00 | 0.24 | 0.06 | 66 | 1014.3 |
| 20260507095847 | 68 | 15 | 7.8 | 10.4 | 0.00 | 0.24 | 0.06 | 66 | 1014.2 |
| 20260507095721 | 68 | 24 | 7.0 | 10.4 | 0.00 | 0.24 | 0.06 | 66 | 1014.3 |
| 20260507095639 | 68 | 17 | 7.0 | 10.4 | 0.00 | 0.24 | 0.06 | 66 | 1014.3 |
| 20260507095542 | 68 | 25 | 7.0 | 11.3 | 0.00 | 0.24 | 0.06 | 66 | 1014.2 |
| 20260507095435 | 68 | 45 | 7.0 | 11.3 | 0.00 | 0.24 | 0.06 | 66 | 1014.2 |
| 20260507095343 | 67 | 5 | 6.1 | 11.3 | 0.00 | 0.24 | 0.06 | 66 | 1014.2 |
| 20260507095257 | 67 | 73 | 5.2 | 11.3 | 0.00 | 0.24 | 0.06 | 67 | 1014.2 |
| 20260507095229 | 67 | 20 | 6.1 | 11.3 | 0.00 | 0.24 | 0.06 | 67 | 1014.2 |
| 20260507095043 | 67 | 360 | 7.0 | 11.3 | 0.00 | 0.24 | 0.06 | 66 | 1014.2 |
| 20260507094917 | 68 | 344 | 7.8 | 11.3 | 0.00 | 0.24 | 0.06 | 66 | 1014.2 |
| 20260507094849 | 68 | 26 | 7.8 | 11.3 | 0.00 | 0.24 | 0.06 | 66 | 1014.2 |
| 20260507094723 | 68 | 9 | 7.0 | 11.3 | 0.00 | 0.24 | 0.06 | 66 | 1014.2 |
| 20260507094629 | 68 | 5 | 6.1 | 11.3 | 0.00 | 0.24 | 0.06 | 67 | 1014.2 |
| 20260507094523 | 68 | 5 | 5.2 | 12.2 | 0.00 | 0.24 | 0.06 | 68 | 1014.2 |
| 20260507094437 | 68 | 43 | 5.2 | 12.2 | 0.00 | 0.24 | 0.06 | 68 | 1014.2 |
| 20260507094331 | 68 | 335 | 6.1 | 12.2 | 0.00 | 0.24 | 0.06 | 68 | 1014.2 |
| 20260507094242 | 68 | 346 | 7.0 | 12.2 | 0.00 | 0.24 | 0.06 | 68 | 1014.2 |
| 20260507094122 | 68 | 18 | 7.0 | 12.2 | 0.00 | 0.24 | 0.06 | 68 | 1014.2 |
| 20260507094038 | 68 | 5 | 7.0 | 12.2 | 0.00 | 0.24 | 0.06 | 68 | 1014.2 |
| 20260507093945 | 68 | 11 | 7.0 | 12.2 | 0.00 | 0.24 | 0.06 | 68 | 1014.2 |
| 20260507093852 | 68 | 19 | 7.8 | 12.2 | 0.00 | 0.24 | 0.06 | 68 | 1014.2 |
| 20260507093730 | 68 | 15 | 7.0 | 12.2 | 0.00 | 0.24 | 0.06 | 69 | 1014.2 |
| 20260507093622 | 68 | 11 | 6.1 | 12.2 | 0.00 | 0.24 | 0.06 | 71 | 1014.2 |
| 20260507093527 | 68 | 330 | 7.0 | 12.2 | 0.00 | 0.24 | 0.06 | 71 | 1014.2 |
| 20260507093420 | 68 | 15 | 7.0 | 12.2 | 0.00 | 0.24 | 0.06 | 71 | 1014.2 |
| 20260507093348 | 68 | 13 | 6.1 | 12.2 | 0.00 | 0.24 | 0.06 | 71 | 1014.2 |
| 20260507093222 | 68 | 5 | 7.0 | 12.2 | 0.00 | 0.24 | 0.06 | 70 | 1014.1 |
| 20260507093154 | 68 | 355 | 7.0 | 12.2 | 0.00 | 0.24 | 0.06 | 70 | 1014.1 |
| 20260507093103 | 68 | 26 | 7.0 | 12.2 | 0.00 | 0.24 | 0.06 | 70 | 1014.1 |
| 20260507093032 | 68 | 338 | 7.0 | 12.2 | 0.00 | 0.24 | 0.06 | 70 | 1014.1 |
| 20260507092818 | 68 | 28 | 6.1 | 11.3 | 0.00 | 0.24 | 0.06 | 70 | 1014.1 |
| 20260507092735 | 68 | 40 | 5.2 | 11.3 | 0.00 | 0.24 | 0.06 | 70 | 1014.1 |
| 20260507092702 | 68 | 355 | 6.1 | 11.3 | 0.00 | 0.24 | 0.06 | 70 | 1014.1 |
| 20260507092546 | 68 | 38 | 7.0 | 11.3 | 0.00 | 0.24 | 0.06 | 70 | 1014.1 |
| 20260507092421 | 68 | 5 | 6.1 | 10.4 | 0.00 | 0.24 | 0.06 | 70 | 1014.1 |
| 20260507092333 | 69 | 5 | 5.2 | 10.4 | 0.00 | 0.24 | 0.06 | 70 | 1014.1 |
| 20260507092249 | 69 | 59 | 5.2 | 10.4 | 0.00 | 0.24 | 0.06 | 70 | 1014.1 |
| 20260507092142 | 69 | 360 | 6.1 | 11.3 | 0.00 | 0.24 | 0.06 | 70 | 1014.1 |
| 20260507092048 | 69 | 57 | 6.1 | 11.3 | 0.00 | 0.24 | 0.06 | 70 | 1014.1 |
| 20260507091919 | 69 | 13 | 5.2 | 11.3 | 0.00 | 0.24 | 0.06 | 70 | 1014.0 |
| 20260507091847 | 69 | 40 | 6.1 | 11.3 | 0.00 | 0.24 | 0.06 | 69 | 1014.0 |
| 20260507091725 | 69 | 56 | 5.2 | 11.3 | 0.00 | 0.24 | 0.06 | 70 | 1014.0 |
| 20260507091623 | 69 | 27 | 6.1 | 11.3 | 0.00 | 0.24 | 0.06 | 70 | 1014.0 |
| 20260507091527 | 69 | 360 | 6.1 | 11.3 | 0.00 | 0.24 | 0.06 | 70 | 1014.0 |
| 20260507091423 | 69 | 13 | 6.1 | 11.3 | 0.00 | 0.24 | 0.06 | 69 | 1014.0 |
| 20260507091332 | 69 | 15 | 7.0 | 11.3 | 0.00 | 0.24 | 0.06 | 70 | 1014.0 |
| 20260507091230 | 70 | 339 | 6.1 | 11.3 | 0.00 | 0.24 | 0.06 | 69 | 1013.9 |
| 20260507091124 | 70 | 38 | 5.2 | 11.3 | 0.00 | 0.24 | 0.06 | 68 | 1013.9 |
| 20260507091048 | 70 | 16 | 7.0 | 11.3 | 0.00 | 0.24 | 0.06 | 67 | 1013.9 |
| 20260507090934 | 70 | 350 | 7.0 | 11.3 | 0.00 | 0.24 | 0.06 | 67 | 1013.9 |
| 20260507090835 | 70 | 350 | 6.1 | 11.3 | 0.00 | 0.24 | 0.06 | 67 | 1013.9 |
| 20260507090746 | 70 | 9 | 5.2 | 11.3 | 0.00 | 0.24 | 0.06 | 67 | 1013.9 |
| 20260507090619 | 71 | 338 | 4.3 | 11.3 | 0.00 | 0.24 | 0.06 | 66 | 1013.9 |
| 20260507090533 | 71 | 36 | 3.5 | 7.8 | 0.00 | 0.24 | 0.06 | 65 | 1013.9 |
| 20260507090444 | 71 | 96 | 3.5 | 7.8 | 0.00 | 0.24 | 0.06 | 65 | 1013.9 |
| 20260507090322 | 71 | 5 | 3.5 | 7.0 | 0.00 | 0.24 | 0.06 | 63 | 1013.9 |
| 20260507090251 | 71 | 360 | 3.5 | 7.0 | 0.00 | 0.24 | 0.06 | 63 | 1013.9 |
| 20260507090129 | 71 | 355 | 0.9 | 6.1 | 0.00 | 0.24 | 0.06 | 63 | 1013.9 |
| 20260507090019 | 71 | 31 | 0.9 | 6.1 | 0.00 | 0.24 | 0.06 | 63 | 1014.0 |
| 20260507085929 | 71 | 31 | 1.7 | 6.1 | 0.00 | 0.24 | 0.06 | 63 | 1014.0 |
| 20260507085823 | 71 | 13 | 1.7 | 6.1 | 0.00 | 0.24 | 0.06 | 63 | 1014.0 |
| 20260507085752 | 71 | 350 | 2.6 | 6.1 | 0.00 | 0.24 | 0.06 | 63 | 1014.0 |
| 20260507085625 | 71 | 36 | 1.7 | 6.1 | 0.00 | 0.24 | 0.06 | 63 | 1013.9 |
| 20260507085530 | 71 | 15 | 2.6 | 6.1 | 0.00 | 0.24 | 0.06 | 63 | 1013.9 |
| 20260507085430 | 71 | 21 | 4.3 | 6.1 | 0.00 | 0.24 | 0.06 | 63 | 1013.9 |
| 20260507085338 | 71 | 16 | 4.3 | 6.1 | 0.00 | 0.24 | 0.06 | 63 | 1014.0 |
| 20260507085238 | 71 | 26 | 1.7 | 5.2 | 0.00 | 0.24 | 0.06 | 65 | 1013.9 |
| 20260507085132 | 71 | 355 | 0.9 | 5.2 | 0.00 | 0.24 | 0.06 | 65 | 1014.0 |
| 20260507085040 | 71 | 13 | 2.6 | 5.2 | 0.04 | 0.24 | 0.06 | 65 | 1014.0 |
| 20260507084932 | 71 | 13 | 3.5 | 5.2 | 0.04 | 0.24 | 0.06 | 64 | 1014.1 |
| 20260507084825 | 71 | 9 | 2.6 | 5.2 | 0.04 | 0.24 | 0.06 | 64 | 1014.0 |
| 20260507084756 | 71 | 5 | 2.6 | 5.2 | 0.04 | 0.24 | 0.06 | 64 | 1014.0 |
| 20260507084632 | 70 | 5 | 1.7 | 6.1 | 0.04 | 0.24 | 0.06 | 64 | 1014.0 |
| 20260507084529 | 70 | 360 | 2.6 | 6.1 | 0.04 | 0.24 | 0.06 | 64 | 1014.0 |
| 20260507084435 | 70 | 22 | 3.5 | 6.1 | 0.04 | 0.24 | 0.06 | 64 | 1013.9 |
| 20260507084333 | 70 | 35 | 2.6 | 6.1 | 0.04 | 0.24 | 0.06 | 64 | 1013.9 |
| 20260507084216 | 70 | 29 | 2.6 | 6.1 | 0.04 | 0.24 | 0.06 | 65 | 1013.9 |
| 20260507084136 | 70 | 44 | 2.6 | 7.0 | 0.04 | 0.24 | 0.06 | 65 | 1013.9 |
| 20260507084022 | 70 | 5 | 2.6 | 7.0 | 0.04 | 0.24 | 0.06 | 64 | 1013.9 |
| 20260507083937 | 70 | 344 | 2.6 | 7.0 | 0.04 | 0.24 | 0.06 | 64 | 1013.9 |
| 20260507083820 | 70 | 107 | 1.7 | 7.0 | 0.04 | 0.24 | 0.06 | 63 | 1013.9 |
| 20260507083750 | 70 | 110 | 1.7 | 7.0 | 0.04 | 0.24 | 0.06 | 64 | 1013.9 |
| 20260507083625 | 70 | 59 | 3.5 | 7.0 | 0.04 | 0.24 | 0.06 | 64 | 1013.9 |
| 20260507083542 | 70 | 285 | 3.5 | 7.0 | 0.04 | 0.24 | 0.06 | 63 | 1013.9 |
| 20260507083430 | 70 | 148 | 1.7 | 7.8 | 0.04 | 0.24 | 0.06 | 64 | 1013.9 |
| 20260507083341 | 70 | 135 | 3.5 | 7.8 | 0.04 | 0.24 | 0.06 | 64 | 1013.8 |
| 20260507083236 | 70 | 250 | 3.5 | 9.6 | 0.04 | 0.24 | 0.06 | 64 | 1013.9 |
| 20260507083134 | 70 | 263 | 1.7 | 9.6 | 0.04 | 0.24 | 0.06 | 64 | 1013.9 |
| 20260507083040 | 70 | 21 | 1.7 | 11.3 | 0.04 | 0.24 | 0.06 | 64 | 1013.9 |
| 20260507082933 | 69 | 329 | 2.6 | 11.3 | 0.04 | 0.24 | 0.06 | 63 | 1013.8 |
| 20260507082841 | 69 | 322 | 3.5 | 11.3 | 0.04 | 0.24 | 0.06 | 63 | 1013.8 |
| 20260507082722 | 69 | 312 | 3.5 | 11.3 | 0.04 | 0.24 | 0.06 | 63 | 1013.9 |
| 20260507082650 | 69 | 331 | 4.3 | 11.3 | 0.04 | 0.24 | 0.06 | 62 | 1013.9 |
| 20260507082522 | 69 | 229 | 7.8 | 11.3 | 0.04 | 0.24 | 0.06 | 62 | 1013.7 |
| 20260507082451 | 69 | 238 | 7.0 | 11.3 | 0.04 | 0.24 | 0.06 | 63 | 1013.7 |
| 20260507082325 | 69 | 263 | 7.8 | 11.3 | 0.04 | 0.24 | 0.06 | 63 | 1013.7 |
| 20260507082220 | 69 | 269 | 8.7 | 11.3 | 0.04 | 0.24 | 0.06 | 63 | 1013.6 |
| 20260507082153 | 69 | 274 | 7.8 | 10.4 | 0.04 | 0.24 | 0.06 | 64 | 1013.6 |
| 20260507082028 | 69 | 207 | 7.0 | 9.6 | 0.04 | 0.24 | 0.06 | 64 | 1013.6 |
| 20260507081957 | 69 | 239 | 7.0 | 9.6 | 0.04 | 0.24 | 0.06 | 66 | 1013.5 |
| 20260507081830 | 69 | 212 | 6.1 | 9.6 | 0.04 | 0.24 | 0.06 | 68 | 1013.5 |
| 20260507081759 | 69 | 198 | 4.3 | 8.7 | 0.04 | 0.24 | 0.06 | 68 | 1013.5 |
| 20260507081706 | 68 | 160 | 1.7 | 7.8 | 0.04 | 0.24 | 0.06 | 68 | 1013.5 |
| 20260507081520 | 68 | 165 | 3.5 | 7.8 | 0.04 | 0.24 | 0.06 | 68 | 1013.5 |
| 20260507081448 | 68 | 165 | 3.5 | 7.8 | 0.04 | 0.24 | 0.06 | 68 | 1013.5 |
| 20260507081329 | 68 | 138 | 5.2 | 7.8 | 0.04 | 0.24 | 0.06 | 68 | 1013.5 |
| 20260507081222 | 68 | 137 | 4.3 | 7.8 | 0.04 | 0.24 | 0.06 | 67 | 1013.5 |
| 20260507081131 | 68 | 138 | 4.3 | 7.8 | 0.04 | 0.24 | 0.06 | 67 | 1013.5 |
| 20260507081056 | 68 | 171 | 5.2 | 7.8 | 0.04 | 0.24 | 0.06 | 67 | 1013.6 |
| 20260507080944 | 68 | 165 | 5.2 | 7.8 | 0.04 | 0.24 | 0.06 | 67 | 1013.6 |
| 20260507080820 | 68 | 170 | 4.3 | 7.0 | 0.04 | 0.24 | 0.06 | 67 | 1013.6 |
| 20260507080748 | 68 | 172 | 4.3 | 7.0 | 0.04 | 0.24 | 0.06 | 67 | 1013.6 |
| 20260507080628 | 68 | 153 | 4.3 | 7.0 | 0.04 | 0.24 | 0.06 | 67 | 1013.6 |
| 20260507080555 | 68 | 236 | 5.2 | 8.7 | 0.04 | 0.24 | 0.06 | 68 | 1013.6 |
| 20260507080428 | 68 | 205 | 4.3 | 8.7 | 0.04 | 0.24 | 0.06 | 69 | 1013.6 |
| 20260507080334 | 67 | 207 | 4.3 | 8.7 | 0.04 | 0.24 | 0.06 | 69 | 1013.5 |
| 20260507080241 | 67 | 196 | 4.3 | 8.7 | 0.04 | 0.24 | 0.06 | 69 | 1013.6 |
| 20260507080121 | 67 | 169 | 5.2 | 8.7 | 0.04 | 0.24 | 0.06 | 68 | 1013.6 |
| 20260507080033 | 67 | 192 | 5.2 | 8.7 | 0.04 | 0.24 | 0.06 | 68 | 1013.6 |
| 20260507075927 | 67 | 213 | 6.1 | 8.7 | 0.04 | 0.24 | 0.06 | 68 | 1013.6 |
| 20260507075822 | 67 | 245 | 7.0 | 8.7 | 0.04 | 0.24 | 0.06 | 68 | 1013.5 |
| 20260507075718 | 67 | 259 | 6.1 | 8.7 | 0.04 | 0.24 | 0.06 | 69 | 1013.5 |
| 20260507075650 | 67 | 251 | 5.2 | 8.7 | 0.04 | 0.24 | 0.06 | 70 | 1013.5 |
| 20260507075545 | 67 | 217 | 4.3 | 7.0 | 0.04 | 0.24 | 0.06 | 70 | 1013.5 |
| 20260507075419 | 66 | 167 | 5.2 | 7.0 | 0.04 | 0.24 | 0.06 | 71 | 1013.7 |
| 20260507075319 | 66 | 196 | 5.2 | 7.8 | 0.04 | 0.24 | 0.06 | 71 | 1013.7 |
| 20260507075231 | 66 | 201 | 3.5 | 7.8 | 0.04 | 0.24 | 0.06 | 71 | 1013.7 |
| 20260507075125 | 66 | 167 | 3.5 | 7.8 | 0.00 | 0.20 | 0.05 | 71 | 1013.7 |
| 20260507075056 | 66 | 167 | 3.5 | 9.6 | 0.00 | 0.20 | 0.05 | 71 | 1013.7 |
| 20260507074932 | 66 | 173 | 3.5 | 9.6 | 0.00 | 0.20 | 0.05 | 71 | 1013.7 |
| 20260507074842 | 66 | 192 | 3.5 | 9.6 | 0.00 | 0.20 | 0.05 | 71 | 1013.6 |
| 20260507074810 | 66 | 167 | 3.5 | 9.6 | 0.00 | 0.20 | 0.05 | 71 | 1013.7 |
| 20260507074642 | 66 | 142 | 5.2 | 9.6 | 0.00 | 0.20 | 0.05 | 70 | 1013.6 |
| 20260507074530 | 66 | 169 | 4.3 | 9.6 | 0.00 | 0.20 | 0.05 | 70 | 1013.6 |
| 20260507074431 | 66 | 163 | 4.3 | 9.6 | 0.00 | 0.20 | 0.05 | 70 | 1013.7 |
| 20260507074323 | 66 | 175 | 6.1 | 9.6 | 0.00 | 0.20 | 0.05 | 70 | 1013.7 |
| 20260507074231 | 66 | 174 | 6.1 | 11.3 | 0.00 | 0.20 | 0.05 | 70 | 1013.7 |
| 20260507074122 | 66 | 188 | 6.1 | 11.3 | 0.00 | 0.20 | 0.05 | 70 | 1013.7 |
| 20260507074049 | 66 | 177 | 6.1 | 11.3 | 0.00 | 0.20 | 0.05 | 70 | 1013.7 |
| 20260507073933 | 66 | 194 | 7.0 | 11.3 | 0.00 | 0.20 | 0.05 | 70 | 1013.6 |
| 20260507073825 | 66 | 173 | 7.0 | 11.3 | 0.00 | 0.20 | 0.05 | 70 | 1013.6 |
| 20260507073738 | 66 | 185 | 7.8 | 11.3 | 0.00 | 0.20 | 0.05 | 70 | 1013.6 |
| 20260507073635 | 66 | 189 | 7.8 | 11.3 | 0.00 | 0.20 | 0.05 | 69 | 1013.7 |
| 20260507073604 | 66 | 193 | 7.0 | 11.3 | 0.00 | 0.20 | 0.05 | 70 | 1013.6 |
| 20260507073507 | 66 | 187 | 7.0 | 11.3 | 0.00 | 0.20 | 0.05 | 70 | 1013.7 |
| 20260507073320 | 66 | 183 | 7.0 | 11.3 | 0.00 | 0.20 | 0.05 | 70 | 1013.6 |
| 20260507073228 | 66 | 189 | 6.1 | 11.3 | 0.00 | 0.20 | 0.05 | 70 | 1013.6 |
| 20260507073143 | 66 | 161 | 6.1 | 11.3 | 0.00 | 0.20 | 0.05 | 70 | 1013.7 |
| 20260507073044 | 66 | 199 | 7.0 | 11.3 | 0.00 | 0.20 | 0.05 | 70 | 1013.6 |
| 20260507072922 | 66 | 186 | 7.0 | 11.3 | 0.00 | 0.20 | 0.05 | 70 | 1013.7 |
| 20260507072818 | 66 | 181 | 7.0 | 11.3 | 0.00 | 0.20 | 0.05 | 70 | 1013.7 |
| 20260507072747 | 66 | 195 | 7.8 | 11.3 | 0.00 | 0.20 | 0.05 | 70 | 1013.7 |
| 20260507072635 | 66 | 179 | 7.0 | 11.3 | 0.00 | 0.20 | 0.05 | 70 | 1013.6 |
| 20260507072528 | 66 | 186 | 7.0 | 11.3 | 0.00 | 0.20 | 0.05 | 71 | 1013.6 |
| 20260507072422 | 66 | 224 | 7.0 | 11.3 | 0.00 | 0.20 | 0.05 | 71 | 1013.7 |
| 20260507072330 | 66 | 172 | 7.8 | 11.3 | 0.00 | 0.20 | 0.05 | 71 | 1013.7 |
| 20260507072230 | 66 | 184 | 8.7 | 11.3 | 0.00 | 0.20 | 0.05 | 71 | 1013.7 |
| 20260507072140 | 66 | 237 | 8.7 | 11.3 | 0.00 | 0.20 | 0.05 | 71 | 1013.7 |
| 20260507072032 | 66 | 234 | 8.7 | 11.3 | 0.00 | 0.20 | 0.05 | 71 | 1013.7 |
| 20260507071940 | 66 | 254 | 7.8 | 11.3 | 0.00 | 0.20 | 0.05 | 72 | 1013.6 |
| 20260507071856 | 66 | 232 | 7.0 | 11.3 | 0.00 | 0.20 | 0.05 | 73 | 1013.7 |
| 20260507071742 | 65 | 213 | 7.0 | 11.3 | 0.00 | 0.20 | 0.05 | 73 | 1013.7 |
| 20260507071622 | 65 | 180 | 7.0 | 9.6 | 0.00 | 0.20 | 0.05 | 73 | 1013.8 |
| 20260507071549 | 65 | 188 | 7.0 | 9.6 | 0.00 | 0.20 | 0.05 | 73 | 1013.8 |
| 20260507071443 | 65 | 226 | 7.0 | 9.6 | 0.00 | 0.20 | 0.05 | 73 | 1013.8 |
| 20260507071333 | 65 | 232 | 7.0 | 9.6 | 0.00 | 0.20 | 0.05 | 74 | 1013.8 |
| 20260507071239 | 65 | 215 | 7.0 | 9.6 | 0.00 | 0.20 | 0.05 | 74 | 1013.8 |
| 20260507071147 | 65 | 218 | 7.0 | 9.6 | 0.00 | 0.20 | 0.05 | 75 | 1013.7 |
| 20260507071019 | 65 | 221 | 7.0 | 9.6 | 0.00 | 0.20 | 0.05 | 75 | 1013.7 |
| 20260507070952 | 65 | 228 | 7.0 | 9.6 | 0.00 | 0.20 | 0.05 | 75 | 1013.7 |
| 20260507070830 | 64 | 236 | 7.0 | 9.6 | 0.00 | 0.20 | 0.05 | 75 | 1013.7 |
| 20260507070738 | 64 | 204 | 7.0 | 9.6 | 0.00 | 0.20 | 0.05 | 75 | 1013.7 |
| 20260507070633 | 64 | 218 | 6.1 | 9.6 | 0.00 | 0.20 | 0.05 | 77 | 1013.7 |
| 20260507070528 | 64 | 217 | 6.1 | 9.6 | 0.00 | 0.20 | 0.05 | 77 | 1013.7 |
| 20260507070435 | 64 | 205 | 6.1 | 9.6 | 0.00 | 0.20 | 0.05 | 77 | 1013.7 |
| 20260507070332 | 64 | 181 | 6.1 | 9.6 | 0.00 | 0.20 | 0.05 | 77 | 1013.7 |
| 20260507070244 | 64 | 191 | 6.1 | 9.6 | 0.00 | 0.20 | 0.05 | 78 | 1013.7 |
| 20260507070121 | 64 | 183 | 6.1 | 9.6 | 0.00 | 0.20 | 0.05 | 78 | 1013.7 |
| 20260507070031 | 64 | 198 | 6.1 | 9.6 | 0.00 | 0.20 | 0.05 | 79 | 1013.7 |
| 20260507065926 | 64 | 202 | 6.1 | 8.7 | 0.00 | 0.20 | 0.05 | 79 | 1013.7 |
| 20260507065837 | 64 | 194 | 5.2 | 8.7 | 0.00 | 0.20 | 0.05 | 79 | 1013.7 |
| 20260507065731 | 63 | 196 | 6.1 | 8.7 | 0.00 | 0.20 | 0.05 | 79 | 1013.7 |
| 20260507065700 | 63 | 189 | 6.1 | 8.7 | 0.00 | 0.20 | 0.05 | 79 | 1013.7 |
| 20260507065530 | 63 | 182 | 5.2 | 8.7 | 0.00 | 0.20 | 0.05 | 79 | 1013.7 |
| 20260507065422 | 63 | 172 | 3.5 | 9.6 | 0.00 | 0.20 | 0.05 | 79 | 1013.6 |
| 20260507065316 | 63 | 163 | 3.5 | 9.6 | 0.00 | 0.20 | 0.05 | 79 | 1013.7 |
| 20260507065249 | 63 | 165 | 2.6 | 9.6 | 0.00 | 0.20 | 0.05 | 79 | 1013.7 |
| 20260507065123 | 63 | 192 | 4.3 | 10.4 | 0.00 | 0.20 | 0.05 | 79 | 1013.7 |
| 20260507065015 | 63 | 190 | 4.3 | 10.4 | 0.00 | 0.20 | 0.05 | 80 | 1013.6 |
| 20260507064927 | 63 | 180 | 4.3 | 10.4 | 0.00 | 0.20 | 0.05 | 80 | 1013.6 |
| 20260507064838 | 63 | 142 | 5.2 | 10.4 | 0.00 | 0.20 | 0.05 | 80 | 1013.6 |
| 20260507064731 | 63 | 187 | 6.1 | 10.4 | 0.00 | 0.20 | 0.05 | 80 | 1013.6 |
| 20260507064642 | 63 | 174 | 6.1 | 10.4 | 0.00 | 0.20 | 0.05 | 80 | 1013.6 |
| 20260507064549 | 63 | 167 | 6.1 | 10.4 | 0.00 | 0.20 | 0.05 | 80 | 1013.6 |
| 20260507064422 | 63 | 179 | 7.0 | 10.4 | 0.00 | 0.20 | 0.05 | 80 | 1013.6 |
| 20260507064338 | 63 | 188 | 6.1 | 10.4 | 0.00 | 0.20 | 0.05 | 80 | 1013.6 |
| 20260507064244 | 63 | 202 | 5.2 | 10.4 | 0.00 | 0.20 | 0.05 | 81 | 1013.6 |
| 20260507064153 | 63 | 192 | 6.1 | 10.4 | 0.00 | 0.20 | 0.05 | 81 | 1013.6 |
| 20260507064106 | 63 | 184 | 6.1 | 10.4 | 0.00 | 0.20 | 0.05 | 81 | 1013.5 |
| 20260507064014 | 62 | 188 | 5.2 | 10.4 | 0.00 | 0.20 | 0.05 | 81 | 1013.5 |
| 20260507063920 | 62 | 195 | 6.1 | 10.4 | 0.00 | 0.20 | 0.05 | 81 | 1013.5 |
| 20260507063740 | 62 | 210 | 7.0 | 10.4 | 0.00 | 0.20 | 0.05 | 81 | 1013.5 |
| 20260507063638 | 62 | 205 | 6.1 | 9.6 | 0.00 | 0.20 | 0.05 | 81 | 1013.5 |
| 20260507063536 | 62 | 194 | 7.0 | 9.6 | 0.00 | 0.20 | 0.05 | 81 | 1013.4 |
| 20260507063442 | 62 | 226 | 7.0 | 9.6 | 0.00 | 0.20 | 0.05 | 81 | 1013.4 |
| 20260507063350 | 62 | 229 | 7.0 | 9.6 | 0.00 | 0.20 | 0.05 | 82 | 1013.4 |
| 20260507063227 | 62 | 227 | 7.0 | 9.6 | 0.00 | 0.20 | 0.05 | 82 | 1013.5 |
| 20260507063140 | 62 | 202 | 7.0 | 9.6 | 0.00 | 0.20 | 0.05 | 82 | 1013.5 |
| 20260507063047 | 62 | 213 | 6.1 | 9.6 | 0.00 | 0.20 | 0.05 | 82 | 1013.4 |
| 20260507063009 | 62 | 227 | 5.2 | 9.6 | 0.00 | 0.20 | 0.05 | 82 | 1013.4 |
| 20260507062937 | 62 | 249 | 5.2 | 9.6 | 0.00 | 0.20 | 0.05 | 82 | 1013.4 |
| 20260507062722 | 62 | 227 | 5.2 | 9.6 | 0.00 | 0.20 | 0.05 | 83 | 1013.5 |
| 20260507062631 | 62 | 230 | 6.1 | 9.6 | 0.00 | 0.20 | 0.05 | 83 | 1013.5 |
| 20260507062530 | 62 | 211 | 6.1 | 9.6 | 0.00 | 0.20 | 0.05 | 83 | 1013.5 |
| 20260507062438 | 62 | 205 | 6.1 | 9.6 | 0.00 | 0.20 | 0.05 | 83 | 1013.5 |
| 20260507062336 | 62 | 212 | 5.2 | 8.7 | 0.00 | 0.20 | 0.05 | 83 | 1013.5 |
| 20260507062248 | 62 | 224 | 6.1 | 8.7 | 0.00 | 0.20 | 0.05 | 83 | 1013.5 |
| 20260507062158 | 62 | 210 | 7.0 | 8.7 | 0.00 | 0.20 | 0.05 | 83 | 1013.5 |
| 20260507062050 | 62 | 202 | 6.1 | 8.7 | 0.00 | 0.20 | 0.05 | 83 | 1013.5 |
| 20260507061934 | 62 | 191 | 6.1 | 7.8 | 0.00 | 0.20 | 0.05 | 83 | 1013.5 |
| 20260507061822 | 62 | 199 | 6.1 | 7.8 | 0.00 | 0.20 | 0.05 | 83 | 1013.5 |
| 20260507061731 | 62 | 197 | 7.0 | 9.6 | 0.00 | 0.20 | 0.05 | 83 | 1013.5 |
| 20260507061639 | 62 | 194 | 6.1 | 9.6 | 0.00 | 0.20 | 0.05 | 83 | 1013.5 |
| 20260507061529 | 62 | 194 | 5.2 | 9.6 | 0.00 | 0.20 | 0.05 | 83 | 1013.6 |
| 20260507061444 | 62 | 205 | 5.2 | 10.4 | 0.00 | 0.20 | 0.05 | 83 | 1013.6 |
| 20260507061339 | 62 | 188 | 5.2 | 10.4 | 0.00 | 0.20 | 0.05 | 83 | 1013.6 |
| 20260507061247 | 62 | 196 | 5.2 | 10.4 | 0.00 | 0.20 | 0.05 | 83 | 1013.6 |
| 20260507061120 | 62 | 214 | 5.2 | 10.4 | 0.00 | 0.20 | 0.05 | 83 | 1013.6 |
| 20260507061050 | 62 | 187 | 6.1 | 10.4 | 0.00 | 0.20 | 0.05 | 83 | 1013.6 |
| 20260507060930 | 62 | 209 | 6.1 | 10.4 | 0.00 | 0.20 | 0.05 | 83 | 1013.7 |
| 20260507060828 | 61 | 202 | 6.1 | 10.4 | 0.00 | 0.20 | 0.05 | 83 | 1013.6 |
| 20260507060716 | 61 | 215 | 7.0 | 10.4 | 0.00 | 0.20 | 0.05 | 83 | 1013.6 |
| 20260507060636 | 61 | 200 | 7.0 | 10.4 | 0.00 | 0.20 | 0.05 | 83 | 1013.6 |
| 20260507060544 | 61 | 204 | 7.0 | 9.6 | 0.00 | 0.20 | 0.05 | 83 | 1013.6 |
| 20260507060421 | 61 | 198 | 7.8 | 9.6 | 0.00 | 0.20 | 0.05 | 83 | 1013.5 |
| 20260507060316 | 61 | 190 | 7.0 | 11.3 | 0.00 | 0.20 | 0.05 | 83 | 1013.5 |
| 20260507060232 | 61 | 191 | 7.0 | 11.3 | 0.00 | 0.20 | 0.05 | 83 | 1013.5 |
| 20260507060131 | 61 | 202 | 7.0 | 11.3 | 0.00 | 0.20 | 0.05 | 84 | 1013.6 |
| 20260507060038 | 61 | 188 | 7.0 | 11.3 | 0.00 | 0.20 | 0.05 | 84 | 1013.5 |
| 20260507055951 | 61 | 176 | 7.0 | 11.3 | 0.00 | 0.20 | 0.05 | 84 | 1013.5 |
| 20260507055900 | 61 | 185 | 7.8 | 11.3 | 0.00 | 0.20 | 0.05 | 84 | 1013.5 |
| 20260507055746 | 61 | 196 | 7.8 | 11.3 | 0.00 | 0.20 | 0.05 | 84 | 1013.5 |
| 20260507055639 | 61 | 196 | 7.8 | 11.3 | 0.00 | 0.20 | 0.05 | 84 | 1013.5 |
| 20260507055531 | 61 | 192 | 7.0 | 11.3 | 0.00 | 0.20 | 0.05 | 84 | 1013.5 |
| 20260507055421 | 61 | 196 | 7.0 | 9.6 | 0.00 | 0.20 | 0.05 | 84 | 1013.5 |
| 20260507055338 | 61 | 190 | 7.0 | 9.6 | 0.00 | 0.20 | 0.05 | 84 | 1013.5 |
| 20260507055244 | 61 | 211 | 7.0 | 9.6 | 0.00 | 0.20 | 0.05 | 84 | 1013.5 |
| 20260507055152 | 61 | 205 | 7.0 | 9.6 | 0.00 | 0.20 | 0.05 | 84 | 1013.5 |
| 20260507055044 | 61 | 202 | 7.0 | 9.6 | 0.00 | 0.20 | 0.05 | 84 | 1013.5 |
| 20260507055009 | 61 | 194 | 7.0 | 8.7 | 0.00 | 0.20 | 0.05 | 84 | 1013.5 |
| 20260507054855 | 61 | 209 | 7.0 | 8.7 | 0.00 | 0.20 | 0.05 | 84 | 1013.5 |
| 20260507054727 | 61 | 208 | 7.0 | 8.7 | 0.00 | 0.20 | 0.05 | 84 | 1013.5 |
| 20260507054639 | 61 | 205 | 7.0 | 8.7 | 0.00 | 0.20 | 0.05 | 84 | 1013.5 |
| 20260507054537 | 61 | 191 | 7.0 | 8.7 | 0.00 | 0.20 | 0.05 | 84 | 1013.5 |
| 20260507054444 | 61 | 198 | 7.0 | 8.7 | 0.00 | 0.20 | 0.05 | 84 | 1013.6 |
| 20260507054321 | 61 | 201 | 7.0 | 8.7 | 0.00 | 0.20 | 0.05 | 84 | 1013.5 |
| 20260507054222 | 61 | 196 | 7.0 | 8.7 | 0.00 | 0.20 | 0.05 | 85 | 1013.6 |
| 20260507054131 | 61 | 200 | 7.0 | 7.8 | 0.00 | 0.20 | 0.05 | 85 | 1013.6 |
| 20260507054027 | 61 | 197 | 6.1 | 7.8 | 0.00 | 0.20 | 0.05 | 85 | 1013.6 |
| 20260507053920 | 61 | 205 | 5.2 | 7.8 | 0.00 | 0.20 | 0.05 | 85 | 1013.5 |
| 20260507053830 | 61 | 191 | 5.2 | 7.8 | 0.00 | 0.20 | 0.05 | 85 | 1013.5 |
| 20260507053722 | 61 | 213 | 5.2 | 7.8 | 0.00 | 0.20 | 0.05 | 85 | 1013.5 |
| 20260507053632 | 61 | 195 | 5.2 | 7.8 | 0.00 | 0.20 | 0.05 | 85 | 1013.5 |
| 20260507053525 | 61 | 191 | 5.2 | 7.8 | 0.00 | 0.20 | 0.05 | 85 | 1013.5 |
| 20260507053437 | 61 | 205 | 6.1 | 7.8 | 0.00 | 0.20 | 0.05 | 85 | 1013.5 |
| 20260507053335 | 61 | 215 | 6.1 | 7.8 | 0.00 | 0.20 | 0.05 | 85 | 1013.4 |
| 20260507053232 | 61 | 211 | 5.2 | 7.8 | 0.00 | 0.20 | 0.05 | 85 | 1013.4 |
| 20260507053141 | 61 | 186 | 6.1 | 7.8 | 0.00 | 0.20 | 0.05 | 85 | 1013.3 |
| 20260507053028 | 61 | 223 | 6.1 | 8.7 | 0.00 | 0.20 | 0.05 | 85 | 1013.3 |
| 20260507052921 | 61 | 218 | 6.1 | 8.7 | 0.00 | 0.20 | 0.05 | 85 | 1013.3 |
| 20260507052830 | 61 | 211 | 6.1 | 8.7 | 0.00 | 0.20 | 0.05 | 85 | 1013.3 |
| 20260507052721 | 61 | 204 | 6.1 | 8.7 | 0.00 | 0.20 | 0.05 | 85 | 1013.2 |
| 20260507052654 | 61 | 215 | 6.1 | 8.7 | 0.00 | 0.20 | 0.05 | 85 | 1013.2 |
| 20260507052540 | 61 | 192 | 7.0 | 8.7 | 0.00 | 0.20 | 0.05 | 85 | 1013.2 |
| 20260507052434 | 61 | 213 | 7.0 | 8.7 | 0.00 | 0.20 | 0.05 | 85 | 1013.2 |
| 20260507052329 | 61 | 200 | 7.0 | 8.7 | 0.00 | 0.20 | 0.05 | 85 | 1013.2 |
| 20260507052237 | 61 | 197 | 7.0 | 8.7 | 0.00 | 0.20 | 0.05 | 86 | 1013.2 |
| 20260507052131 | 61 | 207 | 7.0 | 8.7 | 0.00 | 0.20 | 0.05 | 86 | 1013.2 |
| 20260507052036 | 61 | 190 | 7.0 | 8.7 | 0.00 | 0.20 | 0.05 | 86 | 1013.2 |
| 20260507051935 | 61 | 221 | 7.0 | 8.7 | 0.00 | 0.20 | 0.05 | 86 | 1013.1 |
| 20260507051843 | 61 | 193 | 6.1 | 8.7 | 0.00 | 0.20 | 0.05 | 86 | 1013.1 |
| 20260507051722 | 61 | 212 | 6.1 | 8.7 | 0.00 | 0.20 | 0.05 | 86 | 1013.1 |
| 20260507051641 | 60 | 182 | 6.1 | 8.7 | 0.00 | 0.20 | 0.05 | 86 | 1013.1 |
| 20260507051525 | 60 | 190 | 5.2 | 10.4 | 0.00 | 0.20 | 0.05 | 86 | 1013.0 |
| 20260507051420 | 60 | 190 | 5.2 | 10.4 | 0.00 | 0.20 | 0.05 | 86 | 1013.0 |
| 20260507051321 | 60 | 204 | 5.2 | 10.4 | 0.00 | 0.20 | 0.05 | 86 | 1013.0 |
| 20260507051230 | 60 | 180 | 5.2 | 10.4 | 0.00 | 0.20 | 0.05 | 86 | 1013.0 |
| 20260507051128 | 60 | 187 | 5.2 | 10.4 | 0.00 | 0.20 | 0.05 | 86 | 1013.0 |
| 20260507051036 | 60 | 188 | 6.1 | 10.4 | 0.00 | 0.20 | 0.05 | 86 | 1013.0 |
| 20260507050933 | 60 | 200 | 6.1 | 10.4 | 0.00 | 0.20 | 0.05 | 86 | 1013.1 |
| 20260507050840 | 60 | 187 | 6.1 | 10.4 | 0.00 | 0.20 | 0.05 | 86 | 1013.1 |
| 20260507050735 | 60 | 178 | 6.1 | 10.4 | 0.00 | 0.20 | 0.05 | 86 | 1013.1 |
| 20260507050626 | 60 | 190 | 6.1 | 10.4 | 0.00 | 0.20 | 0.05 | 86 | 1013.1 |
| 20260507050520 | 60 | 191 | 6.1 | 10.4 | 0.00 | 0.20 | 0.05 | 86 | 1013.0 |
| 20260507050448 | 60 | 177 | 6.1 | 10.4 | 0.00 | 0.20 | 0.05 | 86 | 1013.0 |
| 20260507050323 | 60 | 198 | 6.1 | 10.4 | 0.00 | 0.20 | 0.05 | 87 | 1013.0 |
| 20260507050232 | 60 | 192 | 7.0 | 10.4 | 0.00 | 0.20 | 0.05 | 87 | 1013.0 |
| 20260507050128 | 60 | 194 | 7.0 | 10.4 | 0.00 | 0.20 | 0.05 | 87 | 1013.0 |
| 20260507050036 | 60 | 177 | 7.0 | 10.4 | 0.00 | 0.20 | 0.05 | 87 | 1012.9 |
| 20260507045936 | 60 | 198 | 7.0 | 10.4 | 0.00 | 0.28 | 0.05 | 87 | 1012.9 |
| 20260507045843 | 60 | 196 | 7.0 | 10.4 | 0.00 | 0.28 | 0.05 | 87 | 1012.9 |
| 20260507045736 | 60 | 184 | 7.0 | 10.4 | 0.00 | 0.28 | 0.05 | 87 | 1012.9 |
| 20260507045643 | 60 | 185 | 7.0 | 10.4 | 0.00 | 0.28 | 0.05 | 87 | 1012.9 |
| 20260507045559 | 60 | 200 | 6.1 | 7.8 | 0.00 | 0.28 | 0.05 | 87 | 1012.8 |
| 20260507045445 | 60 | 183 | 6.1 | 7.8 | 0.00 | 0.28 | 0.05 | 87 | 1012.9 |
| 20260507045322 | 60 | 201 | 5.2 | 7.8 | 0.00 | 0.28 | 0.05 | 87 | 1012.8 |
| 20260507045222 | 60 | 194 | 5.2 | 7.8 | 0.00 | 0.28 | 0.05 | 87 | 1012.8 |
| 20260507045131 | 60 | 205 | 5.2 | 7.8 | 0.00 | 0.28 | 0.05 | 87 | 1012.8 |
| 20260507045022 | 60 | 197 | 5.2 | 7.8 | 0.00 | 0.28 | 0.05 | 87 | 1012.8 |
| 20260507044931 | 60 | 194 | 4.3 | 7.8 | 0.00 | 0.28 | 0.05 | 87 | 1012.8 |
| 20260507044824 | 60 | 184 | 4.3 | 6.1 | 0.00 | 0.28 | 0.05 | 87 | 1012.7 |
| 20260507044756 | 60 | 192 | 3.5 | 5.2 | 0.00 | 0.28 | 0.05 | 87 | 1012.7 |
| 20260507044703 | 60 | 188 | 3.5 | 5.2 | 0.00 | 0.28 | 0.05 | 87 | 1012.7 |
| 20260507044543 | 60 | 182 | 2.6 | 6.1 | 0.00 | 0.28 | 0.05 | 87 | 1012.6 |
| 20260507044451 | 60 | 182 | 2.6 | 6.1 | 0.00 | 0.28 | 0.05 | 87 | 1012.6 |
| 20260507044325 | 60 | 180 | 2.6 | 6.1 | 0.00 | 0.28 | 0.05 | 87 | 1012.6 |
| 20260507044219 | 60 | 178 | 3.5 | 6.1 | 0.00 | 0.28 | 0.05 | 87 | 1012.6 |
| 20260507044128 | 60 | 175 | 2.6 | 6.1 | 0.00 | 0.28 | 0.05 | 87 | 1012.6 |
| 20260507044052 | 60 | 176 | 2.6 | 6.1 | 0.00 | 0.28 | 0.05 | 87 | 1012.6 |
| 20260507043927 | 60 | 175 | 3.5 | 6.1 | 0.00 | 0.28 | 0.05 | 87 | 1012.5 |
| 20260507043828 | 60 | 184 | 4.3 | 6.1 | 0.00 | 0.28 | 0.05 | 87 | 1012.5 |
| 20260507043737 | 60 | 184 | 4.3 | 7.0 | 0.00 | 0.28 | 0.05 | 87 | 1012.5 |
| 20260507043636 | 60 | 188 | 4.3 | 7.0 | 0.00 | 0.28 | 0.05 | 87 | 1012.5 |
| 20260507043527 | 60 | 190 | 5.2 | 7.0 | 0.00 | 0.28 | 0.05 | 87 | 1012.5 |
| 20260507043434 | 60 | 188 | 4.3 | 7.0 | 0.00 | 0.28 | 0.05 | 87 | 1012.6 |
| 20260507043328 | 60 | 188 | 4.3 | 7.0 | 0.00 | 0.28 | 0.05 | 87 | 1012.5 |
| 20260507043240 | 60 | 188 | 4.3 | 7.0 | 0.00 | 0.28 | 0.05 | 87 | 1012.5 |
| 20260507043208 | 60 | 186 | 5.2 | 7.0 | 0.00 | 0.28 | 0.05 | 87 | 1012.5 |
| 20260507043019 | 60 | 192 | 5.2 | 7.0 | 0.00 | 0.28 | 0.05 | 87 | 1012.6 |
| 20260507042948 | 60 | 192 | 5.2 | 7.0 | 0.00 | 0.28 | 0.05 | 87 | 1012.6 |
| 20260507042825 | 60 | 196 | 5.2 | 6.1 | 0.00 | 0.28 | 0.05 | 87 | 1012.6 |
| 20260507042756 | 60 | 190 | 5.2 | 6.1 | 0.00 | 0.28 | 0.05 | 87 | 1012.6 |
| 20260507042629 | 60 | 192 | 4.3 | 6.1 | 0.00 | 0.28 | 0.05 | 87 | 1012.6 |
| 20260507042533 | 60 | 190 | 5.2 | 6.1 | 0.00 | 0.28 | 0.05 | 87 | 1012.6 |
| 20260507042435 | 60 | 190 | 5.2 | 6.1 | 0.00 | 0.28 | 0.05 | 87 | 1012.6 |
| 20260507042343 | 60 | 206 | 5.2 | 6.1 | 0.00 | 0.28 | 0.05 | 87 | 1012.6 |
| 20260507042238 | 60 | 190 | 4.3 | 6.1 | 0.00 | 0.28 | 0.05 | 87 | 1012.6 |
| 20260507042145 | 60 | 196 | 4.3 | 6.1 | 0.00 | 0.28 | 0.05 | 87 | 1012.6 |
| 20260507042038 | 60 | 201 | 3.5 | 6.1 | 0.00 | 0.28 | 0.05 | 87 | 1012.6 |
| 20260507041945 | 60 | 184 | 4.3 | 6.1 | 0.00 | 0.28 | 0.05 | 87 | 1012.6 |
| 20260507041822 | 60 | 190 | 3.5 | 6.1 | 0.00 | 0.28 | 0.05 | 87 | 1012.6 |
| 20260507041722 | 60 | 182 | 3.5 | 5.2 | 0.00 | 0.28 | 0.05 | 87 | 1012.6 |
| 20260507041635 | 60 | 173 | 3.5 | 5.2 | 0.00 | 0.28 | 0.05 | 87 | 1012.6 |
| 20260507041541 | 60 | 178 | 3.5 | 5.2 | 0.00 | 0.28 | 0.05 | 87 | 1012.6 |
| 20260507041438 | 60 | 181 | 3.5 | 5.2 | 0.00 | 0.28 | 0.05 | 87 | 1012.6 |
| 20260507041333 | 60 | 174 | 3.5 | 5.2 | 0.00 | 0.28 | 0.05 | 87 | 1012.6 |
| 20260507041243 | 60 | 169 | 3.5 | 5.2 | 0.00 | 0.28 | 0.05 | 87 | 1012.5 |
| 20260507041122 | 60 | 173 | 3.5 | 5.2 | 0.00 | 0.28 | 0.05 | 87 | 1012.5 |
| 20260507041019 | 60 | 171 | 3.5 | 5.2 | 0.00 | 0.28 | 0.05 | 87 | 1012.5 |
| 20260507040927 | 60 | 146 | 3.5 | 5.2 | 0.00 | 0.28 | 0.05 | 87 | 1012.5 |
| 20260507040828 | 60 | 146 | 2.6 | 4.3 | 0.00 | 0.28 | 0.05 | 87 | 1012.4 |
| 20260507040737 | 60 | 140 | 2.6 | 4.3 | 0.00 | 0.28 | 0.05 | 87 | 1012.4 |
| 20260507040601 | 60 | 150 | 2.6 | 4.3 | 0.00 | 0.28 | 0.05 | 87 | 1012.4 |
| 20260507040526 | 60 | 146 | 3.5 | 4.3 | 0.00 | 0.28 | 0.05 | 87 | 1012.4 |
| 20260507040336 | 60 | 153 | 1.7 | 4.3 | 0.00 | 0.28 | 0.05 | 87 | 1012.4 |
| 20260507040246 | 60 | 147 | 0.0 | 3.5 | 0.00 | 0.28 | 0.05 | 87 | 1012.4 |
| 20260507040122 | 60 | 147 | 0.9 | 3.5 | 0.00 | 0.28 | 0.05 | 87 | 1012.4 |
| 20260507040029 | 60 | 147 | 0.9 | 3.5 | 0.00 | 0.28 | 0.05 | 87 | 1012.4 |
| 20260507035921 | 60 | 147 | 0.9 | 3.5 | 0.00 | 0.28 | 0.05 | 87 | 1012.4 |
| 20260507035833 | 60 | 147 | 0.9 | 3.5 | 0.00 | 0.28 | 0.05 | 87 | 1012.4 |
| 20260507035728 | 60 | 147 | 0.9 | 3.5 | 0.00 | 0.28 | 0.05 | 87 | 1012.3 |
| 20260507035632 | 60 | 147 | 0.9 | 5.2 | 0.00 | 0.28 | 0.05 | 87 | 1012.4 |
| 20260507035537 | 60 | 147 | 1.7 | 5.2 | 0.00 | 0.28 | 0.05 | 87 | 1012.4 |
| 20260507035432 | 60 | 145 | 1.7 | 5.2 | 0.00 | 0.28 | 0.05 | 87 | 1012.3 |
| 20260507035339 | 60 | 145 | 1.7 | 5.2 | 0.00 | 0.28 | 0.05 | 87 | 1012.4 |
| 20260507035308 | 60 | 145 | 0.9 | 5.2 | 0.00 | 0.28 | 0.05 | 86 | 1012.3 |
| 20260507035142 | 60 | 139 | 1.7 | 6.1 | 0.00 | 0.28 | 0.05 | 86 | 1012.3 |
| 20260507035048 | 60 | 139 | 2.6 | 6.1 | 0.00 | 0.28 | 0.05 | 86 | 1012.4 |
| 20260507034926 | 60 | 141 | 3.5 | 6.1 | 0.00 | 0.28 | 0.05 | 86 | 1012.4 |
| 20260507034822 | 60 | 157 | 3.5 | 6.1 | 0.00 | 0.28 | 0.05 | 86 | 1012.4 |
| 20260507034734 | 60 | 159 | 4.3 | 6.1 | 0.00 | 0.28 | 0.05 | 86 | 1012.4 |
| 20260507034631 | 60 | 147 | 4.3 | 6.1 | 0.00 | 0.28 | 0.05 | 86 | 1012.4 |
| 20260507034539 | 60 | 167 | 4.3 | 6.1 | 0.00 | 0.28 | 0.05 | 86 | 1012.4 |
| 20260507034432 | 60 | 157 | 4.3 | 6.1 | 0.00 | 0.28 | 0.05 | 86 | 1012.4 |
| 20260507034324 | 60 | 165 | 3.5 | 6.1 | 0.00 | 0.28 | 0.05 | 86 | 1012.3 |
| 20260507034240 | 60 | 158 | 4.3 | 6.1 | 0.00 | 0.28 | 0.05 | 86 | 1012.3 |
| 20260507034127 | 60 | 155 | 4.3 | 7.0 | 0.00 | 0.28 | 0.05 | 86 | 1012.3 |
| 20260507034019 | 60 | 141 | 5.2 | 7.0 | 0.00 | 0.28 | 0.05 | 86 | 1012.3 |
| 20260507033927 | 60 | 132 | 4.3 | 7.0 | 0.00 | 0.28 | 0.05 | 86 | 1012.3 |
| 20260507033841 | 60 | 151 | 4.3 | 7.0 | 0.00 | 0.28 | 0.05 | 86 | 1012.3 |
| 20260507033728 | 60 | 145 | 4.3 | 7.0 | 0.00 | 0.28 | 0.05 | 86 | 1012.3 |
| 20260507033623 | 60 | 144 | 3.5 | 7.0 | 0.00 | 0.28 | 0.05 | 86 | 1012.4 |
| 20260507033533 | 61 | 168 | 3.5 | 7.0 | 0.00 | 0.28 | 0.05 | 86 | 1012.4 |
| 20260507033450 | 61 | 165 | 3.5 | 7.0 | 0.00 | 0.28 | 0.05 | 86 | 1012.3 |
| 20260507033358 | 61 | 169 | 4.3 | 7.0 | 0.00 | 0.28 | 0.05 | 86 | 1012.3 |
| 20260507033244 | 61 | 169 | 3.5 | 7.0 | 0.00 | 0.28 | 0.05 | 85 | 1012.4 |
| 20260507033120 | 61 | 159 | 4.3 | 7.0 | 0.00 | 0.28 | 0.05 | 85 | 1012.4 |
| 20260507033031 | 61 | 167 | 5.2 | 7.0 | 0.00 | 0.28 | 0.05 | 85 | 1012.4 |
| 20260507032939 | 61 | 153 | 4.3 | 7.0 | 0.00 | 0.28 | 0.05 | 85 | 1012.5 |
| 20260507032838 | 61 | 162 | 4.3 | 5.2 | 0.00 | 0.28 | 0.05 | 85 | 1012.4 |
| 20260507032745 | 61 | 163 | 3.5 | 5.2 | 0.00 | 0.28 | 0.05 | 85 | 1012.4 |
| 20260507032619 | 61 | 161 | 3.5 | 5.2 | 0.00 | 0.28 | 0.05 | 85 | 1012.4 |
| 20260507032529 | 61 | 157 | 3.5 | 4.3 | 0.00 | 0.28 | 0.05 | 85 | 1012.4 |
| 20260507032425 | 61 | 156 | 2.6 | 4.3 | 0.00 | 0.28 | 0.05 | 85 | 1012.4 |
| 20260507032319 | 61 | 138 | 0.9 | 4.3 | 0.00 | 0.28 | 0.05 | 85 | 1012.4 |
| 20260507032228 | 61 | 136 | 0.9 | 4.3 | 0.00 | 0.28 | 0.05 | 85 | 1012.4 |
| 20260507032126 | 61 | 136 | 1.7 | 4.3 | 0.00 | 0.28 | 0.05 | 85 | 1012.4 |
| 20260507032033 | 61 | 136 | 1.7 | 4.3 | 0.00 | 0.28 | 0.05 | 85 | 1012.5 |
| 20260507031931 | 61 | 136 | 2.6 | 4.3 | 0.00 | 0.28 | 0.05 | 85 | 1012.4 |
| 20260507031839 | 61 | 131 | 2.6 | 4.3 | 0.00 | 0.28 | 0.05 | 85 | 1012.4 |
| 20260507031740 | 61 | 130 | 2.6 | 4.3 | 0.00 | 0.28 | 0.05 | 85 | 1012.4 |
| 20260507031649 | 61 | 126 | 1.7 | 4.3 | 0.00 | 0.28 | 0.05 | 85 | 1012.4 |
| 20260507031527 | 61 | 88 | 0.9 | 1.7 | 0.00 | 0.28 | 0.05 | 85 | 1012.4 |
| 20260507031421 | 61 | 88 | 0.0 | 1.7 | 0.00 | 0.28 | 0.05 | 85 | 1012.4 |
| 20260507031330 | 61 | 88 | 0.0 | 1.7 | 0.00 | 0.28 | 0.05 | 85 | 1012.4 |
| 20260507031227 | 61 | 88 | 0.0 | 3.5 | 0.00 | 0.28 | 0.05 | 85 | 1012.5 |
| 20260507031135 | 61 | 88 | 0.0 | 3.5 | 0.00 | 0.28 | 0.05 | 85 | 1012.4 |
| 20260507031026 | 61 | 88 | 0.9 | 3.5 | 0.00 | 0.28 | 0.05 | 85 | 1012.4 |
| 20260507030919 | 61 | 88 | 0.9 | 3.5 | 0.00 | 0.28 | 0.05 | 85 | 1012.4 |
| 20260507030852 | 61 | 88 | 0.9 | 3.5 | 0.00 | 0.28 | 0.05 | 85 | 1012.4 |
| 20260507030739 | 61 | 88 | 0.9 | 3.5 | 0.00 | 0.28 | 0.05 | 85 | 1012.4 |
| 20260507030637 | 61 | 88 | 0.9 | 3.5 | 0.00 | 0.28 | 0.05 | 85 | 1012.4 |
| 20260507030604 | 61 | 88 | 1.7 | 3.5 | 0.00 | 0.28 | 0.05 | 85 | 1012.4 |
| 20260507030507 | 61 | 88 | 1.7 | 3.5 | 0.00 | 0.28 | 0.05 | 85 | 1012.4 |
| 20260507030319 | 61 | 71 | 0.9 | 4.3 | 0.00 | 0.28 | 0.05 | 85 | 1012.3 |
| 20260507030249 | 61 | 46 | 0.9 | 4.3 | 0.00 | 0.28 | 0.05 | 85 | 1012.3 |
| 20260507030121 | 61 | 46 | 1.7 | 4.3 | 0.00 | 0.28 | 0.05 | 85 | 1012.2 |
| 20260507030019 | 61 | 46 | 1.7 | 4.3 | 0.00 | 0.28 | 0.05 | 85 | 1012.2 |
| 20260507025949 | 61 | 46 | 1.7 | 4.3 | 0.00 | 0.28 | 0.05 | 85 | 1012.2 |
| 20260507025835 | 61 | 45 | 1.7 | 4.3 | 0.00 | 0.28 | 0.05 | 85 | 1012.3 |
| 20260507025733 | 61 | 38 | 2.6 | 4.3 | 0.00 | 0.28 | 0.05 | 85 | 1012.3 |
| 20260507025630 | 61 | 34 | 2.6 | 4.3 | 0.00 | 0.28 | 0.05 | 84 | 1012.3 |
| 20260507025538 | 61 | 32 | 2.6 | 4.3 | 0.00 | 0.28 | 0.05 | 85 | 1012.3 |
| 20260507025419 | 61 | 50 | 1.7 | 4.3 | 0.00 | 0.28 | 0.05 | 84 | 1012.3 |
| 20260507025349 | 61 | 38 | 1.7 | 4.3 | 0.00 | 0.28 | 0.05 | 84 | 1012.3 |
| 20260507025241 | 61 | 23 | 1.7 | 4.3 | 0.00 | 0.28 | 0.05 | 84 | 1012.4 |
| 20260507025129 | 61 | 81 | 0.9 | 3.5 | 0.00 | 0.28 | 0.05 | 84 | 1012.4 |
| 20260507025029 | 61 | 103 | 0.9 | 1.7 | 0.00 | 0.28 | 0.05 | 84 | 1012.4 |
| 20260507024930 | 61 | 103 | 0.9 | 1.7 | 0.00 | 0.28 | 0.05 | 84 | 1012.4 |
| 20260507024836 | 61 | 148 | 0.9 | 1.7 | 0.00 | 0.28 | 0.05 | 84 | 1012.3 |
| 20260507024743 | 61 | 149 | 0.9 | 1.7 | 0.00 | 0.28 | 0.05 | 84 | 1012.3 |
| 20260507024625 | 61 | 152 | 0.0 | 1.7 | 0.00 | 0.28 | 0.05 | 84 | 1012.3 |
| 20260507024536 | 61 | 152 | 0.0 | 1.7 | 0.00 | 0.28 | 0.05 | 84 | 1012.3 |
| 20260507024430 | 61 | 152 | 0.9 | 1.7 | 0.00 | 0.28 | 0.05 | 84 | 1012.3 |
| 20260507024323 | 61 | 152 | 0.9 | 1.7 | 0.00 | 0.28 | 0.05 | 84 | 1012.3 |
| 20260507024229 | 61 | 152 | 0.9 | 1.7 | 0.00 | 0.28 | 0.05 | 84 | 1012.3 |
| 20260507024123 | 61 | 152 | 0.9 | 1.7 | 0.04 | 0.28 | 0.05 | 84 | 1012.3 |
| 20260507024033 | 61 | 152 | 0.9 | 1.7 | 0.04 | 0.28 | 0.05 | 84 | 1012.3 |
| 20260507023927 | 62 | 152 | 0.0 | 0.9 | 0.04 | 0.28 | 0.05 | 84 | 1012.3 |
| 20260507023835 | 62 | 152 | 0.0 | 0.9 | 0.04 | 0.28 | 0.05 | 84 | 1012.3 |
| 20260507023751 | 62 | 152 | 0.0 | 0.9 | 0.04 | 0.28 | 0.05 | 84 | 1012.3 |
| 20260507023637 | 62 | 152 | 0.0 | 1.7 | 0.04 | 0.28 | 0.05 | 84 | 1012.2 |
| 20260507023532 | 62 | 152 | 0.0 | 1.7 | 0.04 | 0.28 | 0.05 | 84 | 1012.3 |
| 20260507023440 | 62 | 152 | 0.0 | 1.7 | 0.04 | 0.28 | 0.05 | 84 | 1012.2 |
| 20260507023318 | 62 | 152 | 0.0 | 1.7 | 0.04 | 0.28 | 0.05 | 84 | 1012.2 |
| 20260507023246 | 62 | 152 | 0.0 | 1.7 | 0.04 | 0.28 | 0.05 | 84 | 1012.2 |
| 20260507023134 | 62 | 152 | 0.0 | 1.7 | 0.04 | 0.28 | 0.05 | 84 | 1012.2 |
| 20260507023049 | 62 | 152 | 0.9 | 1.7 | 0.04 | 0.28 | 0.05 | 84 | 1012.2 |
| 20260507022935 | 62 | 152 | 0.9 | 1.7 | 0.04 | 0.28 | 0.05 | 84 | 1012.2 |
| 20260507022829 | 62 | 152 | 0.9 | 1.7 | 0.04 | 0.28 | 0.05 | 84 | 1012.2 |
| 20260507022740 | 62 | 152 | 0.9 | 1.7 | 0.04 | 0.28 | 0.05 | 83 | 1012.2 |
| 20260507022654 | 62 | 152 | 0.9 | 1.7 | 0.04 | 0.28 | 0.05 | 83 | 1012.2 |
| 20260507022541 | 62 | 152 | 0.9 | 1.7 | 0.08 | 0.28 | 0.05 | 83 | 1012.2 |
| 20260507022453 | 62 | 152 | 0.9 | 1.7 | 0.08 | 0.28 | 0.05 | 83 | 1012.2 |
| 20260507022326 | 62 | 152 | 0.9 | 1.7 | 0.08 | 0.28 | 0.05 | 83 | 1012.2 |
| 20260507022257 | 62 | 152 | 0.9 | 1.7 | 0.12 | 0.28 | 0.05 | 83 | 1012.2 |
| 20260507022206 | 62 | 152 | 0.9 | 1.7 | 0.12 | 0.28 | 0.05 | 83 | 1012.1 |
| 20260507022043 | 62 | 152 | 0.9 | 1.7 | 0.12 | 0.28 | 0.05 | 83 | 1012.0 |
| 20260507021931 | 62 | 152 | 0.9 | 1.7 | 0.12 | 0.28 | 0.05 | 83 | 1012.0 |
| 20260507021848 | 62 | 152 | 0.9 | 3.5 | 0.16 | 0.28 | 0.05 | 83 | 1012.1 |
| 20260507021734 | 62 | 152 | 0.9 | 3.5 | 0.16 | 0.28 | 0.05 | 83 | 1012.0 |
| 20260507021632 | 62 | 152 | 0.0 | 3.5 | 0.16 | 0.28 | 0.05 | 83 | 1012.1 |
| 20260507021537 | 62 | 153 | 0.0 | 3.5 | 0.16 | 0.28 | 0.05 | 83 | 1012.1 |
| 20260507021432 | 62 | 153 | 0.0 | 3.5 | 0.16 | 0.28 | 0.05 | 83 | 1012.1 |
| 20260507021332 | 62 | 153 | 0.0 | 3.5 | 0.16 | 0.28 | 0.05 | 83 | 1012.1 |
| 20260507021220 | 62 | 152 | 0.9 | 3.5 | 0.16 | 0.28 | 0.05 | 83 | 1012.2 |
| 20260507021138 | 62 | 152 | 0.9 | 3.5 | 0.16 | 0.28 | 0.05 | 83 | 1012.2 |
| 20260507021043 | 62 | 152 | 1.7 | 3.5 | 0.16 | 0.28 | 0.05 | 83 | 1012.2 |
| 20260507020937 | 62 | 153 | 1.7 | 2.6 | 0.20 | 0.28 | 0.05 | 83 | 1012.2 |
| 20260507020844 | 62 | 153 | 1.7 | 3.5 | 0.20 | 0.28 | 0.05 | 83 | 1012.1 |
| 20260507020723 | 62 | 159 | 0.9 | 3.5 | 0.20 | 0.28 | 0.05 | 83 | 1012.2 |
| 20260507020621 | 62 | 159 | 0.9 | 1.7 | 0.20 | 0.28 | 0.05 | 83 | 1012.2 |
| 20260507020549 | 62 | 159 | 0.9 | 3.5 | 0.20 | 0.28 | 0.05 | 82 | 1012.2 |
| 20260507020438 | 62 | 159 | 0.9 | 3.5 | 0.20 | 0.28 | 0.05 | 82 | 1012.2 |
| 20260507020319 | 62 | 159 | 0.9 | 3.5 | 0.20 | 0.28 | 0.05 | 82 | 1012.2 |
| 20260507020217 | 62 | 163 | 0.0 | 3.5 | 0.20 | 0.28 | 0.05 | 82 | 1012.3 |
| 20260507020127 | 62 | 163 | 0.0 | 3.5 | 0.20 | 0.28 | 0.05 | 82 | 1012.3 |
| 20260507020021 | 62 | 163 | 0.9 | 3.5 | 0.20 | 0.28 | 0.05 | 82 | 1012.3 |
| 20260507015919 | 62 | 163 | 0.9 | 3.5 | 0.20 | 0.28 | 0.05 | 82 | 1012.3 |
| 20260507015827 | 62 | 163 | 1.7 | 2.6 | 0.20 | 0.28 | 0.05 | 82 | 1012.3 |
| 20260507015754 | 62 | 163 | 0.9 | 5.2 | 0.20 | 0.28 | 0.05 | 82 | 1012.3 |
| 20260507015713 | 62 | 163 | 0.9 | 5.2 | 0.20 | 0.28 | 0.05 | 82 | 1012.4 |
| 20260507015622 | 63 | 163 | 0.0 | 5.2 | 0.20 | 0.28 | 0.05 | 82 | 1012.3 |
| 20260507015439 | 63 | 163 | 0.9 | 5.2 | 0.20 | 0.28 | 0.05 | 82 | 1012.3 |
| 20260507015335 | 63 | 163 | 0.9 | 5.2 | 0.20 | 0.28 | 0.05 | 82 | 1012.3 |
| 20260507015230 | 63 | 164 | 0.9 | 5.2 | 0.20 | 0.28 | 0.05 | 82 | 1012.3 |
| 20260507015137 | 63 | 164 | 0.9 | 5.2 | 0.20 | 0.28 | 0.05 | 82 | 1012.3 |
| 20260507015027 | 63 | 164 | 1.7 | 5.2 | 0.20 | 0.28 | 0.05 | 82 | 1012.3 |
| 20260507014954 | 63 | 164 | 1.7 | 5.2 | 0.20 | 0.28 | 0.05 | 82 | 1012.3 |
| 20260507014845 | 63 | 165 | 1.7 | 4.3 | 0.20 | 0.28 | 0.05 | 81 | 1012.3 |
| 20260507014739 | 63 | 165 | 1.7 | 4.3 | 0.20 | 0.28 | 0.05 | 81 | 1012.4 |
| 20260507014647 | 63 | 165 | 2.6 | 4.3 | 0.20 | 0.28 | 0.05 | 81 | 1012.4 |
| 20260507014519 | 63 | 161 | 1.7 | 4.3 | 0.20 | 0.28 | 0.05 | 81 | 1012.3 |
| 20260507014448 | 63 | 161 | 1.7 | 4.3 | 0.20 | 0.28 | 0.05 | 81 | 1012.3 |
| 20260507014322 | 63 | 178 | 0.9 | 3.5 | 0.20 | 0.28 | 0.05 | 81 | 1012.3 |
| 20260507014250 | 63 | 186 | 0.9 | 3.5 | 0.20 | 0.28 | 0.05 | 81 | 1012.3 |
| 20260507014156 | 63 | 187 | 0.9 | 3.5 | 0.20 | 0.28 | 0.05 | 81 | 1012.2 |
| 20260507014031 | 63 | 187 | 0.9 | 3.5 | 0.16 | 0.24 | 0.04 | 81 | 1012.2 |
| 20260507013940 | 63 | 187 | 0.9 | 3.5 | 0.16 | 0.24 | 0.04 | 81 | 1012.2 |
| 20260507013836 | 63 | 187 | 0.0 | 4.3 | 0.16 | 0.24 | 0.04 | 80 | 1012.1 |
| 20260507013734 | 63 | 187 | 0.0 | 4.3 | 0.16 | 0.24 | 0.04 | 80 | 1012.1 |
| 20260507013701 | 63 | 187 | 0.9 | 4.3 | 0.16 | 0.24 | 0.04 | 80 | 1012.1 |
| 20260507013544 | 63 | 187 | 1.7 | 4.3 | 0.16 | 0.24 | 0.04 | 80 | 1012.1 |
| 20260507013419 | 63 | 187 | 1.7 | 4.3 | 0.16 | 0.24 | 0.04 | 80 | 1012.1 |
| 20260507013329 | 63 | 188 | 1.7 | 4.3 | 0.16 | 0.24 | 0.04 | 80 | 1012.1 |
| 20260507013236 | 63 | 190 | 1.7 | 4.3 | 0.16 | 0.24 | 0.04 | 80 | 1012.2 |
| 20260507013130 | 63 | 191 | 2.6 | 4.3 | 0.16 | 0.24 | 0.04 | 80 | 1012.2 |
| 20260507013058 | 63 | 192 | 3.5 | 4.3 | 0.16 | 0.24 | 0.04 | 79 | 1012.2 |
| 20260507013001 | 64 | 204 | 2.6 | 4.3 | 0.16 | 0.24 | 0.04 | 79 | 1012.3 |
| 20260507012907 | 64 | 204 | 1.7 | 4.3 | 0.16 | 0.24 | 0.04 | 79 | 1012.4 |
| 20260507012721 | 64 | 190 | 0.9 | 3.5 | 0.16 | 0.24 | 0.04 | 79 | 1012.4 |
| 20260507012652 | 64 | 190 | 0.9 | 3.5 | 0.16 | 0.24 | 0.04 | 79 | 1012.4 |
| 20260507012527 | 64 | 190 | 1.7 | 3.5 | 0.12 | 0.20 | 0.03 | 79 | 1012.3 |
| 20260507012425 | 64 | 190 | 1.7 | 3.5 | 0.12 | 0.20 | 0.03 | 79 | 1012.3 |
| 20260507012334 | 64 | 198 | 1.7 | 4.3 | 0.08 | 0.16 | 0.02 | 79 | 1012.3 |
| 20260507012241 | 64 | 210 | 1.7 | 4.3 | 0.08 | 0.16 | 0.02 | 78 | 1012.3 |
| 20260507012158 | 64 | 213 | 0.9 | 5.2 | 0.08 | 0.16 | 0.02 | 78 | 1012.4 |
| 20260507012045 | 64 | 238 | 0.9 | 6.1 | 0.08 | 0.16 | 0.02 | 78 | 1012.3 |
| 20260507012010 | 64 | 252 | 0.9 | 6.1 | 0.08 | 0.16 | 0.02 | 78 | 1012.3 |
| 20260507011827 | 64 | 252 | 0.9 | 6.1 | 0.04 | 0.12 | 0.01 | 78 | 1012.3 |
| 20260507011802 | 64 | 252 | 1.7 | 7.0 | 0.04 | 0.12 | 0.01 | 78 | 1012.3 |
| 20260507011653 | 64 | 252 | 1.7 | 7.0 | 0.04 | 0.12 | 0.01 | 78 | 1012.3 |
| 20260507011540 | 64 | 253 | 2.6 | 7.8 | 0.04 | 0.12 | 0.01 | 78 | 1012.3 |
| 20260507011453 | 64 | 254 | 4.3 | 7.8 | 0.04 | 0.12 | 0.01 | 77 | 1012.2 |
| 20260507011319 | 64 | 252 | 5.2 | 8.7 | 0.04 | 0.12 | 0.01 | 77 | 1012.2 |
| 20260507011233 | 64 | 244 | 4.3 | 8.7 | 0.04 | 0.12 | 0.01 | 77 | 1012.2 |
| 20260507011141 | 64 | 254 | 5.2 | 8.7 | 0.04 | 0.12 | 0.01 | 77 | 1012.2 |
| 20260507011032 | 64 | 229 | 5.2 | 9.6 | 0.00 | 0.08 | 0.00 | 77 | 1012.1 |
| 20260507010943 | 64 | 215 | 6.1 | 9.6 | 0.00 | 0.08 | 0.00 | 77 | 1012.1 |
| 20260507010837 | 64 | 205 | 6.1 | 10.4 | 0.00 | 0.08 | 0.00 | 77 | 1012.1 |
| 20260507010734 | 64 | 208 | 6.1 | 10.4 | 0.00 | 0.08 | 0.00 | 77 | 1012.1 |
| 20260507010622 | 64 | 214 | 6.1 | 10.4 | 0.00 | 0.08 | 0.00 | 76 | 1012.0 |
| 20260507010535 | 64 | 226 | 6.1 | 10.4 | 0.00 | 0.08 | 0.00 | 76 | 1012.0 |
| 20260507010441 | 64 | 223 | 6.1 | 10.4 | 0.00 | 0.08 | 0.00 | 76 | 1012.1 |
| 20260507010318 | 64 | 204 | 7.0 | 10.4 | 0.00 | 0.08 | 0.00 | 76 | 1012.1 |
| 20260507010247 | 64 | 209 | 7.0 | 10.4 | 0.00 | 0.08 | 0.00 | 76 | 1012.1 |
| 20260507010123 | 64 | 217 | 7.8 | 10.4 | 0.00 | 0.08 | 0.00 | 76 | 1012.1 |
| 20260507010039 | 64 | 190 | 7.8 | 10.4 | 0.00 | 0.08 | 0.00 | 76 | 1012.1 |
| 20260507005946 | 64 | 211 | 7.8 | 10.4 | 0.00 | 0.12 | 0.00 | 76 | 1012.1 |
| 20260507005820 | 65 | 207 | 8.7 | 10.4 | 0.00 | 0.12 | 0.00 | 76 | 1012.1 |
| 20260507005728 | 65 | 208 | 7.8 | 10.4 | 0.00 | 0.12 | 0.00 | 76 | 1012.1 |
| 20260507005627 | 65 | 219 | 7.0 | 10.4 | 0.00 | 0.12 | 0.00 | 76 | 1012.2 |
| 20260507005530 | 65 | 198 | 7.0 | 10.4 | 0.00 | 0.12 | 0.00 | 75 | 1012.2 |
| 20260507005457 | 65 | 183 | 7.8 | 10.4 | 0.00 | 0.12 | 0.00 | 76 | 1012.1 |
| 20260507005334 | 65 | 207 | 7.0 | 10.4 | 0.00 | 0.12 | 0.00 | 75 | 1012.1 |
| 20260507005241 | 65 | 227 | 6.1 | 10.4 | 0.00 | 0.12 | 0.00 | 75 | 1012.1 |
| 20260507005159 | 65 | 196 | 7.0 | 10.4 | 0.00 | 0.12 | 0.00 | 75 | 1012.1 |
| 20260507005046 | 65 | 190 | 7.0 | 10.4 | 0.00 | 0.12 | 0.00 | 75 | 1012.1 |
| 20260507005011 | 65 | 185 | 7.8 | 10.4 | 0.00 | 0.12 | 0.00 | 75 | 1012.1 |
| 20260507004820 | 65 | 200 | 8.7 | 10.4 | 0.00 | 0.12 | 0.00 | 75 | 1012.1 |
| 20260507004727 | 65 | 182 | 7.8 | 10.4 | 0.00 | 0.12 | 0.00 | 75 | 1012.1 |
| 20260507004621 | 65 | 188 | 7.8 | 9.6 | 0.00 | 0.12 | 0.00 | 75 | 1012.1 |
| 20260507004527 | 65 | 178 | 7.0 | 9.6 | 0.00 | 0.12 | 0.00 | 75 | 1012.1 |
| 20260507004440 | 65 | 203 | 7.0 | 9.6 | 0.00 | 0.12 | 0.00 | 75 | 1012.1 |
| 20260507004328 | 65 | 198 | 7.0 | 9.6 | 0.00 | 0.12 | 0.00 | 75 | 1012.1 |
| 20260507004239 | 65 | 186 | 6.1 | 8.7 | 0.00 | 0.12 | 0.00 | 75 | 1012.1 |
| 20260507004133 | 65 | 186 | 6.1 | 8.7 | 0.00 | 0.12 | 0.00 | 75 | 1012.1 |
| 20260507004021 | 65 | 196 | 7.0 | 8.7 | 0.00 | 0.12 | 0.00 | 75 | 1012.1 |
| 20260507003917 | 65 | 190 | 6.1 | 7.8 | 0.00 | 0.12 | 0.00 | 75 | 1012.1 |
| 20260507003850 | 65 | 182 | 5.2 | 7.8 | 0.00 | 0.12 | 0.00 | 75 | 1012.1 |
| 20260507003757 | 65 | 194 | 4.3 | 7.8 | 0.00 | 0.12 | 0.00 | 75 | 1012.0 |
| 20260507003629 | 65 | 205 | 4.3 | 7.8 | 0.00 | 0.12 | 0.00 | 75 | 1012.0 |
| 20260507003523 | 65 | 194 | 6.1 | 7.8 | 0.00 | 0.12 | 0.00 | 75 | 1012.1 |
| 20260507003432 | 65 | 208 | 5.2 | 7.8 | 0.00 | 0.12 | 0.00 | 75 | 1012.1 |
| 20260507003338 | 65 | 183 | 6.1 | 7.8 | 0.00 | 0.12 | 0.00 | 75 | 1012.1 |
| 20260507003219 | 65 | 186 | 5.2 | 9.6 | 0.00 | 0.12 | 0.00 | 75 | 1012.1 |
| 20260507003134 | 65 | 207 | 5.2 | 9.6 | 0.00 | 0.12 | 0.00 | 75 | 1012.1 |
| 20260507003039 | 65 | 183 | 6.1 | 9.6 | 0.00 | 0.12 | 0.00 | 75 | 1012.1 |
| 20260507002947 | 65 | 197 | 6.1 | 9.6 | 0.00 | 0.12 | 0.00 | 75 | 1012.1 |
| 20260507002838 | 65 | 204 | 5.2 | 9.6 | 0.00 | 0.12 | 0.00 | 75 | 1012.1 |
| 20260507002733 | 65 | 201 | 6.1 | 9.6 | 0.00 | 0.12 | 0.00 | 75 | 1012.1 |
| 20260507002639 | 65 | 196 | 7.0 | 9.6 | 0.00 | 0.12 | 0.00 | 75 | 1012.0 |
| 20260507002547 | 65 | 213 | 7.0 | 9.6 | 0.00 | 0.12 | 0.00 | 74 | 1012.0 |
| 20260507002509 | 65 | 192 | 7.0 | 9.6 | 0.00 | 0.12 | 0.00 | 74 | 1012.1 |
| 20260507002440 | 65 | 190 | 7.0 | 9.6 | 0.00 | 0.12 | 0.00 | 74 | 1012.1 |
| 20260507002236 | 65 | 193 | 6.1 | 10.4 | 0.00 | 0.12 | 0.00 | 74 | 1012.1 |
| 20260507002134 | 65 | 186 | 6.1 | 10.4 | 0.00 | 0.12 | 0.00 | 74 | 1012.0 |
| 20260507002038 | 65 | 189 | 5.2 | 10.4 | 0.00 | 0.12 | 0.00 | 74 | 1012.0 |
| 20260507001932 | 65 | 198 | 5.2 | 10.4 | 0.00 | 0.12 | 0.00 | 74 | 1012.0 |
| 20260507001839 | 65 | 195 | 5.2 | 10.4 | 0.00 | 0.12 | 0.00 | 74 | 1012.0 |
| 20260507001737 | 65 | 207 | 5.2 | 10.4 | 0.00 | 0.12 | 0.00 | 74 | 1012.0 |
| 20260507001627 | 65 | 173 | 7.0 | 10.4 | 0.00 | 0.12 | 0.00 | 74 | 1012.0 |
| 20260507001519 | 65 | 191 | 7.0 | 10.4 | 0.00 | 0.12 | 0.00 | 74 | 1012.0 |
| 20260507001447 | 65 | 184 | 7.8 | 10.4 | 0.00 | 0.12 | 0.00 | 74 | 1012.0 |
| 20260507001340 | 65 | 195 | 7.0 | 12.2 | 0.00 | 0.12 | 0.00 | 74 | 1012.0 |
| 20260507001252 | 65 | 194 | 6.1 | 12.2 | 0.00 | 0.12 | 0.00 | 74 | 1012.0 |
| 20260507001127 | 65 | 177 | 6.1 | 12.2 | 0.00 | 0.12 | 0.00 | 74 | 1012.0 |
| 20260507001035 | 65 | 191 | 6.1 | 12.2 | 0.00 | 0.12 | 0.00 | 74 | 1012.1 |
| 20260507000937 | 65 | 186 | 7.0 | 12.2 | 0.00 | 0.12 | 0.00 | 74 | 1012.1 |
| 20260507000845 | 65 | 179 | 7.8 | 12.2 | 0.00 | 0.12 | 0.00 | 74 | 1012.1 |
| 20260507000721 | 65 | 198 | 7.8 | 12.2 | 0.00 | 0.12 | 0.00 | 74 | 1012.0 |
| 20260507000649 | 65 | 199 | 8.7 | 12.2 | 0.00 | 0.12 | 0.00 | 74 | 1012.0 |
| 20260507000539 | 65 | 199 | 9.6 | 12.2 | 0.00 | 0.12 | 0.00 | 74 | 1012.1 |
| 20260507000435 | 65 | 186 | 8.7 | 12.2 | 0.00 | 0.12 | 0.00 | 74 | 1012.1 |
| 20260507000343 | 65 | 183 | 8.7 | 12.2 | 0.00 | 0.12 | 0.00 | 74 | 1012.2 |
| 20260507000239 | 65 | 216 | 8.7 | 12.2 | 0.00 | 0.12 | 0.00 | 74 | 1012.3 |
| 20260507000124 | 65 | 196 | 9.6 | 13.0 | 0.00 | 0.12 | 0.00 | 74 | 1012.2 |
| 20260507000025 | 65 | 203 | 8.7 | 13.0 | 0.00 | 0.12 | 0.00 | 74 | 1012.2 |
| 20260506235921 | 65 | 192 | 8.7 | 13.0 | 0.00 | 0.12 | 0.00 | 74 | 1012.2 |
| 20260506235832 | 65 | 181 | 8.7 | 13.0 | 0.00 | 0.12 | 0.00 | 74 | 1012.2 |
| 20260506235800 | 65 | 180 | 7.8 | 13.0 | 0.00 | 0.12 | 0.00 | 74 | 1012.3 |
| 20260506235621 | 65 | 185 | 8.7 | 13.0 | 0.00 | 0.12 | 0.00 | 74 | 1012.3 |
| 20260506235518 | 65 | 198 | 8.7 | 13.0 | 0.00 | 0.12 | 0.00 | 74 | 1012.3 |
| 20260506235430 | 65 | 202 | 8.7 | 13.0 | 0.00 | 0.12 | 0.00 | 74 | 1012.3 |
| 20260506235325 | 65 | 196 | 7.8 | 13.0 | 0.00 | 0.12 | 0.00 | 73 | 1012.3 |
| 20260506235256 | 65 | 200 | 7.8 | 11.3 | 0.00 | 0.12 | 0.00 | 73 | 1012.5 |
| 20260506235129 | 65 | 192 | 9.6 | 11.3 | 0.00 | 0.12 | 0.00 | 73 | 1012.4 |
| 20260506235054 | 65 | 205 | 8.7 | 11.3 | 0.00 | 0.12 | 0.00 | 73 | 1012.4 |
| 20260506234929 | 65 | 209 | 7.0 | 11.3 | 0.00 | 0.12 | 0.00 | 73 | 1012.4 |
| 20260506234821 | 65 | 201 | 7.8 | 10.4 | 0.00 | 0.12 | 0.00 | 73 | 1012.4 |
| 20260506234739 | 65 | 223 | 7.8 | 10.4 | 0.00 | 0.12 | 0.00 | 73 | 1012.4 |
| 20260506234709 | 65 | 197 | 7.8 | 9.6 | 0.00 | 0.12 | 0.00 | 73 | 1012.3 |
| 20260506234639 | 65 | 190 | 7.0 | 9.6 | 0.00 | 0.12 | 0.00 | 73 | 1012.3 |
| 20260506234424 | 65 | 191 | 6.1 | 9.6 | 0.00 | 0.12 | 0.00 | 73 | 1012.3 |
| 20260506234355 | 65 | 215 | 6.1 | 9.6 | 0.00 | 0.12 | 0.00 | 73 | 1012.3 |
| 20260506234227 | 65 | 196 | 6.1 | 9.6 | 0.00 | 0.12 | 0.00 | 73 | 1012.3 |
| 20260506234155 | 66 | 193 | 6.1 | 9.6 | 0.00 | 0.12 | 0.00 | 73 | 1012.3 |
| 20260506234043 | 65 | 178 | 6.1 | 9.6 | 0.00 | 0.12 | 0.00 | 73 | 1012.2 |
| 20260506233939 | 65 | 190 | 6.1 | 9.6 | 0.00 | 0.12 | 0.00 | 73 | 1012.3 |
| 20260506233846 | 66 | 188 | 6.1 | 7.8 | 0.00 | 0.12 | 0.00 | 73 | 1012.3 |
| 20260506233722 | 66 | 180 | 6.1 | 7.8 | 0.00 | 0.12 | 0.00 | 73 | 1012.3 |
| 20260506233652 | 65 | 178 | 5.2 | 7.8 | 0.00 | 0.12 | 0.00 | 73 | 1012.3 |
| 20260506233522 | 65 | 184 | 4.3 | 6.1 | 0.00 | 0.12 | 0.00 | 72 | 1012.4 |
| 20260506233450 | 66 | 175 | 4.3 | 6.1 | 0.00 | 0.12 | 0.00 | 72 | 1012.4 |
| 20260506233326 | 66 | 190 | 3.5 | 7.0 | 0.00 | 0.12 | 0.00 | 72 | 1012.4 |
| 20260506233219 | 66 | 177 | 3.5 | 7.0 | 0.00 | 0.12 | 0.00 | 72 | 1012.3 |
| 20260506233147 | 66 | 177 | 4.3 | 7.0 | 0.00 | 0.12 | 0.00 | 72 | 1012.3 |
| 20260506233022 | 66 | 179 | 3.5 | 7.0 | 0.00 | 0.12 | 0.00 | 72 | 1012.4 |
| 20260506232931 | 66 | 181 | 3.5 | 7.0 | 0.00 | 0.12 | 0.00 | 72 | 1012.4 |
| 20260506232849 | 66 | 197 | 3.5 | 8.7 | 0.00 | 0.12 | 0.00 | 72 | 1012.4 |
| 20260506232756 | 66 | 198 | 4.3 | 8.7 | 0.00 | 0.12 | 0.00 | 72 | 1012.4 |
| 20260506232646 | 66 | 182 | 4.3 | 8.7 | 0.00 | 0.12 | 0.00 | 72 | 1012.4 |
| 20260506232522 | 66 | 191 | 4.3 | 8.7 | 0.00 | 0.12 | 0.00 | 72 | 1012.4 |
| 20260506232450 | 66 | 187 | 3.5 | 8.7 | 0.00 | 0.12 | 0.00 | 72 | 1012.4 |
| 20260506232323 | 66 | 186 | 4.3 | 8.7 | 0.00 | 0.12 | 0.00 | 72 | 1012.4 |
| 20260506232221 | 66 | 185 | 4.3 | 8.7 | 0.00 | 0.12 | 0.00 | 72 | 1012.4 |
| 20260506232150 | 66 | 180 | 5.2 | 8.7 | 0.00 | 0.12 | 0.00 | 72 | 1012.4 |
| 20260506232034 | 66 | 212 | 6.1 | 8.7 | 0.00 | 0.12 | 0.00 | 72 | 1012.3 |
| 20260506231929 | 66 | 173 | 6.1 | 8.7 | 0.00 | 0.12 | 0.00 | 72 | 1012.4 |
| 20260506231841 | 66 | 198 | 5.2 | 8.7 | 0.00 | 0.12 | 0.00 | 72 | 1012.4 |
| 20260506231735 | 66 | 184 | 3.5 | 8.7 | 0.00 | 0.12 | 0.00 | 72 | 1012.4 |
| 20260506231628 | 66 | 173 | 4.3 | 8.7 | 0.00 | 0.12 | 0.00 | 72 | 1012.3 |
| 20260506231532 | 66 | 175 | 4.3 | 8.7 | 0.00 | 0.12 | 0.00 | 72 | 1012.4 |
| 20260506231442 | 66 | 186 | 4.3 | 8.7 | 0.00 | 0.12 | 0.00 | 72 | 1012.4 |
| 20260506231336 | 66 | 181 | 4.3 | 8.7 | 0.00 | 0.12 | 0.00 | 72 | 1012.3 |
| 20260506231304 | 66 | 202 | 5.2 | 8.7 | 0.00 | 0.12 | 0.00 | 72 | 1012.4 |
| 20260506231121 | 66 | 214 | 6.1 | 8.7 | 0.00 | 0.12 | 0.00 | 72 | 1012.3 |
| 20260506231047 | 66 | 231 | 5.2 | 8.7 | 0.00 | 0.12 | 0.00 | 72 | 1012.3 |
| 20260506230924 | 66 | 233 | 6.1 | 8.7 | 0.00 | 0.12 | 0.00 | 72 | 1012.4 |
| 20260506230831 | 66 | 236 | 6.1 | 8.7 | 0.00 | 0.12 | 0.00 | 72 | 1012.4 |
| 20260506230743 | 66 | 229 | 6.1 | 7.8 | 0.00 | 0.12 | 0.00 | 72 | 1012.3 |
| 20260506230631 | 65 | 250 | 5.2 | 7.8 | 0.00 | 0.12 | 0.00 | 72 | 1012.3 |
| 20260506230527 | 65 | 250 | 5.2 | 7.0 | 0.00 | 0.12 | 0.00 | 72 | 1012.4 |
| 20260506230432 | 66 | 229 | 4.3 | 6.1 | 0.00 | 0.12 | 0.00 | 72 | 1012.3 |
| 20260506230403 | 65 | 221 | 4.3 | 6.1 | 0.00 | 0.12 | 0.00 | 72 | 1012.3 |
| 20260506230242 | 65 | 215 | 3.5 | 7.0 | 0.00 | 0.12 | 0.00 | 72 | 1012.4 |
| 20260506230148 | 65 | 210 | 3.5 | 7.0 | 0.00 | 0.12 | 0.00 | 72 | 1012.3 |
| 20260506230116 | 66 | 207 | 3.5 | 7.0 | 0.00 | 0.12 | 0.00 | 72 | 1012.4 |
| 20260506230040 | 65 | 210 | 3.5 | 7.0 | 0.00 | 0.12 | 0.00 | 72 | 1012.4 |
| 20260506225843 | 66 | 204 | 4.3 | 7.0 | 0.00 | 0.20 | 0.00 | 72 | 1012.4 |
| 20260506225715 | 66 | 205 | 4.3 | 7.8 | 0.00 | 0.20 | 0.00 | 72 | 1012.3 |
| 20260506225627 | 66 | 203 | 4.3 | 7.8 | 0.00 | 0.20 | 0.00 | 72 | 1012.3 |
| 20260506225525 | 66 | 193 | 5.2 | 7.8 | 0.00 | 0.20 | 0.00 | 72 | 1012.3 |
| 20260506225455 | 66 | 211 | 4.3 | 7.8 | 0.00 | 0.20 | 0.00 | 72 | 1012.3 |
| 20260506225327 | 66 | 196 | 4.3 | 8.7 | 0.00 | 0.20 | 0.00 | 72 | 1012.3 |
| 20260506225236 | 66 | 218 | 5.2 | 8.7 | 0.00 | 0.20 | 0.00 | 72 | 1012.3 |
| 20260506225134 | 66 | 211 | 5.2 | 9.6 | 0.00 | 0.20 | 0.00 | 72 | 1012.4 |
| 20260506225035 | 66 | 201 | 5.2 | 9.6 | 0.00 | 0.20 | 0.00 | 72 | 1012.3 |
| 20260506224959 | 66 | 203 | 5.2 | 9.6 | 0.00 | 0.20 | 0.00 | 72 | 1012.3 |
| 20260506224846 | 66 | 213 | 5.2 | 9.6 | 0.00 | 0.20 | 0.00 | 71 | 1012.3 |
| 20260506224727 | 66 | 203 | 5.2 | 9.6 | 0.00 | 0.20 | 0.00 | 71 | 1012.4 |
| 20260506224655 | 66 | 192 | 5.2 | 9.6 | 0.00 | 0.20 | 0.00 | 71 | 1012.3 |
| 20260506224546 | 66 | 191 | 6.1 | 9.6 | 0.00 | 0.20 | 0.00 | 71 | 1012.3 |
| 20260506224418 | 66 | 193 | 7.0 | 9.6 | 0.00 | 0.20 | 0.00 | 71 | 1012.3 |
| 20260506224329 | 66 | 209 | 6.1 | 9.6 | 0.00 | 0.20 | 0.00 | 71 | 1012.3 |
| 20260506224221 | 66 | 183 | 5.2 | 8.7 | 0.00 | 0.20 | 0.00 | 71 | 1012.3 |
| 20260506224028 | 66 | 167 | 4.3 | 5.2 | 0.00 | 0.20 | 0.00 | 71 | 1012.3 |
| 20260506223954 | 66 | 173 | 3.5 | 5.2 | 0.00 | 0.20 | 0.00 | 71 | 1012.3 |
| 20260506223922 | 66 | 160 | 3.5 | 5.2 | 0.00 | 0.20 | 0.00 | 71 | 1012.3 |
| 20260506223725 | 66 | 180 | 3.5 | 5.2 | 0.00 | 0.20 | 0.00 | 70 | 1012.3 |
| 20260506223622 | 66 | 189 | 2.6 | 5.2 | 0.00 | 0.20 | 0.00 | 70 | 1012.3 |
| 20260506223531 | 66 | 181 | 3.5 | 5.2 | 0.00 | 0.20 | 0.00 | 70 | 1012.3 |
| 20260506223428 | 66 | 184 | 3.5 | 5.2 | 0.00 | 0.20 | 0.00 | 70 | 1012.4 |
| 20260506223336 | 66 | 196 | 3.5 | 5.2 | 0.00 | 0.20 | 0.00 | 70 | 1012.4 |
| 20260506223216 | 66 | 183 | 3.5 | 5.2 | 0.00 | 0.20 | 0.00 | 70 | 1012.4 |
| 20260506223149 | 66 | 167 | 3.5 | 5.2 | 0.00 | 0.20 | 0.00 | 70 | 1012.4 |
| 20260506223038 | 66 | 180 | 4.3 | 5.2 | 0.00 | 0.20 | 0.00 | 70 | 1012.4 |
| 20260506222932 | 66 | 173 | 3.5 | 6.1 | 0.00 | 0.20 | 0.00 | 70 | 1012.4 |
| 20260506222842 | 66 | 179 | 3.5 | 6.1 | 0.00 | 0.20 | 0.00 | 70 | 1012.4 |
| 20260506222737 | 67 | 188 | 3.5 | 6.1 | 0.00 | 0.20 | 0.00 | 69 | 1012.5 |
| 20260506222617 | 67 | 177 | 2.6 | 7.0 | 0.00 | 0.20 | 0.00 | 69 | 1012.5 |
| 20260506222529 | 67 | 193 | 2.6 | 7.0 | 0.00 | 0.20 | 0.00 | 69 | 1012.5 |
| 20260506222455 | 67 | 205 | 3.5 | 7.0 | 0.00 | 0.20 | 0.00 | 69 | 1012.5 |
| 20260506222329 | 67 | 224 | 4.3 | 7.0 | 0.00 | 0.20 | 0.00 | 69 | 1012.5 |
| 20260506222257 | 67 | 200 | 4.3 | 7.0 | 0.00 | 0.20 | 0.00 | 69 | 1012.6 |
| 20260506222133 | 67 | 196 | 4.3 | 7.0 | 0.00 | 0.20 | 0.00 | 69 | 1012.6 |
| 20260506222041 | 67 | 215 | 5.2 | 9.6 | 0.00 | 0.20 | 0.00 | 69 | 1012.5 |
| 20260506221919 | 67 | 229 | 5.2 | 9.6 | 0.00 | 0.20 | 0.00 | 69 | 1012.5 |
| 20260506221828 | 67 | 225 | 5.2 | 9.6 | 0.00 | 0.20 | 0.00 | 69 | 1012.5 |
| 20260506221744 | 67 | 223 | 5.2 | 9.6 | 0.00 | 0.20 | 0.00 | 69 | 1012.5 |
| 20260506221630 | 67 | 244 | 4.3 | 9.6 | 0.00 | 0.20 | 0.00 | 69 | 1012.5 |
| 20260506221534 | 67 | 229 | 5.2 | 9.6 | 0.00 | 0.20 | 0.00 | 69 | 1012.5 |
| 20260506221431 | 67 | 220 | 5.2 | 9.6 | 0.00 | 0.20 | 0.00 | 69 | 1012.5 |
| 20260506221401 | 67 | 236 | 6.1 | 10.4 | 0.00 | 0.20 | 0.00 | 69 | 1012.4 |
| 20260506221247 | 67 | 211 | 7.0 | 10.4 | 0.00 | 0.20 | 0.00 | 69 | 1012.5 |
| 20260506221123 | 67 | 226 | 6.1 | 10.4 | 0.00 | 0.20 | 0.00 | 69 | 1012.5 |
| 20260506221018 | 67 | 238 | 6.1 | 10.4 | 0.00 | 0.20 | 0.00 | 69 | 1012.5 |
| 20260506220929 | 67 | 213 | 5.2 | 10.4 | 0.00 | 0.20 | 0.00 | 69 | 1012.5 |
| 20260506220857 | 67 | 228 | 6.1 | 10.4 | 0.00 | 0.20 | 0.00 | 69 | 1012.5 |
| 20260506220729 | 67 | 252 | 7.0 | 10.4 | 0.00 | 0.20 | 0.00 | 69 | 1012.5 |
| 20260506220622 | 67 | 216 | 7.8 | 10.4 | 0.00 | 0.20 | 0.00 | 69 | 1012.5 |
| 20260506220533 | 67 | 240 | 7.8 | 10.4 | 0.00 | 0.20 | 0.00 | 69 | 1012.5 |
| 20260506220459 | 67 | 219 | 7.0 | 10.4 | 0.00 | 0.20 | 0.00 | 69 | 1012.5 |
| 20260506220338 | 67 | 215 | 7.0 | 10.4 | 0.00 | 0.20 | 0.00 | 69 | 1012.5 |
| 20260506220235 | 67 | 217 | 6.1 | 10.4 | 0.00 | 0.20 | 0.00 | 69 | 1012.4 |
| 20260506220143 | 67 | 211 | 6.1 | 10.4 | 0.00 | 0.20 | 0.00 | 69 | 1012.5 |
| 20260506220113 | 67 | 186 | 6.1 | 10.4 | 0.00 | 0.20 | 0.00 | 69 | 1012.5 |
| 20260506215948 | 67 | 216 | 7.0 | 10.4 | 0.00 | 0.43 | 0.05 | 69 | 1012.4 |
| 20260506215841 | 67 | 194 | 7.0 | 10.4 | 0.00 | 0.43 | 0.05 | 69 | 1012.5 |
| 20260506215809 | 67 | 231 | 7.0 | 10.4 | 0.00 | 0.43 | 0.05 | 69 | 1012.5 |
| 20260506215636 | 67 | 198 | 6.1 | 10.4 | 0.00 | 0.43 | 0.05 | 69 | 1012.5 |
| 20260506215544 | 67 | 198 | 7.0 | 12.2 | 0.00 | 0.43 | 0.05 | 69 | 1012.5 |
| 20260506215419 | 67 | 215 | 7.0 | 12.2 | 0.00 | 0.43 | 0.05 | 69 | 1012.5 |
| 20260506215348 | 67 | 213 | 7.0 | 12.2 | 0.00 | 0.43 | 0.05 | 69 | 1012.5 |
| 20260506215222 | 67 | 214 | 6.1 | 12.2 | 0.00 | 0.43 | 0.05 | 69 | 1012.5 |
| 20260506215131 | 67 | 209 | 7.8 | 12.2 | 0.00 | 0.43 | 0.05 | 68 | 1012.5 |
| 20260506215042 | 67 | 225 | 7.8 | 12.2 | 0.00 | 0.43 | 0.05 | 69 | 1012.5 |
| 20260506214952 | 67 | 205 | 7.8 | 12.2 | 0.00 | 0.43 | 0.05 | 69 | 1012.5 |
| 20260506214838 | 67 | 215 | 7.8 | 12.2 | 0.00 | 0.43 | 0.05 | 69 | 1012.5 |
| 20260506214735 | 67 | 208 | 7.8 | 11.3 | 0.00 | 0.43 | 0.05 | 69 | 1012.5 |
| 20260506214642 | 67 | 231 | 8.7 | 11.3 | 0.00 | 0.43 | 0.05 | 69 | 1012.5 |
| 20260506214554 | 67 | 231 | 7.8 | 11.3 | 0.00 | 0.43 | 0.05 | 69 | 1012.5 |
| 20260506214441 | 67 | 240 | 7.8 | 11.3 | 0.00 | 0.43 | 0.05 | 69 | 1012.5 |
| 20260506214330 | 67 | 240 | 7.0 | 11.3 | 0.00 | 0.43 | 0.05 | 69 | 1012.5 |
| 20260506214300 | 67 | 232 | 7.0 | 11.3 | 0.00 | 0.43 | 0.05 | 69 | 1012.5 |
| 20260506214134 | 67 | 229 | 6.1 | 11.3 | 0.00 | 0.43 | 0.05 | 69 | 1012.5 |
| 20260506214026 | 67 | 205 | 6.1 | 11.3 | 0.00 | 0.43 | 0.05 | 69 | 1012.5 |
| 20260506213923 | 67 | 213 | 7.0 | 11.3 | 0.00 | 0.43 | 0.05 | 69 | 1012.5 |
| 20260506213853 | 67 | 221 | 7.8 | 11.3 | 0.00 | 0.43 | 0.05 | 69 | 1012.5 |
| 20260506213729 | 67 | 204 | 7.0 | 11.3 | 0.00 | 0.43 | 0.05 | 69 | 1012.5 |
| 20260506213640 | 67 | 206 | 7.8 | 11.3 | 0.00 | 0.43 | 0.05 | 69 | 1012.4 |
| 20260506213531 | 67 | 181 | 8.7 | 11.3 | 0.00 | 0.43 | 0.05 | 69 | 1012.5 |
| 20260506213458 | 67 | 220 | 7.0 | 11.3 | 0.00 | 0.43 | 0.05 | 69 | 1012.4 |
| 20260506213329 | 67 | 210 | 7.0 | 11.3 | 0.00 | 0.43 | 0.05 | 69 | 1012.5 |
| 20260506213216 | 67 | 188 | 7.8 | 11.3 | 0.00 | 0.43 | 0.05 | 69 | 1012.4 |
| 20260506213137 | 67 | 225 | 7.8 | 11.3 | 0.00 | 0.43 | 0.05 | 69 | 1012.4 |
| 20260506213040 | 67 | 225 | 7.8 | 11.3 | 0.00 | 0.43 | 0.05 | 69 | 1012.4 |
| 20260506212946 | 67 | 232 | 7.0 | 15.6 | 0.00 | 0.43 | 0.05 | 69 | 1012.4 |
| 20260506212818 | 67 | 207 | 6.1 | 15.6 | 0.00 | 0.43 | 0.05 | 69 | 1012.5 |
| 20260506212729 | 67 | 215 | 7.0 | 15.6 | 0.00 | 0.43 | 0.05 | 69 | 1012.5 |
| 20260506212659 | 67 | 225 | 7.8 | 15.6 | 0.00 | 0.43 | 0.05 | 68 | 1012.5 |
| 20260506212536 | 67 | 221 | 8.7 | 15.6 | 0.00 | 0.43 | 0.05 | 68 | 1012.5 |
| 20260506212420 | 67 | 211 | 7.8 | 15.6 | 0.00 | 0.43 | 0.05 | 68 | 1012.4 |
| 20260506212327 | 67 | 209 | 7.0 | 15.6 | 0.00 | 0.43 | 0.05 | 68 | 1012.4 |
| 20260506212219 | 67 | 198 | 9.6 | 15.6 | 0.00 | 0.43 | 0.05 | 68 | 1012.4 |
| 20260506212150 | 67 | 208 | 9.6 | 15.6 | 0.00 | 0.43 | 0.05 | 68 | 1012.4 |
| 20260506212022 | 67 | 223 | 7.8 | 13.9 | 0.00 | 0.43 | 0.05 | 68 | 1012.4 |
| 20260506211922 | 67 | 192 | 8.7 | 13.9 | 0.00 | 0.43 | 0.05 | 68 | 1012.4 |
| 20260506211849 | 67 | 186 | 8.7 | 13.9 | 0.00 | 0.43 | 0.05 | 68 | 1012.4 |
| 20260506211740 | 67 | 186 | 8.7 | 13.9 | 0.00 | 0.43 | 0.05 | 68 | 1012.5 |
| 20260506211637 | 67 | 221 | 7.8 | 13.9 | 0.00 | 0.43 | 0.05 | 68 | 1012.5 |
| 20260506211541 | 67 | 188 | 6.1 | 13.9 | 0.00 | 0.43 | 0.05 | 68 | 1012.5 |
| 20260506211437 | 67 | 200 | 7.8 | 13.9 | 0.00 | 0.43 | 0.05 | 68 | 1012.5 |
| 20260506211346 | 67 | 200 | 7.8 | 13.9 | 0.00 | 0.43 | 0.05 | 68 | 1012.5 |
| 20260506211220 | 67 | 211 | 7.0 | 12.2 | 0.00 | 0.43 | 0.05 | 68 | 1012.5 |
| 20260506211148 | 67 | 209 | 7.0 | 12.2 | 0.00 | 0.43 | 0.05 | 67 | 1012.5 |
| 20260506211026 | 67 | 215 | 7.8 | 12.2 | 0.00 | 0.43 | 0.05 | 67 | 1012.5 |
| 20260506210919 | 67 | 202 | 7.8 | 15.6 | 0.00 | 0.43 | 0.05 | 67 | 1012.4 |
| 20260506210846 | 67 | 221 | 7.0 | 15.6 | 0.00 | 0.43 | 0.05 | 67 | 1012.4 |
| 20260506210719 | 67 | 226 | 7.8 | 15.6 | 0.00 | 0.43 | 0.05 | 67 | 1012.4 |
| 20260506210627 | 67 | 234 | 7.8 | 15.6 | 0.00 | 0.43 | 0.05 | 67 | 1012.4 |
| 20260506210554 | 67 | 232 | 8.7 | 20.9 | 0.00 | 0.43 | 0.05 | 67 | 1012.4 |
| 20260506210449 | 67 | 238 | 8.7 | 20.9 | 0.00 | 0.43 | 0.05 | 67 | 1012.3 |
| 20260506210319 | 67 | 201 | 9.6 | 20.9 | 0.00 | 0.43 | 0.05 | 67 | 1012.3 |
| 20260506210238 | 67 | 223 | 10.4 | 20.9 | 0.00 | 0.43 | 0.05 | 67 | 1012.3 |
| 20260506210148 | 67 | 221 | 11.3 | 20.9 | 0.00 | 0.43 | 0.05 | 67 | 1012.3 |
| 20260506210045 | 67 | 230 | 11.3 | 20.9 | 0.00 | 0.43 | 0.05 | 67 | 1012.3 |
| 20260506205939 | 67 | 219 | 10.4 | 20.9 | 0.00 | 0.91 | 0.05 | 67 | 1012.3 |
| 20260506205833 | 67 | 210 | 12.2 | 20.9 | 0.00 | 0.91 | 0.05 | 67 | 1012.3 |
| 20260506205741 | 67 | 244 | 13.0 | 20.9 | 0.00 | 0.91 | 0.05 | 67 | 1012.2 |
| 20260506205619 | 67 | 182 | 12.2 | 20.0 | 0.00 | 0.91 | 0.05 | 67 | 1012.3 |
| 20260506205519 | 67 | 211 | 12.2 | 20.0 | 0.00 | 0.91 | 0.05 | 67 | 1012.3 |
| 20260506205427 | 67 | 190 | 13.0 | 20.0 | 0.00 | 0.91 | 0.05 | 67 | 1012.3 |
| 20260506205333 | 67 | 219 | 12.2 | 20.0 | 0.00 | 0.91 | 0.05 | 67 | 1012.2 |
| 20260506205227 | 67 | 205 | 13.0 | 20.0 | 0.00 | 0.91 | 0.05 | 67 | 1012.3 |
| 20260506205154 | 67 | 229 | 13.9 | 20.9 | 0.00 | 0.91 | 0.05 | 67 | 1012.2 |
| 20260506205036 | 67 | 217 | 13.0 | 20.9 | 0.00 | 0.91 | 0.05 | 67 | 1012.3 |
| 20260506204936 | 67 | 224 | 13.0 | 20.9 | 0.00 | 0.91 | 0.05 | 67 | 1012.4 |
| 20260506204834 | 67 | 217 | 13.0 | 20.9 | 0.00 | 0.91 | 0.05 | 67 | 1012.3 |
| 20260506204722 | 67 | 223 | 12.2 | 20.9 | 0.00 | 0.91 | 0.05 | 67 | 1012.3 |
| 20260506204636 | 67 | 195 | 12.2 | 20.9 | 0.00 | 0.91 | 0.05 | 67 | 1012.3 |
| 20260506204603 | 67 | 241 | 12.2 | 20.9 | 0.00 | 0.91 | 0.05 | 67 | 1012.3 |
| 20260506204529 | 67 | 221 | 12.2 | 20.9 | 0.00 | 0.91 | 0.05 | 67 | 1012.3 |
| 20260506204408 | 67 | 187 | 14.8 | 20.9 | 0.00 | 0.91 | 0.05 | 67 | 1012.3 |
| 20260506204241 | 67 | 213 | 13.0 | 18.2 | 0.00 | 0.91 | 0.05 | 68 | 1012.3 |
| 20260506204208 | 67 | 198 | 11.3 | 18.2 | 0.00 | 0.91 | 0.05 | 68 | 1012.2 |
| 20260506204020 | 67 | 210 | 9.6 | 18.2 | 0.00 | 0.91 | 0.05 | 68 | 1012.2 |
| 20260506203932 | 67 | 227 | 10.4 | 18.2 | 0.00 | 0.91 | 0.05 | 68 | 1012.2 |
| 20260506203833 | 67 | 249 | 12.2 | 18.2 | 0.00 | 0.91 | 0.05 | 67 | 1012.2 |
| 20260506203739 | 67 | 232 | 12.2 | 17.4 | 0.00 | 0.91 | 0.05 | 68 | 1012.2 |
| 20260506203637 | 67 | 187 | 9.6 | 17.4 | 0.00 | 0.91 | 0.05 | 68 | 1012.2 |
| 20260506203541 | 67 | 222 | 10.4 | 17.4 | 0.00 | 0.91 | 0.05 | 68 | 1012.2 |
| 20260506203438 | 67 | 223 | 11.3 | 17.4 | 0.00 | 0.91 | 0.05 | 68 | 1012.2 |
| 20260506203319 | 67 | 217 | 12.2 | 20.0 | 0.00 | 0.91 | 0.05 | 68 | 1012.1 |
| 20260506203228 | 67 | 223 | 10.4 | 20.0 | 0.00 | 0.91 | 0.05 | 68 | 1012.1 |
| 20260506203155 | 67 | 231 | 10.4 | 20.0 | 0.00 | 0.91 | 0.05 | 68 | 1012.2 |
| 20260506203046 | 67 | 214 | 8.7 | 20.0 | 0.00 | 0.91 | 0.05 | 68 | 1012.1 |
| 20260506202919 | 67 | 217 | 9.6 | 20.0 | 0.00 | 0.91 | 0.05 | 68 | 1012.0 |
| 20260506202829 | 67 | 190 | 11.3 | 20.0 | 0.00 | 0.91 | 0.05 | 68 | 1012.0 |
| 20260506202722 | 67 | 242 | 13.0 | 20.0 | 0.00 | 0.91 | 0.05 | 68 | 1011.9 |
| 20260506202638 | 67 | 197 | 14.8 | 20.0 | 0.00 | 0.91 | 0.05 | 68 | 1011.9 |
| 20260506202534 | 67 | 213 | 13.0 | 20.0 | 0.00 | 0.91 | 0.05 | 68 | 1011.9 |
| 20260506202443 | 67 | 202 | 10.4 | 17.4 | 0.00 | 0.91 | 0.05 | 68 | 1012.0 |
| 20260506202321 | 67 | 197 | 9.6 | 16.5 | 0.00 | 0.91 | 0.05 | 68 | 1011.9 |
| 20260506202226 | 67 | 213 | 10.4 | 16.5 | 0.00 | 0.91 | 0.05 | 68 | 1012.0 |
| 20260506202119 | 67 | 211 | 10.4 | 16.5 | 0.00 | 0.91 | 0.05 | 68 | 1011.9 |
| 20260506202048 | 67 | 214 | 9.6 | 16.5 | 0.00 | 0.91 | 0.05 | 68 | 1011.9 |
| 20260506201953 | 67 | 192 | 9.6 | 16.5 | 0.00 | 0.91 | 0.05 | 68 | 1012.0 |
| 20260506201834 | 67 | 191 | 8.7 | 16.5 | 0.00 | 0.91 | 0.05 | 68 | 1011.9 |
| 20260506201804 | 67 | 203 | 7.8 | 15.6 | 0.00 | 0.91 | 0.05 | 68 | 1011.9 |
| 20260506201716 | 67 | 177 | 7.8 | 15.6 | 0.00 | 0.91 | 0.05 | 68 | 1011.9 |
| 20260506201525 | 67 | 221 | 8.7 | 15.6 | 0.00 | 0.91 | 0.05 | 68 | 1012.0 |
| 20260506201420 | 67 | 180 | 7.0 | 12.2 | 0.00 | 0.91 | 0.05 | 68 | 1011.9 |
| 20260506201349 | 67 | 195 | 7.8 | 12.2 | 0.00 | 0.91 | 0.05 | 68 | 1011.9 |
| 20260506201316 | 67 | 177 | 7.8 | 12.2 | 0.00 | 0.91 | 0.05 | 68 | 1012.0 |
| 20260506201242 | 67 | 212 | 7.8 | 13.0 | 0.00 | 0.91 | 0.05 | 68 | 1012.0 |
| 20260506201022 | 67 | 208 | 7.8 | 13.0 | 0.00 | 0.91 | 0.05 | 68 | 1011.9 |
| 20260506200935 | 67 | 191 | 7.0 | 13.0 | 0.00 | 0.91 | 0.05 | 68 | 1011.9 |
| 20260506200830 | 67 | 192 | 7.8 | 13.0 | 0.00 | 0.91 | 0.05 | 68 | 1012.0 |
| 20260506200736 | 67 | 242 | 8.7 | 13.0 | 0.00 | 0.91 | 0.05 | 68 | 1012.0 |
| 20260506200705 | 67 | 203 | 9.6 | 13.0 | 0.00 | 0.91 | 0.05 | 68 | 1012.0 |
| 20260506200538 | 68 | 166 | 8.7 | 13.0 | 0.00 | 0.91 | 0.05 | 68 | 1012.0 |
| 20260506200445 | 68 | 192 | 7.0 | 13.0 | 0.00 | 0.91 | 0.05 | 68 | 1012.0 |
| 20260506200319 | 68 | 173 | 5.2 | 11.3 | 0.00 | 0.91 | 0.05 | 68 | 1012.0 |
| 20260506200219 | 68 | 196 | 5.2 | 10.4 | 0.00 | 0.91 | 0.05 | 68 | 1012.0 |
| 20260506200131 | 68 | 210 | 7.0 | 10.4 | 0.00 | 0.91 | 0.05 | 68 | 1012.0 |
| 20260506200024 | 68 | 203 | 6.1 | 10.4 | 0.00 | 0.91 | 0.05 | 68 | 1011.9 |
| 20260506195933 | 68 | 217 | 5.2 | 9.6 | 0.00 | 1.26 | 0.05 | 68 | 1012.0 |
| 20260506195827 | 68 | 221 | 5.2 | 9.6 | 0.00 | 1.26 | 0.05 | 68 | 1012.0 |
| 20260506195734 | 68 | 221 | 7.0 | 9.6 | 0.00 | 1.26 | 0.05 | 68 | 1012.0 |
| 20260506195650 | 68 | 217 | 7.0 | 9.6 | 0.00 | 1.26 | 0.05 | 68 | 1012.0 |
| 20260506195539 | 68 | 211 | 6.1 | 9.6 | 0.00 | 1.26 | 0.05 | 68 | 1012.0 |
| 20260506195448 | 68 | 192 | 6.1 | 9.6 | 0.00 | 1.26 | 0.05 | 68 | 1012.0 |
| 20260506195342 | 68 | 242 | 6.1 | 11.3 | 0.00 | 1.26 | 0.05 | 68 | 1012.0 |
| 20260506195250 | 68 | 209 | 5.2 | 11.3 | 0.00 | 1.26 | 0.05 | 68 | 1012.0 |
| 20260506195157 | 68 | 188 | 6.1 | 11.3 | 0.00 | 1.26 | 0.05 | 68 | 1012.0 |
| 20260506195107 | 68 | 186 | 6.1 | 11.3 | 0.00 | 1.26 | 0.05 | 68 | 1011.9 |
| 20260506194920 | 68 | 198 | 4.3 | 11.3 | 0.00 | 1.26 | 0.05 | 68 | 1011.9 |
| 20260506194835 | 68 | 248 | 4.3 | 11.3 | 0.00 | 1.26 | 0.05 | 68 | 1011.9 |
| 20260506194746 | 68 | 194 | 3.5 | 12.2 | 0.00 | 1.26 | 0.05 | 68 | 1011.9 |
| 20260506194622 | 68 | 207 | 5.2 | 13.9 | 0.00 | 1.26 | 0.05 | 68 | 1011.8 |
| 20260506194530 | 68 | 227 | 6.1 | 15.6 | 0.00 | 1.26 | 0.05 | 68 | 1011.8 |
| 20260506194443 | 68 | 184 | 6.1 | 15.6 | 0.00 | 1.26 | 0.05 | 68 | 1011.8 |
| 20260506194332 | 68 | 210 | 5.2 | 15.6 | 0.00 | 1.26 | 0.05 | 68 | 1011.8 |
| 20260506194243 | 68 | 202 | 6.1 | 15.6 | 0.00 | 1.26 | 0.05 | 68 | 1011.8 |
| 20260506194142 | 68 | 204 | 7.8 | 15.6 | 0.00 | 1.26 | 0.05 | 68 | 1011.8 |
| 20260506194030 | 68 | 196 | 8.7 | 15.6 | 0.00 | 1.26 | 0.05 | 68 | 1011.8 |
| 20260506193927 | 68 | 225 | 9.6 | 15.6 | 0.00 | 1.26 | 0.05 | 68 | 1011.7 |
| 20260506193821 | 68 | 205 | 9.6 | 15.6 | 0.00 | 1.26 | 0.05 | 68 | 1011.7 |
| 20260506193732 | 68 | 189 | 7.0 | 15.6 | 0.00 | 1.26 | 0.05 | 68 | 1011.7 |
| 20260506193627 | 68 | 163 | 5.2 | 11.3 | 0.00 | 1.26 | 0.05 | 68 | 1011.7 |
| 20260506193559 | 68 | 195 | 5.2 | 11.3 | 0.00 | 1.26 | 0.05 | 68 | 1011.7 |
| 20260506193434 | 68 | 175 | 7.0 | 13.0 | 0.00 | 1.26 | 0.05 | 68 | 1011.6 |
| 20260506193343 | 68 | 180 | 7.0 | 13.0 | 0.00 | 1.26 | 0.05 | 68 | 1011.6 |
| 20260506193250 | 68 | 171 | 6.1 | 13.0 | 0.00 | 1.26 | 0.05 | 68 | 1011.6 |
| 20260506193128 | 68 | 182 | 7.0 | 13.0 | 0.00 | 1.26 | 0.05 | 68 | 1011.6 |
| 20260506193053 | 68 | 174 | 7.0 | 13.0 | 0.00 | 1.26 | 0.05 | 68 | 1011.6 |
| 20260506192945 | 68 | 155 | 6.1 | 15.6 | 0.00 | 1.26 | 0.05 | 68 | 1011.6 |
| 20260506192820 | 68 | 185 | 7.0 | 15.6 | 0.00 | 1.26 | 0.05 | 68 | 1011.6 |
| 20260506192728 | 68 | 169 | 7.0 | 18.2 | 0.00 | 1.26 | 0.05 | 68 | 1011.6 |
| 20260506192622 | 68 | 178 | 7.0 | 18.2 | 0.00 | 1.26 | 0.05 | 67 | 1011.6 |
| 20260506192551 | 68 | 188 | 7.0 | 18.2 | 0.00 | 1.26 | 0.05 | 67 | 1011.6 |
| 20260506192428 | 68 | 165 | 8.7 | 18.2 | 0.00 | 1.26 | 0.05 | 67 | 1011.6 |
| 20260506192335 | 68 | 196 | 7.8 | 18.2 | 0.00 | 1.26 | 0.05 | 67 | 1011.5 |
| 20260506192229 | 68 | 188 | 8.7 | 18.2 | 0.00 | 1.26 | 0.05 | 67 | 1011.5 |
| 20260506192138 | 68 | 176 | 9.6 | 18.2 | 0.00 | 1.26 | 0.05 | 67 | 1011.5 |
| 20260506192029 | 68 | 148 | 9.6 | 18.2 | 0.00 | 1.26 | 0.05 | 67 | 1011.5 |
| 20260506191919 | 68 | 182 | 8.7 | 18.2 | 0.00 | 1.26 | 0.05 | 68 | 1011.7 |
| 20260506191833 | 68 | 198 | 6.1 | 16.5 | 0.00 | 1.26 | 0.05 | 68 | 1011.7 |
| 20260506191742 | 68 | 180 | 7.0 | 16.5 | 0.00 | 1.26 | 0.05 | 68 | 1011.4 |
| 20260506191648 | 68 | 159 | 7.8 | 16.5 | 0.00 | 1.26 | 0.05 | 68 | 1011.4 |
| 20260506191521 | 68 | 212 | 7.8 | 16.5 | 0.00 | 1.26 | 0.05 | 68 | 1011.3 |
| 20260506191438 | 68 | 205 | 7.8 | 16.5 | 0.00 | 1.26 | 0.05 | 67 | 1011.3 |
| 20260506191346 | 68 | 176 | 9.6 | 16.5 | 0.00 | 1.26 | 0.05 | 67 | 1011.4 |
| 20260506191231 | 68 | 196 | 10.4 | 16.5 | 0.00 | 1.26 | 0.05 | 67 | 1011.4 |
| 20260506191158 | 68 | 193 | 9.6 | 12.2 | 0.00 | 1.26 | 0.05 | 67 | 1011.3 |
| 20260506191029 | 68 | 181 | 8.7 | 18.2 | 0.00 | 1.26 | 0.05 | 67 | 1011.3 |
| 20260506190920 | 68 | 196 | 7.8 | 18.2 | 0.00 | 1.26 | 0.05 | 67 | 1011.2 |
| 20260506190849 | 68 | 215 | 8.7 | 18.2 | 0.00 | 1.26 | 0.05 | 67 | 1011.2 |
| 20260506190721 | 68 | 184 | 8.7 | 18.2 | 0.00 | 1.26 | 0.05 | 67 | 1011.2 |
| 20260506190637 | 68 | 198 | 7.8 | 18.2 | 0.00 | 1.26 | 0.05 | 67 | 1011.2 |
| 20260506190435 | 68 | 191 | 10.4 | 18.2 | 0.00 | 1.26 | 0.05 | 67 | 1011.2 |
| 20260506190332 | 68 | 191 | 11.3 | 18.2 | 0.00 | 1.26 | 0.05 | 67 | 1011.1 |
| 20260506190239 | 68 | 195 | 11.3 | 16.5 | 0.00 | 1.26 | 0.05 | 67 | 1011.2 |
| 20260506190138 | 68 | 178 | 9.6 | 16.5 | 0.00 | 1.26 | 0.05 | 67 | 1011.1 |
| 20260506190040 | 68 | 205 | 7.8 | 15.6 | 0.00 | 1.26 | 0.05 | 67 | 1011.2 |
| 20260506185923 | 68 | 198 | 7.8 | 15.6 | 0.00 | 1.73 | 0.05 | 67 | 1011.1 |
| 20260506185816 | 68 | 179 | 8.7 | 15.6 | 0.00 | 1.73 | 0.05 | 67 | 1011.0 |
| 20260506185728 | 68 | 182 | 10.4 | 15.6 | 0.00 | 1.73 | 0.05 | 67 | 1011.0 |
| 20260506185621 | 68 | 201 | 10.4 | 15.6 | 0.00 | 1.73 | 0.05 | 67 | 1010.9 |
| 20260506185536 | 68 | 191 | 10.4 | 15.6 | 0.00 | 1.73 | 0.05 | 67 | 1010.9 |
| 20260506185503 | 68 | 189 | 8.7 | 13.9 | 0.00 | 1.73 | 0.05 | 67 | 1011.1 |
| 20260506185336 | 68 | 180 | 8.7 | 13.0 | 0.00 | 1.73 | 0.05 | 67 | 1010.9 |
| 20260506185231 | 68 | 211 | 8.7 | 13.0 | 0.00 | 1.73 | 0.05 | 67 | 1011.0 |
| 20260506185138 | 68 | 201 | 7.0 | 16.5 | 0.00 | 1.73 | 0.05 | 67 | 1011.0 |
| 20260506185035 | 68 | 175 | 7.0 | 16.5 | 0.00 | 1.73 | 0.05 | 67 | 1011.0 |
| 20260506184941 | 68 | 197 | 7.0 | 16.5 | 0.00 | 1.73 | 0.05 | 67 | 1010.9 |
| 20260506184819 | 68 | 180 | 7.8 | 16.5 | 0.00 | 1.73 | 0.05 | 67 | 1010.9 |
| 20260506184747 | 68 | 181 | 7.8 | 16.5 | 0.00 | 1.73 | 0.05 | 66 | 1010.9 |
| 20260506184621 | 69 | 210 | 7.8 | 19.1 | 0.00 | 1.73 | 0.05 | 66 | 1010.8 |
| 20260506184519 | 69 | 169 | 8.7 | 19.1 | 0.00 | 1.73 | 0.05 | 66 | 1010.8 |
| 20260506184446 | 69 | 213 | 9.6 | 19.1 | 0.00 | 1.73 | 0.05 | 66 | 1010.8 |
| 20260506184326 | 69 | 227 | 10.4 | 19.1 | 0.00 | 1.73 | 0.05 | 66 | 1010.8 |
| 20260506184222 | 69 | 182 | 9.6 | 19.1 | 0.00 | 1.73 | 0.05 | 66 | 1010.7 |
| 20260506184131 | 69 | 196 | 9.6 | 19.1 | 0.00 | 1.73 | 0.05 | 66 | 1010.7 |
| 20260506184029 | 69 | 211 | 10.4 | 19.1 | 0.00 | 1.73 | 0.05 | 66 | 1010.7 |
| 20260506183936 | 69 | 171 | 12.2 | 19.1 | 0.00 | 1.73 | 0.05 | 66 | 1010.8 |
| 20260506183855 | 69 | 182 | 12.2 | 19.1 | 0.00 | 1.73 | 0.05 | 66 | 1010.8 |
| 20260506183827 | 69 | 187 | 12.2 | 19.1 | 0.00 | 1.73 | 0.05 | 66 | 1010.8 |
| 20260506183642 | 69 | 201 | 8.7 | 18.2 | 0.00 | 1.73 | 0.05 | 66 | 1010.7 |
| 20260506183521 | 69 | 227 | 8.7 | 18.2 | 0.00 | 1.73 | 0.05 | 65 | 1010.7 |
| 20260506183437 | 69 | 216 | 8.7 | 18.2 | 0.00 | 1.73 | 0.05 | 65 | 1010.7 |
| 20260506183334 | 69 | 192 | 11.3 | 18.2 | 0.00 | 1.73 | 0.05 | 65 | 1010.7 |
| 20260506183228 | 69 | 187 | 12.2 | 18.2 | 0.00 | 1.73 | 0.05 | 65 | 1010.7 |
| 20260506183136 | 69 | 199 | 11.3 | 18.2 | 0.00 | 1.73 | 0.05 | 65 | 1010.6 |
| 20260506183026 | 69 | 200 | 10.4 | 18.2 | 0.00 | 1.73 | 0.05 | 65 | 1010.7 |
| 20260506182935 | 69 | 199 | 12.2 | 18.2 | 0.00 | 1.73 | 0.05 | 65 | 1010.6 |
| 20260506182836 | 69 | 196 | 12.2 | 19.1 | 0.00 | 1.73 | 0.05 | 65 | 1010.7 |
| 20260506182743 | 69 | 175 | 12.2 | 19.1 | 0.00 | 1.73 | 0.05 | 65 | 1010.7 |
| 20260506182622 | 69 | 196 | 11.3 | 19.1 | 0.00 | 1.73 | 0.05 | 65 | 1010.8 |
| 20260506182550 | 69 | 184 | 10.4 | 19.1 | 0.00 | 1.73 | 0.05 | 65 | 1010.8 |
| 20260506182439 | 69 | 192 | 8.7 | 19.1 | 0.00 | 1.73 | 0.05 | 65 | 1010.7 |
| 20260506182347 | 69 | 182 | 7.0 | 19.1 | 0.00 | 1.73 | 0.05 | 65 | 1010.7 |
| 20260506182219 | 69 | 175 | 7.8 | 19.1 | 0.00 | 1.73 | 0.05 | 65 | 1010.6 |
| 20260506182151 | 69 | 173 | 8.7 | 19.1 | 0.00 | 1.73 | 0.05 | 65 | 1010.6 |
| 20260506182040 | 69 | 182 | 11.3 | 19.1 | 0.00 | 1.73 | 0.05 | 65 | 1010.6 |
| 20260506181949 | 69 | 202 | 11.3 | 19.1 | 0.00 | 1.73 | 0.05 | 65 | 1010.6 |
| 20260506181821 | 69 | 180 | 8.7 | 15.6 | 0.00 | 1.73 | 0.05 | 65 | 1010.6 |
| 20260506181721 | 69 | 182 | 8.7 | 13.9 | 0.00 | 1.73 | 0.05 | 65 | 1010.5 |
| 20260506181652 | 69 | 195 | 8.7 | 13.9 | 0.00 | 1.73 | 0.05 | 65 | 1010.5 |
| 20260506181545 | 69 | 187 | 9.6 | 13.9 | 0.00 | 1.73 | 0.05 | 65 | 1010.6 |
| 20260506181455 | 69 | 171 | 10.4 | 15.6 | 0.00 | 1.73 | 0.05 | 65 | 1010.6 |
| 20260506181332 | 69 | 183 | 10.4 | 15.6 | 0.00 | 1.73 | 0.05 | 65 | 1010.5 |
| 20260506181240 | 69 | 191 | 9.6 | 16.5 | 0.00 | 1.73 | 0.05 | 65 | 1010.6 |
| 20260506181137 | 69 | 184 | 9.6 | 16.5 | 0.00 | 1.73 | 0.05 | 65 | 1010.6 |
| 20260506181041 | 69 | 173 | 8.7 | 16.5 | 0.00 | 1.73 | 0.05 | 64 | 1010.6 |
| 20260506180949 | 69 | 182 | 8.7 | 16.5 | 0.00 | 1.73 | 0.05 | 64 | 1010.6 |
| 20260506180842 | 69 | 188 | 9.6 | 16.5 | 0.00 | 1.73 | 0.05 | 64 | 1010.4 |
| 20260506180731 | 69 | 187 | 10.4 | 16.5 | 0.00 | 1.73 | 0.05 | 64 | 1010.4 |
| 20260506180633 | 69 | 197 | 10.4 | 16.5 | 0.00 | 1.73 | 0.05 | 64 | 1010.5 |
| 20260506180554 | 69 | 187 | 11.3 | 16.5 | 0.00 | 1.73 | 0.05 | 64 | 1010.4 |
| 20260506180427 | 69 | 168 | 9.6 | 16.5 | 0.00 | 1.73 | 0.05 | 64 | 1010.5 |
| 20260506180355 | 69 | 185 | 10.4 | 16.5 | 0.00 | 1.73 | 0.05 | 64 | 1010.5 |
| 20260506180244 | 69 | 187 | 11.3 | 16.5 | 0.00 | 1.73 | 0.05 | 64 | 1010.4 |
| 20260506180123 | 69 | 192 | 10.4 | 18.2 | 0.00 | 1.73 | 0.05 | 64 | 1010.4 |
| 20260506180049 | 69 | 203 | 9.6 | 18.2 | 0.00 | 1.73 | 0.05 | 64 | 1010.4 |
| 20260506175947 | 69 | 194 | 10.4 | 21.7 | 0.00 | 2.28 | 0.05 | 64 | 1010.4 |
| 20260506175819 | 70 | 200 | 10.4 | 21.7 | 0.00 | 2.28 | 0.05 | 64 | 1010.4 |
| 20260506175728 | 70 | 190 | 9.6 | 21.7 | 0.00 | 2.28 | 0.05 | 64 | 1010.4 |
| 20260506175635 | 70 | 185 | 9.6 | 21.7 | 0.00 | 2.28 | 0.05 | 64 | 1010.3 |
| 20260506175527 | 70 | 209 | 10.4 | 25.2 | 0.00 | 2.28 | 0.05 | 64 | 1010.2 |
| 20260506175436 | 70 | 197 | 10.4 | 25.2 | 0.00 | 2.28 | 0.05 | 63 | 1010.3 |
| 20260506175332 | 70 | 192 | 12.2 | 25.2 | 0.00 | 2.28 | 0.05 | 63 | 1010.3 |
| 20260506175230 | 70 | 194 | 13.0 | 25.2 | 0.00 | 2.28 | 0.05 | 63 | 1010.3 |
| 20260506175201 | 70 | 186 | 12.2 | 25.2 | 0.00 | 2.28 | 0.05 | 63 | 1010.2 |
| 20260506175045 | 70 | 196 | 12.2 | 25.2 | 0.00 | 2.28 | 0.05 | 63 | 1010.1 |
| 20260506174922 | 70 | 207 | 13.9 | 25.2 | 0.00 | 2.28 | 0.05 | 63 | 1010.3 |
| 20260506174819 | 70 | 187 | 15.6 | 25.2 | 0.00 | 2.28 | 0.05 | 63 | 1010.3 |
| 20260506174727 | 70 | 175 | 14.8 | 25.2 | 0.00 | 2.28 | 0.05 | 63 | 1010.3 |
| 20260506174641 | 70 | 198 | 13.9 | 20.9 | 0.00 | 2.28 | 0.05 | 63 | 1010.3 |
| 20260506174529 | 70 | 194 | 13.9 | 20.9 | 0.00 | 2.28 | 0.05 | 63 | 1010.2 |
| 20260506174456 | 70 | 187 | 14.8 | 20.9 | 0.00 | 2.28 | 0.05 | 63 | 1010.2 |
| 20260506174329 | 70 | 178 | 15.6 | 20.9 | 0.00 | 2.28 | 0.05 | 63 | 1010.2 |
| 20260506174225 | 70 | 196 | 13.9 | 20.9 | 0.00 | 2.28 | 0.05 | 63 | 1010.1 |
| 20260506174131 | 70 | 197 | 12.2 | 20.9 | 0.00 | 2.28 | 0.05 | 63 | 1010.1 |
| 20260506174039 | 70 | 199 | 14.8 | 20.9 | 0.00 | 2.28 | 0.05 | 63 | 1010.2 |
| 20260506174004 | 70 | 194 | 14.8 | 20.9 | 0.00 | 2.28 | 0.05 | 63 | 1010.1 |
| 20260506173918 | 70 | 205 | 13.0 | 20.9 | 0.00 | 2.28 | 0.05 | 63 | 1010.2 |
| 20260506173735 | 70 | 184 | 11.3 | 20.9 | 0.00 | 2.28 | 0.05 | 63 | 1010.3 |
| 20260506173633 | 70 | 183 | 12.2 | 20.9 | 0.00 | 2.28 | 0.05 | 63 | 1010.1 |
| 20260506173541 | 70 | 192 | 12.2 | 20.9 | 0.00 | 2.28 | 0.05 | 63 | 1010.1 |
| 20260506173435 | 70 | 174 | 11.3 | 20.9 | 0.00 | 2.28 | 0.05 | 63 | 1010.1 |
| 20260506173342 | 70 | 200 | 11.3 | 20.9 | 0.00 | 2.28 | 0.05 | 63 | 1010.1 |
| 20260506173237 | 70 | 199 | 12.2 | 20.9 | 0.00 | 2.28 | 0.05 | 63 | 1010.1 |
| 20260506173144 | 70 | 199 | 10.4 | 20.0 | 0.00 | 2.28 | 0.05 | 63 | 1010.2 |
| 20260506173024 | 70 | 190 | 10.4 | 20.0 | 0.00 | 2.28 | 0.05 | 63 | 1010.2 |
| 20260506172916 | 70 | 200 | 9.6 | 20.0 | 0.00 | 2.28 | 0.05 | 63 | 1010.1 |
| 20260506172828 | 70 | 170 | 10.4 | 20.0 | 0.00 | 2.28 | 0.05 | 63 | 1010.1 |
| 20260506172723 | 70 | 180 | 11.3 | 20.0 | 0.00 | 2.28 | 0.05 | 63 | 1010.1 |
| 20260506172616 | 70 | 193 | 11.3 | 20.0 | 0.00 | 2.28 | 0.05 | 63 | 1010.1 |
| 20260506172527 | 70 | 193 | 13.0 | 20.0 | 0.00 | 2.28 | 0.05 | 63 | 1010.1 |
| 20260506172420 | 70 | 180 | 14.8 | 20.0 | 0.00 | 2.28 | 0.05 | 63 | 1010.1 |
| 20260506172353 | 70 | 196 | 13.9 | 20.0 | 0.00 | 2.28 | 0.05 | 63 | 1010.1 |
| 20260506172319 | 70 | 182 | 13.9 | 20.0 | 0.00 | 2.28 | 0.05 | 63 | 1010.2 |
| 20260506172123 | 70 | 187 | 13.9 | 20.0 | 0.00 | 2.28 | 0.05 | 63 | 1010.2 |
| 20260506172033 | 70 | 200 | 12.2 | 19.1 | 0.00 | 2.28 | 0.05 | 63 | 1010.2 |
| 20260506171933 | 70 | 198 | 11.3 | 20.0 | 0.00 | 2.28 | 0.05 | 63 | 1010.2 |
| 20260506171841 | 70 | 196 | 12.2 | 20.0 | 0.00 | 2.28 | 0.05 | 63 | 1010.1 |
| 20260506171738 | 70 | 201 | 12.2 | 20.0 | 0.00 | 2.28 | 0.05 | 63 | 1010.0 |
| 20260506171650 | 70 | 180 | 11.3 | 20.0 | 0.00 | 2.28 | 0.05 | 63 | 1010.0 |
| 20260506171520 | 70 | 178 | 11.3 | 20.0 | 0.00 | 2.28 | 0.05 | 63 | 1009.9 |
| 20260506171439 | 70 | 209 | 12.2 | 20.0 | 0.00 | 2.28 | 0.05 | 63 | 1009.9 |
| 20260506171346 | 70 | 196 | 11.3 | 20.0 | 0.00 | 2.28 | 0.05 | 62 | 1010.0 |
| 20260506171240 | 70 | 206 | 13.0 | 20.0 | 0.00 | 2.28 | 0.05 | 62 | 1010.1 |
| 20260506171128 | 70 | 186 | 12.2 | 20.0 | 0.00 | 2.28 | 0.05 | 62 | 1010.1 |
| 20260506171018 | 70 | 180 | 9.6 | 18.2 | 0.00 | 2.28 | 0.05 | 63 | 1010.0 |
| 20260506170950 | 70 | 207 | 9.6 | 18.2 | 0.00 | 2.28 | 0.05 | 63 | 1010.0 |
| 20260506170844 | 70 | 169 | 9.6 | 18.2 | 0.00 | 2.28 | 0.05 | 62 | 1010.0 |
| 20260506170721 | 70 | 157 | 8.7 | 18.2 | 0.00 | 2.28 | 0.05 | 62 | 1010.0 |
| 20260506170621 | 70 | 176 | 9.6 | 18.2 | 0.00 | 2.28 | 0.05 | 62 | 1010.0 |
| 20260506170527 | 70 | 188 | 10.4 | 18.2 | 0.00 | 2.28 | 0.05 | 62 | 1010.0 |
| 20260506170422 | 71 | 180 | 9.6 | 16.5 | 0.00 | 2.28 | 0.05 | 62 | 1010.0 |
| 20260506170332 | 71 | 184 | 9.6 | 16.5 | 0.00 | 2.28 | 0.05 | 62 | 1010.0 |
| 20260506170240 | 71 | 199 | 7.8 | 16.5 | 0.00 | 2.28 | 0.05 | 62 | 1010.1 |
| 20260506170142 | 71 | 186 | 7.8 | 16.5 | 0.00 | 2.28 | 0.05 | 62 | 1010.1 |
| 20260506170026 | 71 | 186 | 9.6 | 16.5 | 0.00 | 2.28 | 0.05 | 62 | 1010.2 |
| 20260506165924 | 71 | 179 | 10.4 | 16.5 | 0.00 | 2.32 | 0.05 | 62 | 1010.2 |
| 20260506165851 | 71 | 197 | 9.6 | 16.5 | 0.00 | 2.32 | 0.05 | 62 | 1010.2 |
| 20260506165736 | 71 | 187 | 9.6 | 16.5 | 0.00 | 2.32 | 0.05 | 62 | 1010.2 |
| 20260506165642 | 71 | 178 | 9.6 | 16.5 | 0.00 | 2.32 | 0.05 | 61 | 1010.2 |
| 20260506165536 | 71 | 184 | 9.6 | 13.0 | 0.00 | 2.32 | 0.05 | 61 | 1010.2 |
| 20260506165447 | 71 | 189 | 8.7 | 12.2 | 0.00 | 2.32 | 0.05 | 61 | 1010.2 |
| 20260506165319 | 71 | 168 | 7.8 | 12.2 | 0.00 | 2.32 | 0.05 | 61 | 1010.1 |
| 20260506165247 | 71 | 174 | 7.8 | 12.2 | 0.00 | 2.32 | 0.05 | 61 | 1010.1 |
| 20260506165143 | 71 | 170 | 7.0 | 13.0 | 0.00 | 2.32 | 0.05 | 61 | 1010.2 |
| 20260506165048 | 71 | 181 | 7.0 | 13.0 | 0.00 | 2.32 | 0.05 | 61 | 1010.2 |
| 20260506164923 | 71 | 184 | 7.8 | 13.0 | 0.00 | 2.32 | 0.05 | 61 | 1010.2 |
| 20260506164831 | 71 | 187 | 7.8 | 13.0 | 0.00 | 2.32 | 0.05 | 61 | 1010.2 |
| 20260506164748 | 71 | 202 | 7.8 | 13.0 | 0.00 | 2.32 | 0.05 | 61 | 1010.2 |
| 20260506164638 | 71 | 186 | 7.8 | 15.6 | 0.00 | 2.32 | 0.05 | 61 | 1010.2 |
| 20260506164529 | 71 | 182 | 7.8 | 15.6 | 0.00 | 2.32 | 0.05 | 61 | 1010.2 |
| 20260506164435 | 71 | 169 | 7.8 | 15.6 | 0.00 | 2.32 | 0.05 | 61 | 1010.2 |
| 20260506164402 | 71 | 207 | 8.7 | 15.6 | 0.00 | 2.32 | 0.05 | 61 | 1010.2 |
| 20260506164221 | 71 | 179 | 7.8 | 15.6 | 0.00 | 2.32 | 0.05 | 61 | 1010.2 |
| 20260506164139 | 71 | 179 | 7.8 | 15.6 | 0.00 | 2.32 | 0.05 | 61 | 1010.2 |
| 20260506164020 | 71 | 188 | 7.8 | 17.4 | 0.00 | 2.32 | 0.05 | 61 | 1010.2 |
| 20260506163930 | 71 | 152 | 9.6 | 17.4 | 0.00 | 2.32 | 0.05 | 61 | 1010.2 |
| 20260506163843 | 71 | 202 | 8.7 | 17.4 | 0.00 | 2.32 | 0.05 | 61 | 1010.1 |
| 20260506163752 | 71 | 173 | 7.8 | 17.4 | 0.00 | 2.32 | 0.05 | 61 | 1010.1 |
| 20260506163638 | 71 | 193 | 8.7 | 17.4 | 0.00 | 2.32 | 0.05 | 61 | 1010.1 |
| 20260506163529 | 71 | 189 | 9.6 | 17.4 | 0.00 | 2.32 | 0.05 | 60 | 1010.1 |
| 20260506163437 | 71 | 194 | 9.6 | 17.4 | 0.00 | 2.32 | 0.05 | 60 | 1010.1 |
| 20260506163331 | 71 | 212 | 11.3 | 17.4 | 0.00 | 2.32 | 0.05 | 60 | 1010.1 |
| 20260506163259 | 71 | 200 | 12.2 | 17.4 | 0.00 | 2.32 | 0.05 | 60 | 1010.1 |
| 20260506163137 | 71 | 194 | 12.2 | 17.4 | 0.00 | 2.32 | 0.05 | 60 | 1010.1 |
| 20260506163045 | 71 | 188 | 10.4 | 17.4 | 0.00 | 2.32 | 0.05 | 60 | 1010.1 |
| 20260506162938 | 71 | 185 | 10.4 | 17.4 | 0.00 | 2.32 | 0.05 | 60 | 1010.1 |
| 20260506162845 | 71 | 196 | 11.3 | 17.4 | 0.00 | 2.32 | 0.05 | 60 | 1010.1 |
| 20260506162743 | 71 | 170 | 9.6 | 17.4 | 0.00 | 2.32 | 0.05 | 60 | 1010.1 |
| 20260506162648 | 71 | 169 | 8.7 | 17.4 | 0.00 | 2.32 | 0.05 | 60 | 1010.2 |
| 20260506162540 | 72 | 165 | 9.6 | 17.4 | 0.00 | 2.32 | 0.05 | 60 | 1010.2 |
| 20260506162416 | 72 | 191 | 9.6 | 17.4 | 0.00 | 2.32 | 0.05 | 59 | 1010.2 |
| 20260506162327 | 72 | 182 | 10.4 | 17.4 | 0.00 | 2.32 | 0.05 | 59 | 1010.2 |
| 20260506162237 | 72 | 201 | 11.3 | 17.4 | 0.00 | 2.32 | 0.05 | 59 | 1010.2 |
| 20260506162137 | 72 | 171 | 10.4 | 19.1 | 0.00 | 2.32 | 0.05 | 59 | 1010.2 |
| 20260506162028 | 72 | 177 | 9.6 | 19.1 | 0.00 | 2.32 | 0.05 | 59 | 1010.2 |
| 20260506161936 | 72 | 161 | 8.7 | 19.1 | 0.00 | 2.32 | 0.05 | 59 | 1010.3 |
| 20260506161831 | 72 | 170 | 9.6 | 19.1 | 0.00 | 2.32 | 0.05 | 59 | 1010.2 |
| 20260506161741 | 72 | 162 | 11.3 | 19.1 | 0.00 | 2.32 | 0.05 | 59 | 1010.2 |
| 20260506161709 | 72 | 172 | 10.4 | 19.1 | 0.00 | 2.32 | 0.05 | 59 | 1010.2 |
| 20260506161525 | 72 | 180 | 9.6 | 20.9 | 0.00 | 2.32 | 0.05 | 59 | 1010.2 |
| 20260506161421 | 72 | 173 | 10.4 | 20.9 | 0.00 | 2.32 | 0.05 | 59 | 1010.1 |
| 20260506161348 | 72 | 193 | 10.4 | 20.9 | 0.00 | 2.32 | 0.05 | 58 | 1010.1 |
| 20260506161220 | 72 | 177 | 11.3 | 20.9 | 0.00 | 2.32 | 0.05 | 58 | 1010.1 |
| 20260506161129 | 72 | 196 | 11.3 | 20.9 | 0.00 | 2.32 | 0.05 | 58 | 1010.1 |
| 20260506161025 | 72 | 171 | 10.4 | 20.9 | 0.00 | 2.32 | 0.05 | 58 | 1010.1 |
| 20260506160934 | 72 | 172 | 11.3 | 20.9 | 0.00 | 2.32 | 0.05 | 58 | 1010.1 |
| 20260506160849 | 72 | 175 | 12.2 | 20.9 | 0.00 | 2.32 | 0.05 | 58 | 1010.1 |
| 20260506160739 | 72 | 198 | 13.9 | 21.7 | 0.00 | 2.32 | 0.05 | 58 | 1010.2 |
| 20260506160707 | 73 | 182 | 12.2 | 21.7 | 0.00 | 2.32 | 0.05 | 58 | 1010.3 |
| 20260506160536 | 73 | 193 | 10.4 | 21.7 | 0.00 | 2.32 | 0.05 | 58 | 1010.2 |
| 20260506160431 | 73 | 177 | 12.2 | 21.7 | 0.00 | 2.32 | 0.05 | 58 | 1010.3 |
| 20260506160321 | 73 | 186 | 10.4 | 21.7 | 0.00 | 2.32 | 0.05 | 58 | 1010.3 |
| 20260506160219 | 73 | 178 | 11.3 | 21.7 | 0.00 | 2.32 | 0.05 | 58 | 1010.4 |
| 20260506160147 | 73 | 166 | 13.0 | 21.7 | 0.00 | 2.32 | 0.05 | 57 | 1010.4 |
| 20260506160039 | 73 | 188 | 13.9 | 21.7 | 0.00 | 2.32 | 0.05 | 57 | 1010.3 |
| 20260506155922 | 73 | 175 | 10.4 | 21.7 | 0.00 | 2.32 | 0.05 | 57 | 1010.3 |
| 20260506155837 | 73 | 196 | 9.6 | 19.1 | 0.00 | 2.32 | 0.05 | 57 | 1010.3 |
| 20260506155744 | 73 | 181 | 11.3 | 19.1 | 0.00 | 2.32 | 0.05 | 57 | 1010.3 |
| 20260506155621 | 73 | 185 | 12.2 | 19.1 | 0.00 | 2.32 | 0.05 | 57 | 1010.3 |
| 20260506155520 | 73 | 198 | 11.3 | 19.1 | 0.00 | 2.32 | 0.05 | 57 | 1010.2 |
| 20260506155429 | 73 | 182 | 10.4 | 18.2 | 0.00 | 2.32 | 0.05 | 57 | 1010.2 |
| 20260506155321 | 73 | 170 | 11.3 | 18.2 | 0.00 | 2.32 | 0.05 | 57 | 1010.3 |
| 20260506155253 | 73 | 160 | 13.0 | 18.2 | 0.00 | 2.32 | 0.05 | 56 | 1010.3 |
| 20260506155129 | 73 | 169 | 13.0 | 18.2 | 0.00 | 2.32 | 0.05 | 56 | 1010.4 |
| 20260506155054 | 73 | 176 | 12.2 | 17.4 | 0.00 | 2.32 | 0.05 | 57 | 1010.5 |
| 20260506154946 | 73 | 164 | 11.3 | 17.4 | 0.00 | 2.32 | 0.05 | 57 | 1010.3 |
| 20260506154822 | 73 | 161 | 11.3 | 16.5 | 0.00 | 2.32 | 0.05 | 57 | 1010.3 |
| 20260506154720 | 73 | 158 | 10.4 | 15.6 | 0.00 | 2.32 | 0.05 | 58 | 1010.4 |
| 20260506154627 | 73 | 177 | 9.6 | 15.6 | 0.00 | 2.32 | 0.05 | 57 | 1010.4 |
| 20260506154538 | 73 | 183 | 8.7 | 15.6 | 0.00 | 2.32 | 0.05 | 58 | 1010.6 |
| 20260506154445 | 73 | 173 | 7.0 | 15.6 | 0.00 | 2.32 | 0.05 | 58 | 1010.3 |
| 20260506154322 | 73 | 196 | 8.7 | 15.6 | 0.00 | 2.32 | 0.05 | 58 | 1010.6 |
| 20260506154253 | 73 | 177 | 9.6 | 15.6 | 0.00 | 2.32 | 0.05 | 58 | 1010.6 |
| 20260506154131 | 73 | 192 | 9.6 | 13.9 | 0.00 | 2.32 | 0.05 | 58 | 1010.3 |